           , 2.000,  2.148,  2.295,  2.443,  2.591,  2.739,  2.886,  3.034,  3.182,  3.329,  3.477,  3.625,  3.773,  3.920,  4.068,  4.216,  4.363,  4.511,  4.659,  4.807,  4.954,  5.102,  5.250,  5.398,  5.545,  5.693,  5.841,  5.988,  6.136,  6.284,  6.432,  6.579,  6.727,  6.875,  7.022,  7.170,  7.318,  7.466,  7.613,  7.761,  7.909,  8.056,  8.204,  8.352,  8.500,  8.647,  8.795,  8.943,  9.091,  9.238,  9.386,  9.534,  9.681,  9.829,  9.977, 10.125, 10.272, 10.420, 10.568, 10.715, 10.863, 11.011, 11.159, 11.306, 11.454, 11.602, 11.750, 11.897, 12.045, 12.193, 12.340, 12.488, 12.636, 12.784, 12.931, 13.079, 13.227, 13.374, 13.522, 13.670, 13.818, 13.965, 14.113, 14.261, 14.409, 14.556, 14.704, 14.852, 14.999, 15.147, 15.295, 15.443, 15.590, 15.738, 15.886, 16.033, 16.181, 16.329, 16.477, 16.624, 16.772, 16.920, 17.067, 17.215, 17.363, 17.511, 17.658, 17.806, 17.954, 18.102, 18.249, 18.397, 18.545, 18.692, 18.840, 18.988, 19.136, 19.283, 19.431, 19.579
2011/07/05 00:05,    5.6,    5.4,    5.6,    4.6,    4.5,    5.2,    5.5,    4.9,    6.2,    5.0,    3.3,    2.6,    1.7,    1.3,    0.6,    1.1,    1.3,   -0.4,   -1.3,   -1.6,   -1.2,   -1.8,   -2.5,   -3.8,   -3.8,   -4.6,   -2.1,    3.1,    6.2,    7.4,    7.5,    7.5,    8.6,    9.2,    9.5,    9.9,   11.3,   12.2,   12.8,   12.3,   11.4,   10.9,   10.3,   10.0,   10.3,   10.8,   10.5,   10.3,   10.5,   10.2,   10.0,    9.8,    9.1,    8.4,    8.9,    9.1,    9.9,   11.3,   13.3,   14.3,   15.7,   16.8,   18.1,   19.2,   20.4,   21.9,   23.2,   21.6,   21.2,   19.5,   17.0,   15.6,   15.1,   14.3,   14.2,   13.3,   13.9,   12.7,   11.6,    9.6,    8.7,    7.2,    3.8,    2.8,    1.3,    0.9,    1.4,    2.1,   -4.5,   -3.1,   -1.0,    1.1,    1.8,   -0.8,   -3.7,   -3.7,   -3.6,   -0.4,    1.4,  999.0,   -3.6,   -5.6,   -5.8,   -6.4,   -5.0,   -5.2,   -4.9,  999.0,  999.0,   -5.2,   -7.2,   -8.0,   -2.1,  999.0,  999.0,  999.0,  999.0,  999.0,  999.0,  999.0
2011/07/05 00:15,    6.2,    5.9,    6.4,    6.5,    6.0,    5.9,    6.0,    5.5,    3.1,    3.7,    3.4,    2.4,    2.4,    1.3,    0.5,   -0.8,   -2.0,   -2.1,   -3.4,   -3.4,   -3.1,   -4.1,   -3.7,   -4.5,   -4.7,   -2.9,   -1.7,    0.4,    2.7,    4.2,    6.5,    8.2,    8.8,    9.2,    8.8,    9.2,    9.6,   10.4,   10.7,   10.2,    9.9,    9.9,   10.6,   10.9,   11.4,   11.7,   12.1,   12.4,   12.2,   10.1,    8.5,    7.4,    9.3,    9.4,    8.6,    9.8,   10.8,   14.0,   17.0,   17.7,   17.4,   17.9,   18.3,   18.3,   19.5,   20.0,   20.8,   21.1,   20.2,   18.2,   17.6,   18.4,   17.2,   16.1,   15.4,   14.8,   14.0,   12.0,   10.4,    8.6,    7.4,    6.0,    3.6,    1.4,    0.8,   -0.6,    0.9,   -3.4,   -4.2,   -0.8,   -1.1,    1.3,    1.0,   -1.8,   -3.5,   -3.8,   -3.2,   -1.5,  999.0,   -0.9,   -4.4,   -6.0,   -6.7,   -6.9,   -6.4,   -6.0,   -4.5,  999.0,   -2.6,  999.0,   -6.5,   -5.3,   -3.5,  999.0,  999.0,  999.0,  999.0,  999.0,  999.0,  999.0
2011/07/05 00:25,    6.4,    6.1,    5.2,    6.0,    6.4,    7.2,    7.0,    5.9,    4.1,    1.7,    2.0,    0.2,   -1.2,   -1.2,   -0.4,   -0.8,    0.9,    0.1,   -0.6,   -0.9,   -1.7,   -2.2,   -2.8,   -3.2,   -2.5,   -1.7,   -0.2,   -0.5,   -0.1,    1.6,    4.3,    6.0,    5.5,    8.2,    8.7,    9.1,    8.4,    9.4,    9.9,   10.4,   10.5,   10.4,   10.6,   11.3,   11.8,   12.4,   12.8,   12.3,   14.6,   12.8,    8.9,    8.4,    9.5,   10.5,   10.0,   11.2,   13.5,   15.5,   17.6,   19.0,   19.4,   20.2,   20.1,   20.4,   20.7,   20.6,   20.6,   21.4,   21.6,   20.7,   19.0,   18.4,   18.4,   17.4,   15.1,   14.4,   12.8,   11.3,   10.1,    9.6,    7.7,    6.3,    6.4,    4.4,    3.2,    3.0,    2.9,    2.1,   -2.3,   -1.6,  999.0,    2.0,    2.0,   -0.9,   -2.6,   -3.1,   -2.5,   -3.7,  999.0,   -1.1,   -3.2,   -5.8,   -7.7,   -7.7,   -5.9,   -5.7,   -6.2,   -4.5,  999.0,   -5.7,   -7.0,   -5.5,   -3.7,  999.0,  999.0,  999.0,  999.0,  999.0,  999.0,  999.0
2011/07/05 00:35,    7.2,    6.4,    6.9,    6.1,    5.8,    6.8,    6.3,    5.5,    3.8,    1.6,    1.8,    3.5,    3.7,    3.2,    1.8,    0.8,   -0.1,   -1.4,   -2.1,   -1.6,   -1.8,   -2.3,   -2.9,   -3.3,   -3.2,   -3.0,   -1.2,   -0.4,   -0.1,    0.2,    2.0,    4.2,    7.2,    9.8,   10.8,   10.3,   10.1,    9.8,    9.9,    9.9,   10.3,   11.2,   12.1,   13.0,   12.8,   12.3,   11.6,   11.8,    8.9,    8.3,  999.0,   10.9,   11.2,   10.6,   10.0,   10.2,   10.8,   11.5,   14.7,   16.8,   18.4,   18.0,   18.3,   18.5,   18.0,   18.3,   18.4,   19.9,   20.8,   20.8,   19.8,   18.8,   18.8,   17.4,   15.5,   13.4,   11.6,    9.5,    7.9,    5.8,    4.4,    3.4,    3.0,    3.0,    1.9,    4.5,    4.3,    4.9,   -6.0,   -0.7,  999.0,    3.2,    1.9,   -1.0,   -1.6,   -3.8,   -2.9,   -2.5,  999.0,  999.0,   -3.3,   -5.8,   -9.2,   -9.7,  -10.0,   -6.3,   -7.3,   -7.6,  999.0,   -6.5,   -7.4,   -4.4,   -4.5,  999.0,  999.0,  999.0,  999.0,  999.0,  999.0,  999.0
2011/07/05 00:45,    6.6,    7.7,    8.4,    8.3,    7.9,    6.8,    6.0,    5.0,    5.4,    5.0,    4.7,    4.6,    3.4,    2.5,    1.5,    1.1,    0.3,   -0.3,   -0.3,   -0.6,   -1.1,   -1.3,   -1.9,   -2.8,   -2.7,   -2.2,   -1.5,   -1.2,   -0.5,   -0.4,    0.6,    2.5,    6.3,   10.8,   12.0,   12.9,   13.2,   13.4,   14.1,   13.9,   13.6,   13.0,   12.8,   12.7,   12.8,   12.3,   11.7,   10.9,   10.3,   10.5,   12.0,   11.3,   11.4,   11.8,   11.3,   10.6,   11.2,   13.0,   15.3,   17.9,   19.5,   19.0,   18.6,   18.6,   18.8,   18.7,   18.5,   18.5,   18.8,   18.7,   17.2,   16.3,   15.6,   15.5,   12.5,   10.9,    9.1,    7.4,    6.5,    3.8,    5.3,  999.0,    0.5,    1.5,    2.3,    4.4,    5.0,    5.7,  999.0,   -1.7,   -1.7,   -0.6,   -2.5,   -3.5,   -4.2,   -3.8,   -4.0,   -2.7,   -2.1,   -1.2,   -2.9,   -4.3,   -7.2,   -7.8,   -7.3,   -4.8,   -6.8,   -5.6,  999.0,   -5.2,   -6.4,   -4.1,   -3.8,   -1.7,  999.0,  999.0,  999.0,  999.0,  999.0,  999.0
2011/07/05 00:55,    8.7,    7.8,    8.0,    7.7,    7.9,    8.0,    7.3,    6.6,    5.0,    4.2,    3.2,    3.8,    3.5,    2.2,    1.6,    1.5,    1.1,    0.8,    1.2,    1.5,    1.6,    0.9,    1.6,    1.9,    1.5,    0.3,    0.2,   -0.1,   -0.5,    0.5,    3.0,    7.5,   11.3,   12.9,   12.8,   13.0,   12.7,   12.2,   11.9,   12.5,   12.4,   12.9,   13.1,   12.9,   12.2,   10.9,   11.7,    9.5,    8.5,    8.7,    9.6,   10.9,   10.5,    8.9,   10.1,    9.9,   12.5,   15.6,   17.5,   18.7,   19.7,   20.7,   20.2,   20.8,   20.2,   19.7,   20.2,   20.3,   20.3,   19.1,   19.3,   19.4,   17.5,   17.5,   15.8,   14.3,   12.3,   11.0,   10.2,    7.0,    5.5,    2.7,    3.6,    3.7,    4.2,    5.4,    5.7,    4.5,   -0.9,   -2.5,   -3.7,   -3.3,   -4.3,   -5.7,   -5.8,   -4.8,   -4.2,   -2.8,   -2.7,  999.0,   -4.2,   -5.1,   -6.8,   -6.3,   -6.8,   -3.9,   -4.2,   -4.4,  999.0,   -0.9,   -4.5,   -3.1,   -0.8,  999.0,  999.0,  999.0,  999.0,  999.0,  999.0,  999.0
2011/07/05 01:05,    6.9,    5.4,    6.0,    6.2,    6.2,    6.1,    6.6,    6.6,    5.4,    4.0,    3.6,    2.4,    2.4,    1.5,    1.7,    1.7,    0.6,    1.0,    1.0,    1.6,    0.8,    0.3,   -0.5,   -0.8,   -0.1,   -0.8,   -1.2,   -0.7,   -0.3,    1.3,    5.0,    7.1,   12.4,   15.1,   14.4,   14.0,   14.0,   13.9,   14.1,   13.7,   13.9,   13.8,   13.5,   13.3,   12.1,   11.3,   11.1,   10.5,   10.5,   10.7,   10.3,   11.0,   11.2,   11.8,   10.9,   11.5,   10.5,    9.3,   13.1,   15.0,   18.8,   19.0,   19.9,   18.5,   20.3,   19.8,   19.7,   19.0,   18.9,   19.3,   18.5,   18.3,   18.4,   16.3,   15.4,   12.8,   11.6,   10.1,    7.8,    7.9,  999.0,    1.5,    2.1,    2.8,    3.4,    4.7,    4.6,    1.3,    0.4,   -1.9,   -3.4,   -2.8,   -3.2,   -5.0,   -5.9,   -5.6,   -4.9,   -2.8,   -3.1,   -4.5,   -5.1,   -5.6,   -7.7,   -7.3,  999.0,   -5.4,   -5.4,  999.0,  999.0,   -2.6,   -4.3,   -2.7,   -1.4,  999.0,  999.0,  999.0,  999.0,  999.0,  999.0,  999.0
2011/07/05 01:15,    6.5,    5.6,    5.6,    5.6,    5.5,    5.4,    6.8,    6.4,    5.0,    4.7,    4.5,    3.2,    1.6,    3.8,    2.9,    2.6,    1.2,   -0.0,    2.0,    2.3,    3.8,    0.9,  999.0,    0.2,   -0.3,   -0.4,   -0.2,    0.6,    1.9,    1.6,    3.3,    5.8,    7.5,   11.0,   13.9,   14.8,   15.1,   14.6,   14.3,   13.6,   13.3,   13.1,   12.5,   11.7,   12.0,   11.1,   11.1,   11.0,   11.1,    9.3,   11.4,   10.6,  999.0,  999.0,   14.6,   14.8,   12.9,   12.5,   11.7,   13.5,   15.6,   18.6,   17.2,   17.2,   16.7,   18.3,   17.5,   19.2,   18.6,   18.4,   18.1,   18.1,   19.1,   14.8,   14.9,   13.3,   10.7,    8.9,    7.2,    6.7,    5.8,    2.6,    1.9,    2.6,    3.8,    5.8,    5.0,    2.8,   -0.6,   -2.8,  999.0,   -0.8,   -1.6,   -5.9,   -6.5,   -6.9,   -6.6,   -4.7,   -4.0,   -4.2,   -3.5,   -5.8,   -6.6,   -6.4,   -6.3,   -4.4,   -4.8,  999.0,  999.0,  999.0,   -4.6,   -3.3,   -1.3,  999.0,    4.4,    1.2,  999.0,  999.0,  999.0,  999.0
2011/07/05 01:25,    6.1,    6.1,    5.8,    6.1,    6.1,    5.4,    5.0,    4.5,    3.1,    2.0,    1.8,    1.4,    1.9,    1.8,    1.7,    2.0,    1.4,    0.2,    1.7,    2.0,    1.4,    1.2,    0.7,   -0.1,   -0.1,   -0.9,   -0.2,   -0.4,   -0.2,    2.2,    4.5,    6.3,    7.6,    9.7,   11.9,   13.1,   13.1,   13.0,   12.5,   13.4,   12.9,   13.3,   13.5,   14.4,   13.2,   13.5,   14.9,   17.2,   15.2,   10.9,    6.5,   11.0,   10.9,   13.5,   13.5,  999.0,   12.4,   12.0,   11.7,   11.5,   12.7,   14.7,   16.8,   17.8,   18.4,   20.1,   21.0,   20.3,   19.8,   19.4,   19.6,   19.4,   18.0,   15.1,   14.2,   14.1,   12.1,   10.4,    9.3,    8.5,    7.2,    5.2,    2.9,    2.7,    3.9,    5.5,    5.2,    0.7,   -1.5,   -2.8,  999.0,    0.6,    0.3,   -5.0,   -5.4,   -5.5,   -5.2,   -4.1,   -2.9,   -4.3,   -3.3,   -4.8,   -6.1,   -6.3,  999.0,   -3.8,   -5.4,  999.0,  999.0,  999.0,   -2.9,   -2.9,   -2.2,  999.0,  999.0,  999.0,  999.0,  999.0,  999.0,  999.0
2011/07/05 01:35,    6.0,    5.6,    5.5,    5.6,    5.4,    4.8,    4.4,    3.9,    4.5,    4.0,    3.9,    4.0,    3.3,    1.8,    1.4,    1.8,    0.1,    0.3,    1.8,    2.1,    2.5,    2.4,  999.0,   -0.0,    0.1,   -0.6,   -0.6,   -0.6,    0.6,    2.5,    4.2,    5.7,    8.0,   11.7,   12.6,   13.8,   13.6,   12.1,   11.5,   12.3,   13.5,   14.3,   15.0,   15.3,   14.9,   15.3,   16.1,   16.2,  999.0,   16.3,  999.0,   12.5,   12.6,   14.9,   15.7,   13.8,   14.9,   16.1,   14.6,   15.7,   13.5,   13.6,   14.4,   16.5,   17.4,   17.4,   18.4,   19.4,   19.7,   19.6,   18.1,   17.0,   15.5,   14.4,   14.1,   13.0,   11.1,   11.0,   10.9,    8.4,    3.1,    2.8,    2.4,    4.2,    3.5,    5.1,    5.4,    1.6,   -1.6,   -2.4,   -2.0,    3.1,    0.4,   -3.8,   -4.8,   -4.7,   -3.2,   -2.6,   -4.0,   -3.3,   -3.5,   -5.4,   -5.8,   -5.6,   -5.5,  999.0,   -6.0,  999.0,  999.0,  999.0,   -3.3,   -1.3,  999.0,  999.0,  999.0,  999.0,  999.0,  999.0,  999.0,   -1.9
2011/07/05 01:45,    3.6,    3.4,    3.5,    4.6,    4.5,    4.6,    3.9,    4.4,    3.8,    6.0,    4.6,    5.2,    2.8,    1.8,    1.7,    3.3,    2.5,    5.0,    6.4,    2.4,  999.0,  999.0,  999.0,  999.0,    1.4,  999.0,  999.0,    1.5,    2.1,    2.6,    5.3,    6.1,    9.5,   12.0,   13.0,   13.5,   13.3,   11.6,   11.1,   11.8,   12.3,   13.3,   14.4,   15.5,   14.8,   16.3,   16.7,   17.7,   16.0,   13.7,   13.6,   11.8,   13.6,   13.7,   15.6,   15.5,  999.0,   13.1,   12.7,   12.7,   10.8,    9.6,    9.4,   11.3,   13.0,   13.9,   15.0,   15.7,   15.9,   16.9,   16.7,   16.6,   16.9,   16.3,   15.5,   13.5,   12.3,   12.8,   11.8,    9.0,    7.5,    6.3,    4.8,    3.4,    4.6,    5.1,    2.4,   -0.9,   -1.8,   -1.6,  999.0,    1.6,   -1.2,   -4.5,   -4.9,   -4.2,   -3.1,   -3.5,   -1.9,   -2.6,   -5.3,   -5.3,   -5.3,   -5.6,   -4.4,   -5.8,  999.0,  999.0,  999.0,  999.0,   -3.5,   -2.3,   -3.1,    1.0,  999.0,  999.0,  999.0,  999.0,  999.0,  999.0
2011/07/05 01:55,    3.9,    4.4,    4.8,    5.2,    6.4,    5.0,    4.6,    3.8,    4.1,    2.7,    3.8,    4.4,    4.4,    4.1,    0.9,    2.8,  999.0,  999.0,  999.0,  999.0,  999.0,  999.0,  999.0,   -2.7,   -3.1,  999.0,  999.0,   -1.9,   -1.7,  999.0,    3.6,    5.6,    8.6,   11.2,   13.8,   14.9,   13.7,   12.1,    9.3,   12.3,   12.1,   13.8,   14.6,   15.7,   16.5,   17.9,   19.0,   18.2,   18.0,   14.9,   13.7,   12.2,   12.4,  999.0,  999.0,  999.0,  999.0,   11.8,   13.8,   12.4,   11.6,   10.4,    9.6,   10.9,   11.5,   14.6,   14.7,   16.2,   15.8,   20.7,   17.6,   17.4,   16.1,   16.5,   15.4,   16.4,   14.0,   14.0,   11.6,    8.3,    6.7,    2.2,    4.4,    3.3,    3.0,    3.9,    3.4,   -0.1,   -2.0,   -2.2,  999.0,    1.1,   -0.9,   -4.3,   -4.0,   -3.6,   -2.3,   -0.6,   -2.6,   -2.3,   -3.4,   -6.9,   -6.5,   -6.1,   -5.7,   -5.4,  999.0,  999.0,  999.0,  999.0,   -3.7,   -2.5,   -1.2,  999.0,  999.0,  999.0,  999.0,  999.0,  999.0,  999.0
2011/07/05 02:05,    6.6,    7.6,    7.4,    3.5,    9.1,    9.1,    4.9,    5.0,    2.9,    8.3,    5.0,    5.4,    6.5,    5.6,    4.3,    3.9,    4.0,  999.0,  999.0,  999.0,  999.0,    0.4,  999.0,   -1.0,  999.0,  999.0,  999.0,  999.0,    0.1,    3.1,    6.1,    7.1,    9.7,   12.1,   14.0,   14.8,   14.3,   12.5,   11.7,  999.0,  999.0,   13.8,   16.3,   17.1,   18.3,   19.0,   20.0,   21.8,   19.4,   18.0,   15.8,   14.0,   11.8,  999.0,  999.0,  999.0,   14.6,   14.2,   13.8,   13.3,   12.6,   11.6,  999.0,  999.0,   12.1,   13.1,   14.3,   16.1,   13.0,   13.1,   14.8,   15.4,   15.3,   15.7,   16.9,   16.8,   14.9,   12.6,   10.9,    8.2,    4.6,    4.0,    4.6,    1.8,    3.7,    4.7,    5.1,    1.5,   -1.0,   -1.3,    2.4,   -0.4,   -3.4,   -6.2,   -6.4,   -4.5,   -2.7,   -0.3,   -1.2,   -1.8,   -2.5,   -5.9,   -6.8,   -5.9,   -4.1,   -3.5,   -2.7,  999.0,  999.0,  999.0,   -2.7,   -2.3,   -1.6,   -1.6,  999.0,  999.0,  999.0,  999.0,  999.0,  999.0
2011/07/05 02:15,    3.7,    5.8,    4.7,    6.5,    9.1,    9.3,    9.0,    6.9,    2.6,    3.9,    0.9,    1.4,    1.6,    1.4,   -0.8,    3.4,  999.0,    0.8,   -2.4,    1.6,  999.0,  999.0,    1.9,  999.0,    1.9,  999.0,  999.0,  999.0,   -2.7,  999.0,  999.0,    6.4,    9.6,   10.9,   14.0,   15.6,   14.8,   12.3,  999.0,  999.0,  999.0,  999.0,  999.0,  999.0,  999.0,  999.0,  999.0,  999.0,  999.0,  999.0,  999.0,  999.0,   11.8,   10.5,   14.5,   15.8,  999.0,  999.0,   12.9,   15.4,   14.9,   12.8,  999.0,  999.0,   13.1,    7.7,  999.0,   12.7,   12.6,   13.3,   14.3,   14.9,   17.0,   17.1,   17.0,   14.8,   10.0,   13.3,   12.7,    8.4,    8.4,    4.5,    3.8,    3.0,    1.5,    3.5,    4.2,    2.4,   -1.4,   -0.3,    2.0,    0.7,   -3.4,   -5.7,   -6.1,   -5.5,   -3.0,   -1.1,   -0.1,   -1.3,   -1.9,   -5.7,   -4.7,   -5.8,   -4.9,   -4.6,   -4.6,   -1.7,  999.0,  999.0,   -3.6,   -2.8,   -2.9,  999.0,  999.0,  999.0,  999.0,  999.0,  999.0,  999.0
2011/07/05 02:25,    5.0,    5.1,    5.2,    6.0,    6.3,    4.8,    3.3,    3.3,    4.3,    4.3,    2.6,    2.0,    2.6,    0.3,    0.2,    4.5,   -1.2,    1.7,  999.0,   -2.8,    6.3,    4.2,   -1.4,  999.0,  999.0,  999.0,  999.0,  999.0,    0.1,    0.8,    1.4,  999.0,    8.3,   10.3,   12.3,   14.4,   14.3,   12.9,   10.6,   10.9,  999.0,  999.0,  999.0,  999.0,  999.0,  999.0,  999.0,  999.0,  999.0,  999.0,  999.0,  999.0,  999.0,  999.0,   12.7,   13.6,   15.8,   16.6,   14.6,   15.3,   16.3,  999.0,    6.6,   11.0,   12.7,   12.4,  999.0,  999.0,  999.0,  999.0,  999.0,   13.8,   14.6,   15.4,  999.0,   15.4,   13.6,   14.6,    8.9,    6.9,  999.0,    1.8,    5.4,  999.0,    2.7,    3.0,    3.0,   -1.1,    1.6,    1.0,    2.6,    2.6,   -1.5,   -4.4,   -5.9,   -5.9,   -5.2,   -2.4,   -1.7,   -0.2,   -2.0,   -4.7,   -6.2,   -4.8,   -4.4,   -4.5,   -4.6,   -1.8,  999.0,  999.0,   -4.5,   -2.7,   -2.1,   -0.7,   -2.0,   -4.1,  999.0,  999.0,  999.0,  999.0
2011/07/05 02:35,    6.0,    6.3,    5.6,    4.3,    4.1,    3.6,    2.1,    1.1,    1.1,    0.2,   -1.2,   -2.5,   -3.7,   -1.9,    0.8,  999.0,  999.0,  999.0,  999.0,    0.6,  999.0,  999.0,  999.0,  999.0,  999.0,   -1.1,  999.0,  999.0,  999.0,    0.8,  999.0,    6.6,    9.6,   11.4,   13.6,   14.8,   14.3,  999.0,    9.9,   10.7,  999.0,  999.0,  999.0,  999.0,  999.0,  999.0,  999.0,  999.0,  999.0,  999.0,   10.5,  999.0,  999.0,  999.0,  999.0,  999.0,  999.0,   18.2,  999.0,   16.9,   14.8,   13.9,   10.0,   12.0,   14.2,  999.0,  999.0,  999.0,  999.0,  999.0,   14.5,   14.3,   15.6,   17.0,  999.0,  999.0,   15.3,   12.2,   10.5,    7.8,    6.5,    3.9,    2.9,  999.0,    1.7,    1.2,   -2.7,   -1.8,   -0.2,    1.8,    4.0,    4.6,   -1.0,   -3.3,   -5.6,   -6.6,   -7.0,   -6.8,   -4.6,   -1.3,   -1.7,   -5.2,   -5.1,   -6.3,   -5.6,   -4.8,   -5.2,   -4.3,  999.0,  999.0,   -5.1,   -3.2,   -3.1,   -1.6,  999.0,   -3.5,  999.0,  999.0,  999.0,  999.0
2011/07/05 02:45,    3.7,    3.8,    4.4,    4.0,    5.5,    5.7,    4.9,    5.6,    3.7,    1.9,    2.0,    2.6,    1.4,    1.2,  999.0,  999.0,  999.0,  999.0,  999.0,   -1.8,   -1.6,   -3.3,   -1.7,  999.0,  999.0,  999.0,  999.0,  999.0,   -0.8,    0.2,  999.0,    6.9,    7.9,    9.6,   12.2,   13.4,   14.1,   13.3,   11.4,   10.0,   11.2,  999.0,  999.0,  999.0,  999.0,   14.8,  999.0,  999.0,   10.5,    9.7,  999.0,  999.0,  999.0,  999.0,  999.0,  999.0,  999.0,  999.0,  999.0,  999.0,  999.0,  999.0,   13.4,   10.5,   13.2,   14.7,  999.0,  999.0,  999.0,  999.0,   18.9,   18.5,   18.6,  999.0,  999.0,  999.0,  999.0,   16.4,   13.5,   11.5,    7.4,    6.4,    4.3,   -0.7,  999.0,    0.3,   -2.4,   -1.4,    0.2,    2.2,    3.7,    2.0,   -1.2,   -4.9,   -6.5,   -8.2,   -9.7,   -9.3,   -6.6,   -2.4,   -2.1,   -3.5,   -4.0,   -5.4,   -3.9,   -3.0,   -4.5,   -3.9,  999.0,  999.0,   -3.9,   -2.5,   -2.8,  999.0,  999.0,  999.0,  999.0,  999.0,  999.0,  999.0
2011/07/05 02:55,    4.1,    4.8,    5.3,    5.6,    6.5,    8.1,    7.3,    6.5,    5.8,    3.8,    2.5,    1.5,    1.1,    2.3,  999.0,  999.0,  999.0,  999.0,  999.0,   -1.1,   -1.2,   -2.2,   -4.1,  999.0,  999.0,  999.0,   -9.4,  999.0,    0.2,    0.6,  999.0,  999.0,    5.6,    7.0,    9.2,   10.6,   11.0,   11.0,   10.4,   11.5,   13.8,   15.4,  999.0,  999.0,   15.3,   16.2,   13.4,   11.9,   11.4,   11.1,   10.9,   12.6,   13.0,   12.6,   16.0,   16.6,  999.0,  999.0,  999.0,   13.8,   15.8,   15.8,   14.9,   11.9,   12.0,   14.4,   16.5,   17.8,   18.8,   18.3,   20.1,   20.0,   19.2,   18.8,   18.6,   19.5,   18.0,   16.8,   12.7,   10.0,    6.8,    4.1,    0.9,   -0.2,   -2.9,   -3.8,   -3.1,   -0.1,    2.0,    3.7,    4.3,    2.0,   -1.2,   -3.5,   -5.4,   -5.8,   -6.8,   -7.2,   -4.8,  999.0,   -1.6,  999.0,   -3.3,   -4.6,   -3.7,   -4.2,   -5.2,  999.0,  999.0,  999.0,   -3.6,   -3.8,   -2.9,  999.0,  999.0,  999.0,  999.0,  999.0,  999.0,  999.0
2011/07/05 03:05,    4.8,    5.2,    6.3,    7.5,    7.7,    8.1,    8.1,    7.3,    5.7,    4.2,    3.0,    3.1,    1.6,    2.4,  999.0,  999.0,  999.0,  999.0,    1.8,   -0.9,   -0.9,   -2.8,  999.0,  999.0,  999.0,  999.0,  999.0,  999.0,   -0.3,    0.0,  999.0,  999.0,  999.0,  999.0,    6.5,    8.2,    8.7,  999.0,  999.0,  999.0,  999.0,  999.0,  999.0,  999.0,   14.9,   13.9,   13.4,   10.6,    9.3,    9.4,  999.0,  999.0,   10.6,   13.0,   15.5,   16.4,   16.6,  999.0,  999.0,   15.0,  999.0,   17.5,   16.1,   14.3,   10.7,   11.2,   12.5,   14.2,   17.2,   18.5,   20.1,   21.3,   21.0,   20.7,   21.4,   21.1,   18.8,   16.9,   13.2,   10.7,    7.4,    5.1,    3.1,    0.0,   -1.0,   -2.7,   -2.5,   -0.8,    2.0,    4.6,    3.8,    3.2,   -0.5,   -2.6,  999.0,   -3.5,   -3.7,   -3.6,   -2.7,   -1.6,   -1.3,   -2.1,   -2.7,   -4.1,   -3.2,   -5.7,   -5.2,   -4.7,  999.0,  999.0,   -4.7,   -3.6,   -4.7,  999.0,  999.0,  999.0,  999.0,  999.0,  999.0,  999.0
2011/07/05 03:15,    4.3,    5.5,    6.6,    7.6,    8.5,    9.4,   10.5,    9.6,    8.4,    6.4,    4.6,    3.4,    2.5,    1.3,  999.0,  999.0,   19.0,  999.0,  999.0,   -0.1,    1.1,    0.1,   -3.3,  999.0,  999.0,  999.0,  999.0,  999.0,    0.1,    0.3,    0.3,    2.4,    3.8,    5.0,    7.2,    8.7,    9.9,    9.8,    9.4,   10.9,  999.0,  999.0,   15.9,   15.4,   15.2,   12.6,   11.7,   10.0,    9.1,    9.4,    7.8,   10.3,   12.0,   14.9,   18.0,   20.5,  999.0,   15.8,   14.6,   14.3,   14.4,   15.5,   13.1,   13.2,   10.2,   10.6,   12.2,   15.7,   17.4,   19.2,   20.6,   21.5,   22.4,   20.6,   20.9,   19.1,   18.2,   17.0,   14.1,   10.9,    7.0,    5.0,    4.4,   -3.3,    0.3,   -2.3,   -3.3,   -3.0,   -0.7,    1.8,    3.8,    3.7,   -1.3,   -3.5,   -3.2,   -5.4,   -6.1,   -6.1,   -4.5,   -2.6,   -0.1,   -2.3,   -3.2,   -4.4,   -3.4,   -4.1,   -4.5,   -2.8,  999.0,  999.0,   -4.6,   -3.7,   -2.5,  999.0,  999.0,  999.0,  999.0,  999.0,  999.0,  999.0
2011/07/05 03:25,    5.1,    6.4,    7.4,    8.0,    8.9,    9.7,   10.0,    9.0,    8.6,    6.7,    5.3,    4.6,    3.6,    3.0,   12.1,   11.0,   12.1,   13.6,   15.8,    1.6,    1.9,    1.0,    1.8,    4.9,    4.0,  999.0,  999.0,  999.0,    0.5,    1.7,    2.0,    1.9,    4.3,    4.9,    8.3,    9.4,   10.5,   10.6,    9.8,   10.2,  999.0,  999.0,   14.1,   16.1,   14.1,   12.6,   10.4,    9.0,    9.4,  999.0,    8.9,    9.7,   12.0,   14.3,  999.0,   16.9,   18.3,   16.7,   15.1,   14.9,   16.6,   16.3,   16.0,   14.6,   13.1,   12.4,   14.2,   16.5,   18.9,   21.7,   23.0,   23.8,   22.7,   21.9,   20.9,   18.9,   16.1,   15.2,   12.1,    9.8,    6.5,    4.4,    2.6,    1.2,    1.5,   -1.4,   -2.7,   -2.5,   -1.5,    6.0,    3.0,    2.3,   -1.3,   -3.0,   -2.5,   -4.0,   -6.0,   -6.9,   -4.5,   -3.4,  999.0,  999.0,   -3.6,   -3.1,   -3.8,   -4.1,   -5.6,   -4.5,   -4.6,  999.0,   -5.2,   -4.2,   -3.7,  999.0,  999.0,   -5.1,  999.0,  999.0,  999.0,  999.0
2011/07/05 03:35,    6.0,    6.9,    8.0,    8.0,    6.8,    7.1,    8.9,   10.2,    7.1,    5.5,    4.4,    3.7,    3.4,    3.5,    5.9,  999.0,   15.3,   16.7,   17.1,    0.7,    0.7,    0.3,  999.0,  999.0,  999.0,  999.0,  999.0,  999.0,  999.0,    0.3,    1.1,    1.5,    2.1,    4.6,    6.9,    8.5,    9.8,   10.3,    9.3,    9.8,    9.5,   11.8,   13.1,   12.6,   10.0,    8.8,    8.3,    6.3,    7.1,    6.6,    7.9,    9.5,   12.0,   14.0,   16.6,   17.7,   18.5,  999.0,   16.2,   15.5,   15.1,   16.8,   16.5,   15.8,   14.1,   13.2,   14.0,   15.0,   17.3,   19.1,   20.9,   23.2,   22.7,   22.0,   19.9,   18.6,   14.4,   13.3,    9.6,    7.0,    2.9,    1.4,  999.0,   -1.3,   -2.2,   -4.2,   -5.1,   -4.1,   -0.9,  999.0,    1.9,    0.6,   -2.7,   -4.6,   -3.9,   -4.5,   -6.3,   -7.0,   -7.4,   -5.6,   -3.9,   -3.2,   -2.3,   -2.2,   -1.8,   -3.5,   -3.8,   -3.6,  999.0,   -3.3,   -3.9,   -3.1,   -2.6,   -4.2,  999.0,  999.0,   -4.5,  999.0,  999.0,  999.0
2011/07/05 03:45,    6.6,    6.5,    6.6,    7.4,    7.8,    8.3,    9.2,    8.9,    7.3,    5.6,    4.9,    3.5,    4.9,  999.0,  999.0,  999.0,  999.0,    3.7,    1.6,    1.5,    1.7,    2.4,    2.8,  999.0,  999.0,  999.0,  999.0,  999.0,  999.0,    0.8,    1.7,    2.0,    2.5,    4.3,    6.1,    7.3,   10.0,   10.2,    9.1,    8.8,    8.7,    9.9,   11.3,   11.0,    9.0,    7.0,    5.7,    3.4,    5.4,    5.5,    6.7,    8.9,   10.0,   12.3,   15.3,   17.5,   17.1,   16.3,   14.8,   15.2,   16.3,   17.4,   18.1,   17.4,   14.8,   14.2,   14.5,   13.7,   14.7,   16.6,   17.4,   18.0,   19.6,   19.8,   19.4,   19.0,   15.6,   13.6,   10.2,    6.1,    3.6,   -0.5,  999.0,   -1.1,  999.0,   -5.2,   -4.7,   -4.2,    1.3,    1.7,    1.1,   -0.7,   -3.5,   -4.8,   -5.1,   -4.6,   -5.5,   -6.9,   -6.9,   -5.9,   -3.6,  999.0,   -1.2,   -1.1,   -1.5,   -2.8,   -3.6,   -3.9,  999.0,   -4.6,   -3.1,   -3.4,   -3.3,  999.0,  999.0,   -4.0,   -4.5,  999.0,  999.0,  999.0
2011/07/05 03:55,    8.0,    7.4,    7.6,    7.6,    8.0,    8.1,    8.2,    6.3,    5.2,    4.8,    4.5,    4.5,  999.0,  999.0,  999.0,  999.0,  999.0,    1.2,    1.3,    2.3,    2.0,    1.3,    1.8,  999.0,  999.0,  999.0,  999.0,  999.0,   -2.8,    0.0,    0.6,    1.7,    2.1,    2.7,    5.1,    7.3,    9.6,    7.8,    7.9,    8.2,    8.4,   10.0,   11.0,    9.0,    7.4,    6.4,    4.2,    1.4,    2.1,    5.1,    5.3,    6.3,    7.4,    9.4,   11.3,   13.6,   15.4,  999.0,  999.0,  999.0,   16.9,   16.9,   19.2,   18.2,   16.0,   15.7,   15.4,   13.3,   13.4,   15.0,   17.6,   16.5,   18.2,   19.5,   20.3,   18.3,   14.2,   11.4,    9.7,    6.6,    2.6,    2.4,    1.0,   -2.7,   -3.6,   -5.4,   -5.0,   -4.1,   -0.9,    0.6,   -1.0,   -4.4,   -3.8,   -3.4,   -5.1,   -4.3,   -4.7,   -6.4,   -7.4,   -5.7,   -3.2,  999.0,   -2.1,   -1.4,   -1.3,   -2.9,   -4.4,   -4.8,  999.0,   -3.9,   -3.6,   -3.8,   -3.4,   -2.8,   -1.6,   -3.6,   -4.2,  999.0,  999.0,  999.0
2011/07/05 04:05,    6.7,    6.7,    6.4,    6.7,    6.5,    4.9,    5.2,    5.5,    4.9,    4.5,    5.0,  999.0,  999.0,  999.0,  999.0,  999.0,    1.4,    1.6,    1.6,    2.2,    1.8,    1.6,    1.8,    0.9,    1.7,    0.6,  999.0,  999.0,   -0.1,    0.2,    0.5,    1.2,    1.5,    2.2,    4.7,    7.3,   10.8,    9.3,    9.6,    9.8,   10.0,   10.1,   10.8,    9.2,    7.7,    5.8,    3.6,    1.4,    1.0,    3.8,    4.6,    4.7,    5.0,    7.2,    9.4,   10.6,   12.9,   14.2,   16.0,   13.7,   16.1,   17.7,   17.4,   18.4,   15.8,   14.8,   14.7,   12.9,   13.1,   15.1,   18.5,   17.9,   18.0,   18.8,   19.3,   16.9,   12.3,   10.3,    8.8,    5.9,    2.8,    0.6,    0.1,   -0.5,   -3.7,   -5.3,   -6.2,   -6.0,   -4.2,   -2.5,   -4.3,   -4.3,   -5.5,   -5.2,   -5.6,   -5.8,   -3.9,   -4.8,   -6.0,   -5.6,   -3.5,   -2.6,   -3.2,    0.4,   -0.7,   -2.2,   -3.6,   -3.0,   -1.6,   -4.8,   -3.9,   -4.4,   -2.9,   -3.0,   -1.0,   -2.9,   -3.6,  999.0,  999.0,  999.0
2011/07/05 04:15,    7.2,    8.1,    7.6,    7.6,    7.9,    7.9,    6.0,    5.5,    4.7,    4.7,    4.2,  999.0,  999.0,  999.0,  999.0,  999.0,    1.4,    1.9,    1.9,    2.7,    2.0,    1.7,    1.6,    1.9,    1.3,  999.0,  999.0,  999.0,    0.7,    0.6,    0.9,    1.4,    2.0,    2.8,    5.5,    8.6,   13.0,   10.2,   10.7,    9.8,   10.1,    9.3,    8.2,    7.7,    6.8,    5.0,    3.5,    1.2,    1.0,    2.7,    3.8,    4.1,    4.8,    6.1,    8.4,   10.9,   12.1,   14.3,   12.8,  999.0,   18.5,   15.7,   17.5,   16.4,   15.9,   14.9,   13.4,   12.0,   13.3,   14.6,   16.9,   17.7,   17.9,   18.6,   18.8,   15.9,   12.6,   10.1,    8.7,    7.4,    3.6,    1.8,    1.0,    0.3,   -2.5,   -4.2,   -6.8,   -8.7,   -9.2,   -6.7,   -4.0,   -3.3,   -1.7,   -3.0,   -3.8,   -3.5,   -2.8,   -4.1,   -5.0,   -4.6,   -3.2,   -2.1,  999.0,   -0.9,   -1.2,   -3.1,   -4.3,  999.0,  999.0,   -3.1,   -3.7,   -3.8,   -2.8,   -2.4,   -4.0,   -3.8,   -3.9,   -2.1,  999.0,  999.0
2011/07/05 04:25,    4.5,    6.2,    7.3,    8.5,    8.1,    8.1,    7.3,    7.2,    5.8,    4.6,    5.3,  999.0,  999.0,  999.0,  999.0,  999.0,    1.7,    1.9,    1.9,    2.7,    2.1,    1.7,  999.0,  999.0,    1.5,  999.0,  999.0,    0.6,    0.1,    0.2,    0.1,    0.1,    1.0,    3.6,    5.7,   10.2,   11.9,    9.6,   10.1,    8.2,    7.1,    7.2,    6.3,    5.3,    4.2,    1.8,   -0.3,   -1.5,   -0.8,    0.5,    0.6,    1.1,    2.4,    4.1,    7.0,    9.5,   11.2,   12.7,   17.9,   18.8,  999.0,   18.6,   17.6,   15.2,   14.5,   14.2,   12.5,   13.7,   14.0,   15.2,   17.1,   17.7,   18.9,   18.0,   17.3,   14.4,   12.1,    9.8,    7.1,    3.9,    1.8,    0.5,    0.2,   -1.6,   -4.5,   -5.7,   -8.6,  -11.9,  -10.0,   -7.5,   -6.2,   -5.0,   -2.3,   -1.4,   -0.5,   -3.4,   -1.9,   -3.2,   -4.5,   -4.0,   -2.8,   -1.7,  999.0,    2.3,   -0.7,   -2.8,   -3.7,  999.0,  999.0,   -4.1,   -5.4,   -4.6,   -4.9,   -3.2,   -4.0,   -2.9,   -3.8,  999.0,  999.0,  999.0
2011/07/05 04:35,    6.0,    7.7,    8.5,    7.7,    8.1,    8.5,    9.0,    8.0,    6.6,    4.9,  999.0,  999.0,  999.0,  999.0,  999.0,    4.7,    1.8,    1.6,    1.6,    2.9,    2.7,    3.0,  999.0,  999.0,    1.4,    1.9,   -0.6,   -0.7,   -0.7,   -0.6,   -1.0,   -0.7,    1.7,    3.6,    5.4,   11.2,    9.9,   10.1,    9.8,    8.6,    6.8,    6.6,    5.4,    4.2,    1.8,    0.4,   -1.9,   -2.2,   -2.1,   -0.6,   -0.3,   -0.2,    1.0,    3.4,    5.9,    9.7,   12.0,   12.6,   10.1,  999.0,  999.0,  999.0,  999.0,   14.0,   12.9,   13.3,   11.5,   11.5,   13.7,   12.4,   14.4,   17.0,   18.2,   18.7,   17.5,   14.4,   12.1,   11.2,    7.2,    5.7,    3.5,    1.2,    0.5,    0.5,   -2.2,   -6.7,  -11.3,  -11.7,  -11.1,   -8.6,   -6.8,   -5.1,   -3.0,   -1.4,   -1.4,   -3.1,   -2.0,   -3.1,   -5.1,   -4.2,   -3.4,   -2.4,   -1.1,   -0.9,   -1.6,   -3.0,   -4.8,   -5.7,   -4.7,   -3.1,   -4.7,   -5.7,   -2.1,   -2.5,  999.0,   -2.8,   -4.6,  999.0,  999.0,  999.0
2011/07/05 04:45,    6.5,    7.9,    9.5,   10.1,    9.3,    9.7,    9.6,    9.0,    7.0,    6.3,  999.0,  999.0,  999.0,  999.0,  999.0,  999.0,    2.2,    2.2,    2.2,    2.6,    2.4,    2.4,  999.0,  999.0,    2.2,    0.0,   -0.6,   -0.6,   -0.7,   -0.7,   -1.0,   -0.0,    2.5,    3.7,    5.1,    9.6,    8.3,    9.8,    8.9,    7.6,    6.6,    5.4,    4.0,    1.8,    0.0,   -2.5,   -3.5,   -2.1,   -1.8,   -1.7,   -1.1,   -1.4,    0.6,    2.7,    4.5,    6.9,    9.7,   11.3,   12.7,   13.0,  999.0,  999.0,   13.6,   11.7,   11.6,   12.5,   11.3,   11.4,   12.2,   13.1,   14.7,   17.4,   19.2,   18.5,   17.3,   16.6,   14.2,   11.2,    9.5,    7.4,    3.6,    2.5,    3.0,    2.9,    0.9,   -1.3,   -6.1,   -9.2,  -10.7,   -9.9,   -6.8,   -4.5,   -2.7,   -2.0,  999.0,    1.1,   -1.2,   -3.5,   -4.4,   -4.6,   -3.2,   -2.4,   -1.1,   -1.5,   -2.5,   -4.3,   -4.0,   -5.2,  999.0,   -4.6,   -5.5,   -4.7,   -3.4,   -3.5,  999.0,   -4.1,   -4.2,  999.0,  999.0,  999.0
2011/07/05 04:55,    7.0,    7.0,    8.2,    9.4,   10.3,   11.3,   10.5,    9.8,    7.6,    7.3,    6.3,  999.0,  999.0,  999.0,  999.0,    2.5,    2.5,    2.0,    2.4,    2.1,    2.7,    1.7,  999.0,    0.1,   -0.8,   -1.2,   -1.8,   -1.9,   -2.2,   -2.0,   -1.8,    0.5,    1.9,    2.6,    7.1,    7.1,    8.1,    9.3,    6.9,    6.3,    4.7,    3.3,    1.3,   -1.0,   -3.9,   -5.6,   -4.4,   -3.4,   -2.3,   -5.2,   -2.9,   -3.1,   -1.4,    0.3,    4.1,    7.2,   10.2,   11.9,   13.0,  999.0,  999.0,  999.0,  999.0,    9.9,    9.7,   11.1,   11.9,    9.5,   10.2,   11.6,   14.3,   16.8,   19.0,   20.0,   17.5,   16.6,   13.9,   11.6,   10.7,    7.6,    3.8,    2.7,    2.4,    1.8,    1.1,   -0.7,   -4.6,  -10.6,  -12.2,  -10.1,   -8.4,   -5.9,   -2.9,   -3.3,   -3.3,   -0.4,   -2.8,   -3.4,   -5.3,   -5.1,   -3.2,   -1.6,   -0.6,   -1.3,   -1.5,   -4.0,   -5.5,  999.0,  999.0,   -7.4,   -5.8,   -5.4,   -4.9,   -4.8,   -7.5,  999.0,   -7.1,   -4.8,  999.0,  999.0
2011/07/05 05:05,    8.2,    9.0,    9.7,    8.9,   12.1,   11.8,   11.5,    9.5,    8.0,    6.8,    6.3,    6.1,  999.0,  999.0,    5.5,   13.0,    6.1,    3.2,    2.8,    2.9,    2.6,    1.5,  999.0,  999.0,   -0.9,   -0.4,   -0.6,   -1.1,   -1.2,   -1.1,   -0.5,    1.9,    2.3,    3.3,    6.6,    7.0,    9.1,    9.1,    6.9,    5.6,    3.7,    2.4,    0.2,   -1.9,   -4.2,   -4.4,   -3.5,   -2.4,   -1.2,   -0.7,   -3.3,   -2.9,   -0.1,    1.0,    5.7,    8.7,   11.1,   11.6,  999.0,  999.0,  999.0,  999.0,  999.0,   12.0,   10.2,   11.3,   13.0,   11.1,   10.3,   11.5,   14.2,   16.0,   17.5,   18.3,   19.1,   15.8,   14.4,   13.4,   11.1,    7.6,    5.1,    3.9,    4.2,    3.4,    2.5,    0.5,   -2.5,   -8.1,  -10.1,   -9.1,   -6.9,   -4.9,  999.0,  999.0,  999.0,  999.0,   -0.3,   -1.9,   -4.0,   -4.7,   -2.8,   -1.7,    0.6,  999.0,   -2.2,   -3.9,   -4.8,  999.0,  999.0,   -3.9,   -6.2,   -6.2,   -6.3,   -4.7,   -5.2,  999.0,  999.0,  999.0,  999.0,   -8.9
2011/07/05 05:15,    7.9,    8.8,    9.1,   10.8,   11.9,   11.1,   11.4,   10.0,    8.4,    7.0,    6.2,    6.8,    5.2,  999.0,  999.0,    3.0,  999.0,    7.5,    3.4,    2.9,    3.5,    3.4,  999.0,  999.0,   -0.4,   -0.8,   -0.6,   -1.4,   -1.1,   -1.0,    0.4,    1.3,    2.1,    5.7,    6.6,    8.7,    9.9,    8.2,    6.7,    3.7,    2.1,   -0.7,   -3.5,   -5.3,   -5.8,   -4.2,   -3.9,   -2.0,   -1.4,   -2.5,   -3.9,   -2.6,   -1.0,    1.6,    6.8,   10.0,   11.5,  999.0,  999.0,  999.0,  999.0,  999.0,  999.0,  999.0,   11.2,   12.8,   15.9,   14.7,   14.3,   13.6,   15.6,   16.3,   16.9,   17.0,   15.8,   12.7,   12.1,   11.3,    8.8,    7.8,    4.4,    4.4,    4.4,    2.8,    2.5,   -0.1,   -2.6,   -6.0,  -10.8,  -12.3,   -9.1,   -6.7,   -4.5,  999.0,  999.0,  999.0,    1.6,   -1.5,   -4.8,   -6.1,   -3.9,   -1.2,   -0.7,   -1.2,  999.0,   -4.6,   -7.2,  999.0,  999.0,  999.0,   -4.5,   -5.3,  999.0,   -2.6,   -5.0,  999.0,   -4.4,  999.0,  999.0,   -6.8
2011/07/05 05:25,    4.6,    4.6,    7.0,    8.2,   11.3,   10.7,   10.9,   10.3,    7.8,    6.3,    5.6,    6.8,   11.4,  999.0,  999.0,    3.6,    4.6,  999.0,    3.4,    2.7,    2.2,    2.0,    2.3,    1.1,    0.1,   -0.8,   -1.3,   -1.2,   -1.8,   -0.8,    0.6,    1.8,    2.9,    5.8,    7.2,    9.9,    9.4,    7.5,    4.8,    2.8,    1.8,   -0.4,   -3.1,   -4.8,   -6.3,   -4.2,   -2.7,    0.2,    0.7,   -0.0,   -2.1,   -2.6,    0.5,    2.1,    4.9,    7.3,    9.3,    9.5,  999.0,  999.0,  999.0,  999.0,  999.0,  999.0,   10.1,   11.3,   13.6,   14.0,   12.8,   12.4,   13.8,   13.4,   14.6,   14.2,   11.7,   12.2,   10.8,   10.4,  999.0,    6.7,    4.9,    6.2,    6.4,  999.0,    2.7,    0.3,   -2.5,   -5.6,  -11.8,  -13.8,  -11.0,   -7.9,  999.0,  999.0,  999.0,  999.0,    1.8,   -1.9,   -5.3,   -6.3,   -5.4,   -3.1,   -1.2,   -2.8,   -3.6,   -5.8,   -6.6,  999.0,   -3.2,  999.0,   -4.4,   -3.1,   -6.4,   -2.0,  999.0,  999.0,  999.0,  999.0,  999.0,  999.0
2011/07/05 05:35,    5.9,    6.6,    8.0,    8.9,    9.3,   10.1,    9.5,    9.1,    9.5,    9.3,    8.9,    9.9,  999.0,   10.2,    5.1,    3.9,    4.3,    4.0,    2.5,    2.7,    2.5,    1.0,  999.0,    1.9,    1.3,    0.6,    0.1,   -0.7,   -0.4,    1.0,    1.6,    1.6,    6.1,    6.9,    9.2,   10.6,    8.9,    7.5,    5.6,    3.6,    1.9,   -0.4,   -3.3,   -4.8,   -5.0,   -3.7,   -2.4,   -0.9,    0.3,    0.3,   -1.1,   -2.0,   -1.9,   -0.5,    1.2,    4.2,    6.8,    8.4,    7.5,  999.0,    5.6,  999.0,  999.0,  999.0,    6.7,    8.0,    9.2,    9.9,    9.4,   10.5,   11.0,   11.3,   11.7,   11.3,   12.0,   11.2,    9.0,    8.2,    6.0,    6.8,    7.3,    7.7,    7.2,    7.9,    6.4,    5.0,    4.1,    1.7,   -4.0,   -5.6,   -7.3,   -6.1,  999.0,  999.0,  999.0,  999.0,   -0.2,   -0.3,   -4.6,   -5.3,   -5.0,   -2.7,   -1.1,   -1.9,   -4.0,   -5.5,   -6.0,  999.0,   -2.2,   -4.0,  999.0,  999.0,  999.0,   -3.6,   -3.8,  999.0,  999.0,  999.0,  999.0,  999.0
2011/07/05 05:45,    5.8,    7.2,    8.4,   10.3,   11.6,   12.2,   11.6,   11.5,    9.2,    9.9,    9.3,    7.7,   10.9,   10.9,    7.5,    4.3,    4.6,    3.2,    2.5,    2.2,    2.7,    2.3,    2.1,    1.8,    1.3,    0.8,    0.2,   -0.7,    0.0,    0.2,    1.7,    2.3,    6.4,    8.2,   10.6,   10.8,    7.9,    6.9,    5.4,    3.8,    1.1,   -0.9,   -2.1,   -4.2,   -5.1,   -4.7,   -3.3,   -1.3,    0.4,   -0.3,   -1.4,   -0.2,   -3.2,   -2.5,   -1.2,    1.2,    3.4,    6.1,    8.5,  999.0,    4.3,  999.0,  999.0,  999.0,    6.8,    7.2,   10.1,   11.5,   12.0,   12.8,   11.4,   11.2,   11.1,   11.2,   10.0,   10.5,    9.2,    7.3,    5.3,    7.1,  999.0,  999.0,    7.7,    4.7,    5.5,    4.7,    3.2,    0.4,   -6.5,   -8.5,   -9.2,   -7.2,   -4.9,   -2.5,  999.0,  999.0,    1.3,   -2.7,   -4.8,   -5.1,   -4.2,   -2.6,   -0.7,   -2.1,   -5.2,   -6.0,   -5.4,   -5.0,  999.0,   -3.0,   -5.6,   -6.2,   -6.4,  999.0,   -3.6,   -4.6,  999.0,  999.0,   -7.2,   -7.8
2011/07/05 05:55,    5.3,    6.4,    8.1,    8.6,    9.2,    9.3,    9.9,    8.3,    8.3,    9.9,    9.0,  999.0,  999.0,   11.4,    5.6,    5.7,    6.5,    4.0,    3.8,    3.4,    3.8,    2.7,  999.0,  999.0,    1.4,    1.8,    0.6,    0.3,    0.1,    1.2,    1.7,    3.8,    6.5,    8.1,   10.2,   10.4,    7.8,    5.8,    4.6,    3.2,    1.2,   -0.5,   -3.4,   -4.3,   -5.5,   -5.4,   -2.3,   -2.1,   -0.4,  999.0,  999.0,   -3.5,  999.0,  999.0,   -3.8,   -1.3,    1.2,    3.6,    5.7,    6.7,  999.0,  999.0,  999.0,  999.0,    6.2,    9.1,   11.7,   12.3,   13.2,   12.3,   11.2,   12.5,   10.9,   11.0,    9.1,    9.3,    5.9,    5.3,    5.4,    6.1,    6.3,  999.0,    8.1,  999.0,    5.2,    5.7,    4.7,    2.8,   -0.9,   -5.9,   -8.5,   -7.6,   -5.5,   -2.1,  999.0,    3.3,    0.6,   -2.4,   -5.0,   -5.5,   -4.0,   -3.5,   -1.7,   -3.0,   -3.4,   -5.7,   -6.4,   -5.1,   -3.7,   -4.7,   -5.6,   -6.2,   -5.6,  999.0,   -3.9,   -4.3,  999.0,  999.0,  999.0,  999.0
2011/07/05 06:05,    6.5,    7.4,    8.2,    8.6,    9.2,    9.8,   10.8,   11.3,   10.8,   11.1,    9.3,  999.0,  999.0,    5.4,    6.3,    6.4,    4.3,    4.3,    4.1,    3.8,    3.8,  999.0,    2.2,    1.7,    2.3,    2.0,    1.9,    1.4,    2.1,    2.9,    2.5,    6.0,    6.7,    8.1,   10.8,   12.3,   10.2,    8.1,    6.6,    5.2,    2.7,    1.2,   -1.9,   -3.8,   -5.8,   -5.2,   -3.6,   -2.8,   -1.4,   -0.7,   -1.6,  999.0,  999.0,   -6.3,   -5.1,   -4.6,   -1.5,    0.4,    0.9,  999.0,  999.0,  999.0,  999.0,    5.0,    6.8,    9.5,   12.0,   13.7,   13.3,   12.9,   12.4,   13.1,   13.4,   10.8,    8.6,    8.4,    6.9,    6.7,    6.8,    8.0,  999.0,  999.0,    8.2,    9.0,    5.4,    6.1,    4.6,    2.5,   -3.9,   -7.8,   -9.3,   -7.4,   -4.5,   -0.9,    3.2,  999.0,   -0.4,   -3.4,   -4.9,   -4.7,   -2.9,   -1.2,   -1.1,   -2.6,   -3.9,   -5.5,   -6.5,   -4.7,   -3.1,   -3.9,   -5.5,   -5.4,   -5.5,   -5.0,  999.0,   -5.8,   -5.0,  999.0,  999.0,  999.0
2011/07/05 06:15,    6.6,    7.3,    7.4,    7.6,    8.5,   10.2,   10.4,   10.9,   11.2,   10.9,    9.9,    7.6,    6.1,    6.8,    6.4,    5.7,    4.1,    4.2,    3.8,    3.9,    1.6,    1.4,    0.7,    2.3,    2.7,    2.3,    1.6,    1.2,    1.8,    2.4,    2.9,    5.4,    6.8,    7.5,    9.4,   10.3,    8.7,    6.7,    5.1,    3.6,    1.6,   -0.4,   -2.3,   -4.3,   -5.9,   -4.4,   -3.0,   -3.1,   -1.9,   -2.0,   -1.7,   -4.8,   -6.0,   -6.0,   -7.0,   -5.7,   -3.5,   -2.0,   -1.4,  999.0,   -0.3,    0.1,    5.1,    4.1,    6.5,    8.6,   11.3,   12.6,   11.6,   11.0,   10.8,   10.0,    9.0,    7.3,    5.0,    6.1,    6.6,    4.7,    4.8,    6.0,    8.6,  999.0,  999.0,    9.9,    8.5,    6.2,    4.5,    1.3,   -2.5,   -6.8,   -8.2,   -6.2,   -3.0,    0.8,  999.0,  999.0,    1.2,   -3.4,   -6.6,   -6.2,   -5.4,   -1.1,    0.0,   -2.0,   -2.6,   -5.4,   -6.7,   -5.7,   -4.5,   -6.1,   -6.3,   -6.2,   -6.5,   -2.1,  999.0,  999.0,  999.0,  999.0,  999.0,   -8.3
2011/07/05 06:25,    5.5,    7.6,    8.4,    8.2,    9.1,    8.6,   11.6,  999.0,    8.4,    8.4,    8.8,    5.7,    5.4,    5.7,    6.0,    4.1,    4.1,    3.5,    2.5,    2.3,    1.0,    0.6,    1.2,    2.0,    2.5,    2.5,    2.2,    2.3,    2.8,    3.3,    2.9,    4.7,    7.0,    7.5,    8.7,    9.0,    8.0,    5.7,    4.1,    2.8,    0.7,   -0.9,   -2.5,   -4.5,   -5.3,   -4.7,   -2.5,   -1.0,   -1.3,   -2.2,   -4.2,   -4.3,   -5.0,   -6.3,   -6.7,   -6.9,   -5.3,   -3.5,   -3.6,   -4.3,   -2.2,   -1.0,    1.2,    3.3,    6.0,    8.4,    9.4,   11.9,   12.3,   11.2,   11.4,    9.1,    7.9,    4.1,    5.3,    6.1,    5.7,    4.4,    4.0,    4.5,    7.6,    9.5,    9.7,   10.4,    9.7,    8.7,    6.3,    1.8,   -3.0,   -5.3,   -6.9,   -6.3,   -1.9,  999.0,  999.0,  999.0,   -0.3,   -3.8,   -6.1,   -6.0,   -4.9,   -2.0,   -0.2,  999.0,   -2.8,   -4.7,   -5.5,   -4.6,   -3.5,   -4.9,   -6.5,   -7.7,   -7.2,  999.0,  999.0,  999.0,  999.0,  999.0,  999.0,  999.0
2011/07/05 06:35,    5.2,    6.3,    7.2,    7.8,    8.3,    9.1,    9.0,    8.3,    7.8,    8.2,    7.7,    5.1,    5.2,    5.3,    5.2,    4.1,    3.6,    3.2,    2.4,    2.0,    0.7,    1.5,    0.9,    0.8,    3.4,    3.4,    3.5,    2.7,    3.1,    2.8,    2.8,    3.8,    5.1,    7.2,    8.5,    7.8,    6.0,    3.8,    1.2,    0.7,   -1.1,   -3.1,   -5.3,   -4.7,   -5.4,   -4.0,   -2.0,   -1.1,   -1.8,   -1.9,  999.0,   -3.9,   -5.4,   -6.4,   -7.8,   -7.6,   -7.0,   -3.7,   -3.0,   -3.5,   -1.9,    0.2,    0.8,    7.2,    2.5,    7.9,    9.1,   11.8,   13.9,   14.0,   12.3,   10.7,    8.6,    6.6,    6.0,    6.2,    3.9,    4.1,    6.1,    7.6,    8.9,    9.4,   11.2,   11.8,   12.5,    9.5,    7.2,    5.7,   -1.0,   -4.2,   -6.0,   -5.6,   -2.8,  999.0,    3.5,    0.6,   -2.8,   -6.3,   -6.8,   -6.4,   -4.8,   -1.5,    0.3,   -3.3,   -4.8,   -5.7,   -6.0,   -6.6,   -2.3,   -4.6,   -6.3,   -6.2,   -4.7,  999.0,   -4.0,  999.0,  999.0,  999.0,  999.0,  999.0
2011/07/05 06:45,    5.2,    6.1,    6.8,    7.0,    7.1,    7.7,    6.7,    6.9,    8.1,    7.7,    8.2,    6.4,    6.2,    6.0,    4.7,    3.7,    4.2,    3.7,    2.3,    2.1,    1.1,    1.2,    1.7,    1.8,    4.0,  999.0,    4.4,    3.3,    3.4,    3.2,    4.3,    5.2,    7.1,    8.7,    8.5,    6.2,    2.8,    1.3,   -0.4,   -1.9,   -2.4,   -3.5,   -4.2,   -4.7,   -5.4,   -3.4,   -1.6,   -1.1,   -2.0,   -1.9,   -4.8,   -6.9,   -7.2,   -7.2,   -7.3,   -7.9,   -7.9,   -4.9,   -5.6,   -5.3,   -2.8,   -0.2,    0.1,  999.0,    4.8,    8.6,  999.0,   10.4,   12.4,   12.3,   12.9,   11.4,    8.5,    6.2,    3.3,    3.6,    1.8,    3.3,    5.6,    7.5,    9.6,   10.9,  999.0,   11.6,  999.0,   11.3,    8.2,    5.9,   -0.1,   -3.3,   -6.5,   -6.1,   -4.8,   -4.6,    0.5,   -1.2,   -5.1,   -9.1,   -9.1,   -7.4,   -5.5,   -1.8,   -0.2,   -1.3,   -2.3,   -6.2,   -6.3,   -3.8,   -4.1,  999.0,   -7.2,   -7.0,   -6.6,  999.0,  999.0,  999.0,  999.0,  999.0,  999.0,  999.0
2011/07/05 06:55,    4.0,    6.2,    7.2,    7.2,    7.2,    6.6,    6.5,    5.3,    5.2,    7.3,    6.9,    6.2,    6.2,    5.2,    4.4,    4.1,    3.3,    3.0,    2.7,    3.1,    2.1,    2.6,    1.7,    2.7,    4.2,  999.0,    4.0,    2.8,    2.9,    2.7,    2.7,    3.5,    5.3,    8.2,    7.2,    3.1,    1.4,    0.2,   -1.5,   -2.8,   -3.6,   -4.3,   -3.6,   -3.8,   -5.3,   -2.6,   -1.5,   -1.1,   -1.7,   -1.6,   -3.5,   -4.9,   -4.8,   -6.1,   -7.2,   -7.4,   -6.6,   -6.3,   -5.4,   -3.6,   -2.1,    0.0,    1.2,  999.0,    5.7,    7.2,    8.3,    9.4,   11.3,   11.6,   11.1,    8.2,    6.5,    3.7,    1.9,    0.1,   -0.7,    0.5,    2.9,    5.2,    7.8,   11.3,  999.0,   12.0,   13.1,   11.4,    9.0,    5.1,   -0.6,   -4.6,   -6.4,   -7.2,   -5.1,   -1.5,    0.5,   -0.8,   -5.1,   -7.5,   -7.1,   -6.2,   -4.0,    0.2,   -0.6,   -3.7,   -3.7,   -6.4,   -6.2,   -5.1,   -4.8,   -6.5,   -7.6,   -7.9,   -7.2,   -5.8,  999.0,   -6.2,   -4.9,  999.0,  999.0,   -5.2
2011/07/05 07:05,    4.4,    5.3,    7.3,    7.0,    7.0,    6.1,    5.0,    2.9,    4.4,    6.9,    6.3,    6.2,    4.7,    4.5,    3.7,    3.2,    2.1,    2.2,    3.5,    4.1,    3.8,    2.6,    1.9,    2.9,    3.4,    3.2,    3.3,    3.2,    2.5,    3.1,    2.6,    3.5,    6.1,    7.1,    4.8,    2.7,    0.3,   -0.7,   -2.8,   -5.0,   -3.2,   -4.2,   -4.6,   -2.6,   -1.3,   -2.3,   -2.5,   -2.1,   -2.9,   -2.4,   -3.5,   -4.6,   -6.0,   -5.4,   -6.6,   -6.9,   -7.1,   -7.9,   -7.7,   -6.5,   -4.9,   -1.3,    0.3,    1.9,    6.3,    4.8,    6.0,    6.6,    8.5,    9.2,    8.9,    8.0,    3.7,    2.5,   -0.4,  999.0,    1.7,    3.6,    5.3,    6.3,    8.3,   10.2,  999.0,  999.0,   11.9,   11.1,    8.2,    3.9,   -1.0,   -3.2,   -5.9,   -6.9,   -5.5,   -2.7,    0.4,   -0.4,   -4.3,   -7.5,   -7.3,   -5.3,   -1.7,   -0.8,   -1.0,   -3.7,   -5.7,   -6.7,   -7.7,  999.0,  999.0,  999.0,   -6.2,   -7.0,   -7.8,   -5.7,  999.0,   -6.8,   -7.0,   -8.6,  999.0,   -4.6
2011/07/05 07:15,    3.8,    5.9,    6.3,    6.6,    5.4,    6.0,    3.9,    1.4,    3.3,    5.7,    6.3,    6.1,    5.8,    5.2,    4.7,    4.1,    2.3,    3.1,    2.1,    3.0,    2.7,    2.0,    1.5,    3.1,    2.7,    1.9,    3.3,    2.0,    1.8,    1.6,    2.4,    6.1,    7.6,    6.2,    4.1,    1.3,    0.4,   -2.0,   -2.8,   -2.4,   -3.2,   -5.0,   -3.0,   -0.9,   -1.6,   -3.2,   -3.4,   -1.7,   -2.7,   -2.6,   -2.3,   -3.1,   -3.5,   -4.1,   -4.4,   -4.7,   -6.6,   -6.9,   -7.3,   -5.9,   -4.0,   -1.6,    1.8,    3.1,  999.0,  999.0,    5.0,    5.4,    6.4,    6.1,    6.7,    2.5,    1.6,    0.0,   -1.5,    0.3,    2.5,    4.2,    6.3,    8.1,   10.0,   12.1,   13.6,   14.1,   13.0,   11.0,    6.7,    0.8,   -3.1,   -5.3,   -7.0,   -8.8,   -6.5,   -4.0,   -0.1,   -1.0,   -5.7,   -8.2,   -7.2,   -4.9,   -2.5,  999.0,  999.0,   -5.0,   -5.0,  999.0,   -8.3,   -5.3,  999.0,   -5.7,   -5.8,   -7.4,   -7.2,   -3.6,   -3.4,   -3.5,  999.0,   -5.1,   -4.1,   -5.7
2011/07/05 07:25,    3.7,    5.0,    5.9,    7.5,    4.4,    4.4,    4.2,    2.2,    3.3,    4.8,    6.1,    6.0,    5.9,    5.1,    3.6,    3.0,    2.0,    2.4,    2.6,    2.4,    2.4,    1.2,    1.6,    4.1,    3.2,    3.7,    3.1,    3.0,    2.6,    2.7,    4.6,    8.3,    9.1,    5.0,    2.1,    0.5,   -1.4,   -3.6,   -4.3,   -3.9,   -2.5,   -3.7,   -1.5,   -2.3,   -4.6,   -5.5,   -5.5,   -1.8,   -2.6,   -2.9,   -3.0,   -3.8,   -3.9,   -3.9,   -4.6,   -5.0,   -6.3,   -7.8,   -7.9,   -7.4,   -4.0,   -2.1,    1.6,    3.8,    6.9,    4.5,    7.2,  999.0,    5.3,    1.4,    0.6,    2.1,   -0.2,   -1.5,   -0.5,    0.8,    3.4,    5.9,    7.0,    9.4,   12.3,  999.0,  999.0,   14.6,   12.7,   10.8,    6.4,    1.3,   -2.4,   -5.3,   -6.6,   -7.7,   -5.1,   -3.2,    0.9,   -0.4,   -3.9,   -6.4,   -5.9,   -3.6,   -0.0,  999.0,  999.0,   -1.6,   -6.8,   -4.0,  999.0,   -8.7,   -3.2,   -4.8,   -5.1,   -5.9,   -7.5,   -4.4,   -3.5,   -4.9,  999.0,  999.0,  999.0,  999.0
2011/07/05 07:35,    3.0,    4.9,    6.1,    5.6,    5.3,    4.4,    0.0,    1.2,    3.6,    4.5,    5.7,    5.9,    5.0,    2.5,    2.5,    2.8,    2.0,    2.1,    2.8,    3.9,    3.2,    1.5,    2.6,    4.7,    4.5,    4.7,    3.9,    3.7,    3.5,    3.3,    4.9,    7.2,    8.0,    6.2,    3.4,    1.5,   -1.2,   -4.4,   -5.2,   -3.6,   -4.1,   -3.1,   -3.7,   -2.6,   -3.6,   -4.3,   -4.0,   -0.9,   -1.3,   -2.1,   -3.2,   -3.1,   -2.7,   -2.5,   -2.0,   -3.0,   -4.0,   -4.6,   -4.5,   -4.5,   -3.0,   -1.5,    0.6,    2.8,    4.6,    7.0,    8.6,    8.0,    6.8,    3.2,    1.5,    2.7,    2.7,   -0.3,   -0.2,    1.8,    4.7,    7.1,   10.1,   12.4,   14.2,   15.0,  999.0,   15.1,   12.3,   10.1,    6.1,    0.1,   -2.9,   -4.1,   -6.5,   -6.9,   -5.7,   -2.4,   -2.0,   -0.1,   -3.8,   -7.1,   -7.6,   -3.9,  999.0,  999.0,  999.0,  999.0,   -5.1,   -4.0,   -7.2,  999.0,   -3.7,   -5.1,   -5.5,   -6.3,   -7.4,  999.0,   -3.5,   -2.9,   -5.7,   -5.5,   -2.9,   -5.8
2011/07/05 07:45,    3.2,    5.0,    5.8,    4.8,    3.3,    0.9,   -0.2,    0.6,    2.8,    3.1,    5.9,    6.1,    5.1,    3.4,    2.5,    1.7,    1.5,  999.0,    2.7,    3.4,    2.8,    2.1,    3.0,    3.9,    3.8,    2.8,    2.4,    2.4,    2.3,    1.6,    3.5,    6.9,    6.7,    5.2,    2.1,    0.1,   -2.2,   -3.8,   -4.3,   -3.8,   -2.3,   -2.6,   -3.5,   -2.2,   -3.4,   -3.8,   -2.2,   -1.3,   -2.9,   -3.5,   -3.3,   -2.8,   -3.1,   -1.7,   -2.3,   -3.7,   -5.2,   -6.5,   -7.4,   -7.0,   -1.7,   -1.4,    1.0,    4.4,    7.7,    6.8,    9.9,    8.5,    8.7,    5.7,    1.8,    2.2,    3.3,   -0.1,    0.3,    2.5,    4.7,    8.3,   10.5,   11.4,  999.0,  999.0,  999.0,  999.0,  999.0,    9.8,    7.1,    0.9,   -1.7,   -4.9,   -6.9,   -8.1,   -6.9,   -2.9,    0.3,   -3.1,   -3.7,   -8.3,   -8.8,   -3.2,  999.0,  999.0,  999.0,  999.0,  999.0,   -3.9,   -4.8,   -5.7,  999.0,  999.0,   -4.7,  999.0,  999.0,  999.0,  999.0,  999.0,  999.0,   -5.8,  999.0,  999.0
2011/07/05 07:55,    1.5,    3.8,    3.9,    3.5,    2.7,   -0.2,   -1.4,    0.6,    3.2,    4.4,    5.8,    5.0,    4.7,    3.3,    2.7,    2.3,    1.7,    2.0,    3.7,    3.2,    1.7,    2.6,    1.7,    4.0,    3.0,    1.5,    2.6,    3.3,    3.6,    3.4,    5.9,    6.6,    5.9,    4.0,    1.1,   -1.7,   -4.3,   -4.4,   -3.1,   -2.0,   -2.1,   -3.5,   -3.9,   -2.6,   -3.7,   -3.6,   -2.2,   -2.0,   -2.2,   -2.1,   -2.2,   -1.3,   -1.9,   -1.0,   -1.6,   -2.0,   -6.2,   -5.4,   -2.9,   -5.7,   -5.0,   -1.3,    2.9,    4.7,    7.4,    7.7,  999.0,    8.3,    7.8,    6.0,    2.8,    3.0,    2.6,    0.3,    0.8,    1.7,    4.2,    7.7,    9.2,   10.1,   12.5,  999.0,  999.0,  999.0,   10.1,    8.1,    4.4,    1.5,   -2.8,   -4.5,  999.0,   -6.2,   -6.2,   -4.4,   -2.4,   -2.7,   -3.9,   -6.1,   -7.2,   -6.0,   -1.5,   -0.1,  999.0,  999.0,   -6.4,   -4.6,   -4.9,   -3.1,   -1.8,  999.0,   -4.3,   -4.2,   -5.7,   -3.2,   -3.6,   -3.9,   -5.6,  999.0,   -5.7,   -5.7
2011/07/05 08:05,   -0.1,    3.4,    1.6,    2.2,    0.5,   -0.2,    0.4,    1.4,    4.2,    7.0,    6.4,    5.9,    4.7,    4.2,    2.8,    1.7,    2.4,    1.1,    1.5,   -0.2,    0.1,    1.0,    1.3,    1.5,    0.9,    2.0,    3.5,    4.7,    4.6,    5.3,    3.6,    3.9,    3.4,    1.4,   -0.8,   -4.1,   -5.9,   -4.1,   -2.0,   -2.6,   -3.0,   -4.3,   -4.7,   -3.9,   -4.0,   -4.3,   -2.9,   -2.4,   -2.6,   -4.6,   -4.2,   -2.0,   -2.3,   -0.1,   -3.4,   -2.3,   -4.3,   -5.8,   -6.4,   -6.0,   -4.0,   -1.3,    1.7,    4.3,    7.4,    8.8,  999.0,    7.3,    6.4,    5.9,    1.7,    0.5,   -1.4,   -2.5,   -0.4,   -0.3,    4.3,    6.1,    9.5,    9.8,  999.0,  999.0,  999.0,  999.0,    9.7,    7.8,    3.3,    1.3,   -1.8,   -4.3,    0.5,   -6.0,   -7.1,   -7.3,  999.0,  999.0,  999.0,   -2.6,  999.0,  999.0,  999.0,  999.0,   -0.9,  999.0,  999.0,  999.0,   -4.4,   -5.0,  999.0,  999.0,   -5.5,   -5.6,  999.0,   -5.4,  999.0,   -4.6,  999.0,   -6.7,   -5.8,  999.0
2011/07/05 08:15,   -2.1,    0.6,    0.8,    1.9,    1.2,    0.7,    0.7,    3.3,    5.6,  999.0,    5.6,    6.4,    6.1,    4.4,    3.0,    3.0,    3.4,    3.2,    2.2,   -0.1,   -0.2,    0.3,   -0.0,    1.6,    2.5,    3.8,    5.0,    4.7,    5.8,    4.5,    4.5,    4.0,    2.2,    1.2,   -1.5,   -5.7,   -6.9,   -5.6,   -2.3,   -2.7,   -3.7,   -4.8,   -4.6,   -5.0,   -4.5,   -5.1,   -4.4,   -5.3,   -4.4,   -4.1,   -4.1,   -3.7,   -3.5,   -3.8,   -4.5,   -4.3,   -5.4,   -3.7,   -5.4,  999.0,   -6.5,   -3.8,    1.0,    3.4,    6.3,    8.2,    7.5,    7.1,    5.9,    6.3,    3.5,    0.5,   -1.0,   -2.2,   -0.6,    0.4,    0.6,    3.9,    5.1,    8.2,   10.3,  999.0,  999.0,   10.4,    9.6,    8.2,    4.4,    2.4,   -1.1,   -2.7,   -3.5,   -4.0,   -4.7,   -5.0,   -3.2,   -2.4,   -2.3,   -4.4,   -5.8,   -8.5,   -6.7,   -3.7,   -3.7,   -3.7,   -3.0,   -5.1,   -3.6,   -4.5,   -1.4,   -3.5,   -4.8,   -7.2,   -6.0,   -6.7,   -4.9,   -5.9,   -7.1,   -6.5,   -5.9,   -3.8
2011/07/05 08:25,   -3.8,   -2.3,   -0.7,    0.8,    0.9,   -0.1,    0.9,    1.8,    4.3,    4.9,    6.0,    6.3,    6.4,    3.9,    2.7,    2.8,    2.5,    1.8,    0.3,   -0.2,    0.4,    0.2,   -1.2,   -0.7,    1.8,    3.4,    4.4,    4.6,    5.3,    4.1,    4.3,    4.4,    2.1,    1.0,   -2.2,   -4.9,   -6.0,   -5.8,   -1.3,   -0.7,   -2.9,   -4.4,   -4.0,   -4.1,   -2.7,   -3.5,   -3.3,   -3.8,   -3.7,   -4.3,   -3.6,   -3.8,   -3.2,   -2.9,   -2.3,   -1.9,   -4.3,   -6.6,   -7.3,   -5.7,   -5.9,   -2.2,    2.0,    1.9,    6.3,    7.7,    8.7,    8.7,    7.0,    5.8,    4.1,    1.7,   -1.1,    0.3,    2.6,    3.7,    3.5,  999.0,    5.0,    7.3,  999.0,  999.0,  999.0,  999.0,  999.0,    6.5,  999.0,  999.0,  999.0,  999.0,  999.0,  999.0,   -2.8,   -4.1,  999.0,   -1.0,   -0.5,   -0.0,   -0.1,   -4.0,  999.0,   -3.5,  999.0,  999.0,   -4.9,  999.0,  999.0,   -7.2,   -2.3,   -1.1,  999.0,  999.0,  999.0,   -6.3,   -5.3,   -6.3,   -6.7,  999.0,  999.0,   -4.7
2011/07/05 08:35,   -3.7,   -3.0,   -0.2,    1.3,    0.1,  999.0,    0.5,    2.5,    4.6,    5.5,    6.7,    6.4,    4.1,    3.6,    3.2,    2.4,    2.0,    1.0,    0.0,   -0.6,   -1.0,   -2.1,   -2.0,   -2.1,    0.1,    2.9,    3.5,    3.9,    5.5,    5.0,    3.0,    2.7,    1.4,   -1.3,   -3.2,   -6.1,   -6.5,   -3.8,   -3.3,   -1.7,   -2.9,   -3.7,   -4.1,   -4.0,   -2.4,   -2.6,   -2.6,   -3.3,   -2.9,   -2.4,   -3.2,   -3.1,   -1.8,   -3.2,   -2.5,   -2.5,   -2.9,   -4.3,   -4.3,   -6.8,   -6.0,   -3.9,    0.1,    4.2,    7.5,    7.3,    7.8,    8.7,    5.6,    5.4,    3.7,    0.4,   -2.7,   -2.7,   -0.7,    0.3,    0.8,    2.3,    4.2,    4.5,    6.2,    9.3,   10.9,   10.2,    9.6,    6.6,    5.2,    2.8,   -1.4,  999.0,   -2.8,   -5.6,   -6.6,   -6.3,   -5.0,   -2.3,    1.4,    1.2,   -0.1,   -3.2,   -6.3,   -7.6,   -0.8,  999.0,   -5.1,   -3.1,   -5.0,   -6.2,  999.0,   -3.3,  999.0,   -7.7,   -6.8,   -8.0,   -7.5,   -6.6,   -6.1,   -4.6,   -5.3,   -4.3
2011/07/05 08:45,   -3.5,   -3.5,    0.5,    0.6,    0.5,  999.0,    0.5,    1.7,    2.9,    3.9,    5.1,    5.6,    4.2,    4.3,    3.0,    2.6,    2.7,    1.5,    0.8,   -0.4,   -1.5,   -1.8,   -2.0,   -0.8,   -1.9,   -0.6,    1.4,    3.9,  999.0,    5.7,    3.2,    1.0,   -1.0,   -3.9,   -5.7,   -7.0,   -6.1,   -4.0,   -4.4,   -3.9,   -4.4,   -4.6,   -4.0,   -5.9,   -4.5,   -3.4,   -3.6,   -4.0,   -3.8,   -3.0,   -2.9,   -2.3,   -3.9,   -4.9,   -4.6,   -4.3,   -4.3,   -4.4,   -5.1,   -5.3,   -3.9,   -2.9,    1.5,    4.1,    8.7,    9.1,  999.0,  999.0,    7.4,    5.6,    5.3,    0.6,   -2.1,   -3.8,   -1.1,    0.6,    0.4,    0.3,    2.3,    6.5,    6.6,    8.9,   11.0,   10.7,    9.9,    7.5,    6.4,    1.7,  999.0,   -3.6,  999.0,   -6.1,   -7.2,   -5.1,   -4.0,  999.0,  999.0,   -0.5,    0.5,   -5.4,   -7.9,   -7.7,  999.0,   -5.1,   -4.3,   -3.1,   -3.6,   -6.3,  999.0,   -3.9,   -7.4,   -7.9,   -7.0,   -7.6,   -5.1,   -6.2,   -6.5,   -7.2,   -4.8,   -3.4
2011/07/05 08:55,   -1.8,   -0.0,    0.3,   -0.7,   -0.4,    0.3,    0.7,    0.4,    3.0,    2.3,    4.5,    4.3,    3.4,    4.3,    3.2,    3.7,    3.0,    2.5,    1.1,    0.3,   -0.8,   -1.2,   -2.0,   -2.5,   -2.7,   -2.5,    0.7,    3.5,    4.8,    5.2,    1.1,   -0.7,   -3.9,   -6.2,   -8.2,   -8.0,   -6.1,   -4.3,   -4.4,   -5.0,   -5.0,   -3.7,   -4.0,   -4.9,   -4.3,   -3.6,   -3.3,   -3.5,   -4.6,   -3.4,   -2.4,   -2.9,   -2.8,   -4.3,   -3.9,   -4.3,   -3.0,   -3.3,   -3.3,   -4.5,   -4.3,   -2.8,    0.7,    2.5,    3.6,    6.4,    4.8,    3.1,    6.2,    6.5,    4.6,    2.8,    0.7,   -0.9,    1.8,    2.0,    3.0,    0.6,    3.1,    5.9,    6.2,    6.6,   10.4,  999.0,    6.5,    7.3,    4.5,    1.3,   -2.2,   -5.5,  -10.0,   -5.8,   -7.6,   -4.3,  999.0,    0.9,  999.0,    1.0,    0.3,    0.8,  999.0,  999.0,   -0.1,    0.6,   -3.3,   -2.3,   -2.7,   -3.5,   -5.3,   -3.9,   -6.9,   -5.8,   -6.7,   -7.9,   -4.6,   -3.7,   -6.2,   -4.9,   -4.5,   -4.1
2011/07/05 09:05,   -3.0,   -2.9,   -1.2,   -1.0,   -1.6,   -1.7,   -0.5,   -0.6,    0.4,    2.1,    4.8,    4.6,    4.1,    4.7,    4.0,    3.9,    3.5,    2.7,    2.0,    1.1,   -1.3,   -1.2,   -1.3,   -2.3,   -3.3,   -3.4,   -0.8,    3.4,    4.2,    2.4,    0.7,   -0.4,   -2.7,   -4.4,   -7.3,   -5.9,   -4.5,   -2.9,   -1.6,   -2.1,   -2.3,   -2.5,   -2.8,   -3.4,   -2.9,   -0.4,   -0.3,   -1.4,   -0.9,   -1.3,   -1.9,   -2.5,   -1.6,   -1.0,   -3.3,   -2.9,   -1.9,   -2.3,  999.0,   -0.4,   -3.0,   -1.9,   -0.9,   -1.7,    0.2,    3.6,  999.0,    1.8,    4.7,  999.0,  999.0,    0.9,  999.0,  999.0,   -1.4,  999.0,  999.0,  999.0,  999.0,    5.4,  999.0,    6.3,   10.2,  999.0,  999.0,  999.0,  999.0,  999.0,  999.0,  999.0,  999.0,  999.0,   -8.2,  999.0,   -2.1,    0.7,  999.0,  999.0,  999.0,   -1.1,   -5.3,   -8.0,  999.0,  999.0,   -5.4,   -5.1,   -3.3,   -4.6,  999.0,  999.0,   -8.1,   -7.8,   -6.9,   -8.7,   -6.7,   -5.2,   -6.9,   -6.1,   -6.0,  999.0
2011/07/05 09:15,   -2.8,   -1.9,   -0.6,    1.5,    1.7,   -1.7,   -1.6,   -1.1,   -0.2,    3.5,    2.3,    3.0,    3.2,    2.8,    2.8,    3.3,    2.3,    2.0,    1.2,    0.9,   -0.2,   -1.9,   -2.3,   -2.1,   -1.5,   -2.2,   -1.3,    2.0,    3.3,    0.5,    0.0,   -1.4,   -2.6,   -6.4,  999.0,   -6.6,   -5.2,   -3.0,   -3.1,   -2.0,   -2.9,   -3.6,   -2.7,   -3.3,   -1.6,   -1.3,   -0.1,   -1.2,   -1.7,   -1.7,   -1.7,   -2.7,   -2.9,   -4.7,   -4.8,   -3.6,   -3.8,    0.2,   -4.9,  999.0,  999.0,   -4.1,   -3.1,   -0.7,  999.0,    3.3,    3.5,    5.4,    5.3,    4.6,    0.4,    0.0,   -2.8,   -3.7,   -1.0,    0.9,   -0.5,    2.8,    4.5,    6.6,    6.3,    3.9,    4.7,    7.1,    6.3,    5.1,    6.6,    3.8,   -0.3,   -2.6,   -4.0,  999.0,   -0.4,  999.0,  999.0,  999.0,  999.0,   -2.3,  999.0,  999.0,   -4.5,  999.0,   -7.0,   -6.0,   -2.9,   -0.9,   -1.4,  999.0,    5.9,    1.2,  999.0,  999.0,   -6.9,  999.0,  999.0,  999.0,  999.0,  999.0,   -1.4,    0.6
2011/07/05 09:25,   -3.9,   -3.7,   -4.1,    0.8,   -2.2,   -1.7,   -1.9,   -4.0,   -1.1,    3.3,    2.7,    3.1,    2.2,    2.7,    2.9,    3.1,    2.1,    0.7,    0.5,   -0.2,   -2.2,   -3.5,   -2.8,   -1.8,   -1.3,   -1.7,   -0.6,    1.1,    1.4,   -0.9,   -0.8,   -1.7,   -3.3,   -5.5,   -6.2,   -6.5,   -6.0,   -4.0,   -4.5,   -4.3,   -5.3,   -4.5,   -4.3,   -4.0,    0.3,    0.9,    1.7,   -0.8,   -0.3,   -2.0,   -1.3,   -1.7,   -2.9,   -4.8,   -4.0,   -3.3,   -2.8,   -0.6,   -0.3,   -2.9,   -5.1,   -2.2,    1.2,    0.8,  999.0,  999.0,    4.8,    5.7,    9.5,    5.0,    0.0,   -0.5,   -5.0,   -3.1,  999.0,  999.0,    1.3,    4.7,  999.0,    4.5,  999.0,  999.0,  999.0,  999.0,  999.0,  999.0,   10.9,    6.2,    5.7,   -0.2,  999.0,  999.0,  999.0,  999.0,  999.0,    3.6,  999.0,  999.0,  999.0,  999.0,   -7.0,  999.0,  999.0,  999.0,  999.0,  999.0,  999.0,  999.0,  999.0,  999.0,  999.0,  999.0,  999.0,  999.0,  999.0,  999.0,  999.0,  999.0,   -0.6,  999.0
2011/07/05 09:35,   -5.0,   -4.1,   -4.0,   -3.0,   -3.6,   -3.9,   -3.4,   -3.7,   -1.8,    1.3,    2.1,    2.5,    2.9,    2.4,    2.7,    3.4,    1.7,    1.5,    0.3,   -0.7,   -2.9,   -3.8,   -4.2,   -2.4,   -1.7,   -1.0,   -0.4,    0.6,   -1.7,   -2.3,   -1.5,   -2.6,   -4.3,   -6.4,  999.0,   -7.1,   -5.8,   -3.4,   -3.9,   -4.0,   -3.1,   -2.5,   -1.5,    0.3,    0.9,    0.7,    1.8,    2.4,    0.8,   -0.5,   -0.9,   -1.9,   -2.5,   -4.2,   -4.0,   -3.0,   -2.9,   -1.0,   -2.2,   -5.4,   -0.6,   -0.7,    0.5,  999.0,  999.0,    4.4,    4.4,    6.1,    5.8,    3.6,    0.5,   -2.1,   -6.0,   -7.6,   -3.1,   -0.6,   -0.6,    2.6,    5.7,    4.5,    3.1,    1.6,    3.5,    5.0,    7.1,    4.8,    9.1,    8.1,    1.2,   -1.7,   -4.8,   -5.6,   -5.2,  999.0,   -5.9,  999.0,  999.0,  999.0,    3.6,   -2.6,   -4.7,   -7.2,  999.0,   -1.7,  999.0,   -3.2,   -2.8,   -4.3,  999.0,    0.0,   -6.0,  999.0,  999.0,  999.0,  999.0,  999.0,  999.0,  999.0,  999.0,    1.7
2011/07/05 09:45,   -3.9,   -3.5,    5.0,  999.0,    1.8,    0.9,   -0.4,   -1.9,   -2.4,   -0.1,    3.6,    6.8,    5.5,    5.2,    3.2,    2.3,    2.0,    1.2,    1.3,   -0.4,   -2.1,   -3.3,   -2.6,   -1.8,   -2.5,   -3.0,   -2.0,   -2.1,   -2.5,   -2.1,   -1.4,   -3.2,   -5.6,   -7.8,   -8.8,   -7.4,   -6.4,   -4.9,   -6.0,   -6.4,   -4.4,   -4.2,   -1.2,    1.0,    1.7,    1.1,    0.1,    0.9,   -0.7,   -2.5,   -2.8,   -4.7,   -4.5,   -5.8,   -5.8,   -4.3,   -2.0,   -0.3,   -1.7,   -2.7,   -3.6,  999.0,  999.0,  999.0,    3.9,  999.0,  999.0,    5.8,    5.7,  999.0,    0.9,   -0.2,   -3.8,   -5.6,   -2.9,   -1.7,  999.0,  999.0,  999.0,    7.9,  999.0,    2.9,    3.5,    5.3,    4.3,  999.0,  999.0,  999.0,  999.0,  999.0,  999.0,  999.0,  999.0,   -3.0,  999.0,   -2.1,   -2.8,  999.0,  999.0,  999.0,  999.0,  999.0,  999.0,  999.0,  999.0,  999.0,    2.3,    1.6,  999.0,  999.0,  999.0,  999.0,  999.0,  999.0,  999.0,  999.0,  999.0,  999.0,  999.0,    4.1
2011/07/05 09:55,   -3.3,  999.0,   -3.6,   -0.1,   -2.1,   -2.0,   -3.3,   -1.8,   -2.0,   -1.5,   -0.0,    1.0,    0.8,    0.8,    0.3,    0.2,    0.8,    0.1,    0.6,   -2.5,   -4.0,   -4.0,   -4.0,   -3.9,   -4.4,   -5.0,   -4.6,   -5.3,   -4.2,   -2.3,   -3.2,   -5.1,   -6.9,   -7.9,  -10.4,   -9.0,   -8.8,   -5.1,   -5.1,   -5.7,   -6.0,   -3.0,   -0.4,    0.2,    0.3,    0.9,   -0.1,   -0.3,   -1.5,   -4.1,   -6.5,   -6.4,   -6.1,   -7.2,   -6.5,   -6.0,   -4.0,  999.0,   -1.0,   -2.8,   -1.2,    0.4,  999.0,    1.6,    1.2,    2.7,    4.0,    4.7,    4.3,    0.5,   -2.0,    0.1,   -3.5,   -7.5,   -3.7,   -2.5,   -1.3,  999.0,    2.1,    2.1,  999.0,    2.7,   -0.2,    3.8,    0.5,  999.0,    7.2,  999.0,   -2.9,  999.0,   -2.0,  999.0,  999.0,   -2.0,   -1.7,   -2.6,   -6.9,   -1.5,    6.2,    1.9,   -1.3,   -2.2,  999.0,   -1.3,   -2.8,   -2.3,   -1.5,   -2.6,   -6.0,  999.0,  999.0,   -2.1,  999.0,  999.0,   -2.4,  999.0,   -2.3,   -1.6,   -1.6,   -0.3
2011/07/05 10:05,   -4.7,   -2.4,   -6.2,   -5.7,   -1.2,   -2.0,   -1.1,   -3.1,   -2.0,   -2.9,    1.2,    1.7,    1.8,    0.2,    0.1,    0.3,    1.1,    1.4,    1.0,   -0.4,   -0.9,   -1.5,   -1.4,   -3.8,   -4.3,   -3.4,   -3.5,   -1.4,   -3.0,   -0.4,   -1.7,   -5.8,   -5.7,   -9.7,  -10.2,   -9.1,   -7.3,   -5.4,   -4.5,   -5.0,   -4.8,   -0.8,   -0.4,   -0.1,   -0.5,   -0.0,   -1.2,   -2.4,   -3.9,   -5.1,   -6.4,   -6.9,   -7.7,   -8.5,   -7.9,   -3.3,   -3.5,   -2.2,  999.0,    1.4,   -3.4,    3.9,   -0.5,    1.3,    1.8,    1.9,    4.9,    4.0,    4.6,   -1.0,   -2.1,   -2.3,   -3.8,   -9.0,   -7.9,   -4.5,   -3.8,   -5.5,   -1.8,   -0.7,  999.0,   -2.7,  999.0,    0.3,  999.0,    5.1,    7.9,  999.0,    1.1,   -2.4,  999.0,  999.0,  999.0,  999.0,  999.0,  999.0,  999.0,  999.0,  999.0,  999.0,   -1.3,  999.0,  999.0,  999.0,  999.0,    3.1,    2.0,  999.0,  999.0,  999.0,  999.0,  999.0,  999.0,  999.0,  999.0,  999.0,   -5.7,  999.0,  999.0,  999.0
2011/07/05 10:15,   -2.8,   -3.2,   -2.7,   -1.5,   -2.8,   -2.6,   -1.4,   -2.2,   -2.5,   -2.3,    0.5,    2.2,    2.7,    0.9,    0.8,    1.1,    2.0,    2.2,   -0.3,   -1.1,   -3.2,   -3.5,   -3.6,   -3.6,   -5.1,   -5.4,   -2.8,   -2.7,   -2.1,   -3.2,   -2.6,   -3.8,   -4.5,   -8.2,   -8.5,   -6.7,   -6.8,   -4.1,   -3.4,   -4.2,   -2.5,   -0.2,    0.3,    1.0,    0.3,   -0.0,   -1.1,   -3.1,   -3.7,   -4.2,   -5.0,   -6.0,   -6.0,   -4.5,   -3.5,   -3.5,   -4.6,   -3.4,   -3.2,   -4.8,   -1.6,   -2.1,    1.3,    1.3,    2.3,    4.3,    5.8,    5.2,    3.2,    2.1,   -1.8,   -2.6,   -1.3,   -4.7,   -7.0,   -2.8,   -2.6,   -3.8,   -2.2,    0.0,    2.0,    0.1,   -0.3,   -1.1,    1.4,    4.1,    4.7,    3.3,   -1.5,    2.0,  999.0,  999.0,  999.0,    7.7,    3.7,   -1.8,  999.0,   -5.6,  999.0,  999.0,   -0.0,  999.0,  999.0,  999.0,   -3.3,   -1.3,    1.4,  999.0,    1.1,    2.0,  999.0,   -6.8,  999.0,  999.0,   -5.7,  999.0,  999.0,   -5.9,  999.0,  999.0
2011/07/05 10:25,   -3.0,   -5.5,   -3.8,   -5.8,   -1.0,   -1.4,   -1.8,   -3.0,   -0.2,   -2.2,   -1.3,    1.7,   -0.6,   -1.6,   -2.6,   -2.7,   -1.1,   -1.0,   -3.8,   -5.3,   -4.8,   -5.2,   -6.3,   -5.4,   -5.6,   -4.9,   -3.4,   -1.8,   -3.5,   -2.8,   -3.2,   -4.9,   -7.9,   -9.5,   -9.4,   -7.3,   -5.8,   -4.7,   -3.0,   -3.8,   -1.7,   -1.7,   -1.3,   -0.1,   -0.3,   -1.9,   -2.3,   -4.1,   -5.4,   -6.1,   -6.9,   -5.8,   -4.2,   -3.8,   -2.5,   -2.1,   -1.5,   -1.5,   -2.5,   -1.7,   -1.9,   -1.2,    1.7,    0.2,    1.8,    2.8,    5.7,    5.4,    3.7,    0.6,   -1.8,   -2.3,   -2.0,   -4.2,   -5.5,   -2.4,   -1.3,   -2.6,   -2.7,   -0.4,    1.1,    0.5,   -1.3,   -2.1,    0.8,  999.0,    3.6,    3.7,    3.6,  999.0,   -2.4,   -5.7,   -1.7,    2.9,  999.0,  999.0,   -3.0,   -5.7,   -5.4,  999.0,   -6.7,   -6.9,   -7.5,   -6.2,   -4.7,   -4.1,   -1.7,   -1.6,   -4.0,  999.0,   -2.9,  999.0,   -8.5,   -7.0,   -5.0,  999.0,   -4.9,   -6.4,  999.0,  999.0
2011/07/05 10:35,   -2.8,   -3.2,   -4.0,   -0.5,    0.1,    0.9,   -0.6,   -0.8,   -2.6,   -3.5,   -4.2,   -2.2,   -1.3,   -2.5,   -2.3,   -1.2,   -0.5,   -1.0,   -3.1,   -2.8,   -4.7,   -5.0,   -5.1,   -4.7,   -5.8,   -5.4,   -4.1,   -3.4,   -4.0,   -3.7,   -3.9,   -7.4,   -9.6,  -10.1,   -9.2,   -7.4,   -5.6,   -4.6,   -3.0,   -3.2,   -2.2,   -2.1,   -1.6,   -1.7,   -2.9,   -4.3,   -5.3,   -6.2,   -6.5,   -7.8,   -7.9,   -6.1,   -5.2,   -2.1,   -1.5,   -2.9,   -3.8,   -2.7,   -1.7,   -2.2,  999.0,    0.1,   -2.3,   -0.1,   -0.1,    1.4,    4.9,    4.0,    2.8,    1.0,   -1.3,   -1.8,   -2.5,   -2.8,   -5.5,   -3.2,   -1.5,   -2.3,   -3.7,   -1.8,    1.4,    1.5,    0.7,   -1.6,    0.5,    2.5,    2.6,    2.8,    2.1,    1.3,   -0.4,   -4.3,   -3.1,   -1.4,  999.0,   -0.7,   -2.4,   -3.5,   -3.5,   -5.0,   -4.4,   -6.0,   -6.1,   -7.0,   -1.4,   -2.6,   -0.7,   -2.1,   -3.8,   -3.8,  999.0,   -5.0,   -2.6,   -2.4,   -4.5,   -3.8,   -4.8,   -3.6,  999.0,   -0.5
2011/07/05 10:45,   -1.8,   -2.9,   -2.2,   -1.2,   -1.3,    0.3,   -1.0,   -1.6,   -2.2,   -2.3,   -1.9,   -1.6,   -1.5,   -1.7,   -2.3,   -2.1,   -2.0,   -3.0,   -3.9,   -4.6,   -5.0,   -7.3,   -6.3,   -5.5,   -5.4,   -5.0,   -6.1,   -5.4,   -3.8,   -4.1,   -5.1,   -7.9,  -10.0,  -11.2,  -10.0,   -8.2,   -7.1,   -4.5,   -4.1,   -2.9,   -1.8,   -2.2,   -2.3,   -3.3,   -4.0,   -4.1,   -5.2,   -5.6,   -7.6,   -8.2,   -6.8,   -5.0,   -4.1,   -3.2,   -3.1,   -0.9,   -2.2,   -2.2,  999.0,   -2.8,   -1.3,   -1.6,  999.0,   -0.9,    0.3,    1.1,    1.7,    1.8,    0.7,    0.6,    0.6,   -1.4,   -2.4,   -5.6,   -6.5,   -5.8,   -2.4,   -3.6,   -6.3,   -2.1,    0.6,    2.6,   -1.7,   -1.4,   -0.5,  999.0,    2.7,    4.8,    4.2,    2.3,  999.0,   -3.3,  999.0,    3.4,    2.4,  999.0,   -0.3,   -4.4,  999.0,  999.0,  999.0,   -4.5,   -4.7,   -3.7,   -3.7,  999.0,    0.5,   -1.1,   -4.0,   -3.4,    0.1,   -6.2,   -2.7,   -2.5,   -3.3,   -4.4,  999.0,   -3.5,  999.0,    2.6
2011/07/05 10:55,   -2.5,   -2.6,   -2.9,   -1.9,   -0.6,   -2.9,   -3.9,   -1.7,   -5.1,   -1.7,    1.4,   -0.8,    0.5,   -1.2,   -0.1,    0.5,   -1.6,  999.0,   -5.3,   -6.0,   -7.2,  999.0,   -5.4,   -5.4,   -5.8,   -4.2,   -4.9,   -4.6,   -3.4,   -2.8,   -3.4,   -4.8,   -6.8,   -9.1,   -9.3,   -7.4,   -6.7,   -5.0,   -3.6,   -4.2,   -2.9,   -1.8,   -2.4,   -4.5,   -4.2,   -3.8,   -3.6,   -4.1,   -5.5,   -6.9,   -5.9,   -4.0,   -3.7,   -2.2,   -1.9,   -2.4,   -1.1,    0.4,   -0.6,    3.2,  999.0,    0.2,   -0.0,    1.0,    0.8,    2.0,    2.2,    1.7,    1.6,    2.6,   -1.1,   -2.7,  999.0,   -6.7,   -5.4,   -5.6,   -3.1,   -2.2,   -6.6,   -6.9,   -4.2,   -1.1,   -2.3,   -0.9,   -2.6,    2.1,    3.3,    8.0,    2.7,    2.1,   -5.1,   -3.1,   -1.2,   -2.5,  999.0,   -6.3,   -5.7,  999.0,   -3.9,   -4.5,   -4.4,   -4.4,   -4.0,   -2.5,   -0.2,    3.0,   -1.6,   -1.3,   -4.2,   -4.5,   -1.8,   -6.1,   -7.1,   -9.1,  999.0,   -4.5,   -6.8,   -1.4,   -6.0,  999.0
2011/07/05 11:05,   -1.9,   -2.2,   -3.0,   -3.2,   -2.8,   -4.0,   -4.0,   -3.8,   -5.1,   -2.6,    0.7,   -1.8,   -1.5,   -1.1,   -2.0,   -3.3,   -4.4,   -5.5,   -5.2,   -0.7,  999.0,  999.0,  999.0,  999.0,  999.0,   -4.6,   -4.9,   -5.0,   -3.9,   -2.9,   -3.4,   -5.7,   -7.5,  -10.1,  -10.6,   -9.0,   -6.7,   -3.7,   -3.3,   -1.9,   -2.2,   -1.0,   -0.1,   -0.4,   -1.9,   -2.7,   -2.4,   -2.8,   -3.4,   -4.0,   -3.3,   -3.0,   -2.5,   -0.6,   -0.4,   -0.0,   -0.0,   -0.4,    1.2,    0.9,    0.4,    1.8,    0.2,    0.4,    1.3,    2.4,    2.5,    1.3,    2.9,    2.6,   -1.0,   -3.6,   -4.5,   -6.4,   -7.7,   -7.3,   -3.8,   -2.5,   -4.9,   -7.0,   -6.3,   -3.3,   -2.2,   -2.0,   -1.4,    1.8,    4.7,    6.4,    5.0,    1.4,   -2.6,   -3.4,  999.0,   -0.7,   -3.0,   -5.3,   -6.4,   -5.7,   -3.2,   -5.0,   -3.4,   -5.2,   -4.4,   -3.6,  999.0,  999.0,  999.0,   -0.5,   -4.4,   -6.3,   -6.3,   -8.0,  -11.5,   -9.1,  999.0,  999.0,   -6.5,   -6.0,   -5.8,  999.0
2011/07/05 11:15,   -3.3,   -1.9,    0.7,   -0.9,   -0.1,   -0.8,   -0.8,   -1.8,   -2.8,   -3.1,   -5.0,   -2.0,   -1.0,    0.4,   -0.7,   -0.7,   -1.6,   -3.9,   -3.0,   -1.2,  999.0,   -3.4,  999.0,  999.0,  999.0,  999.0,  999.0,   -3.0,  999.0,   -3.6,   -3.5,   -6.3,   -7.7,  -10.0,  -11.0,   -7.4,   -5.8,   -3.7,   -2.1,   -2.0,   -1.5,   -2.1,   -0.7,   -1.7,   -2.7,   -3.6,   -3.8,   -4.4,   -4.3,   -5.7,   -5.1,   -4.5,   -4.2,   -4.1,   -3.0,   -1.7,   -2.6,   -2.1,   -2.2,   -0.6,  999.0,  999.0,  999.0,  999.0,    2.8,    1.8,    2.4,    3.1,    4.9,    6.1,   -0.1,   -1.7,  999.0,  999.0,  999.0,  999.0,  999.0,   -3.0,  999.0,   -7.1,  999.0,   -1.0,    0.4,   -1.0,  999.0,  999.0,  999.0,  999.0,  999.0,  999.0,  999.0,  999.0,  999.0,  999.0,  999.0,  999.0,  999.0,  999.0,  999.0,  999.0,   -5.2,   -4.4,   -3.8,  999.0,  999.0,   -1.2,  999.0,  999.0,  999.0,   -5.8,  999.0,  999.0,  999.0,   -8.5,   -8.7,  999.0,   -5.9,   -6.1,  999.0,  999.0
2011/07/05 11:25,   -6.8,   -2.4,   -1.1,   -3.3,   -0.8,  999.0,   -2.6,  999.0,  999.0,  999.0,   -0.7,   -1.7,   -0.2,   -2.2,   -2.9,   -3.7,   -5.5,   -7.2,   -5.7,   -4.7,  999.0,  999.0,  999.0,  999.0,  999.0,  999.0,   -8.1,   -5.0,   -5.1,   -5.1,   -6.6,   -9.1,  -11.0,  -13.2,  -12.4,   -8.0,   -7.5,   -4.9,   -3.9,   -3.8,   -3.5,   -2.5,   -2.8,   -3.8,   -5.0,   -4.5,   -4.4,   -6.3,   -5.9,   -5.8,   -2.1,   -3.5,   -6.6,   -2.5,   -4.5,    0.8,    0.3,  999.0,   -1.2,  999.0,    1.0,    0.8,    2.3,  999.0,    2.1,    0.5,    1.4,  999.0,    0.6,    2.7,  999.0,   -1.2,   -2.3,  999.0,    0.8,   -3.2,   -3.6,    0.3,   -2.3,   -5.4,   -4.6,   -1.8,   -1.1,   -0.7,    1.0,    0.7,    0.2,  999.0,    1.7,    0.5,   -0.0,   -0.7,  999.0,  999.0,    0.3,  999.0,   -0.2,  999.0,   -2.9,  999.0,  999.0,   -2.6,   -3.8,   -1.7,   -2.1,   -2.5,   -2.3,   -1.8,   -0.9,   -3.4,   -3.5,   -2.8,   -4.7,   -3.2,   -1.8,   -0.2,   -2.5,   -1.4,   -2.8,   -2.2
2011/07/05 11:35,   -1.0,   -1.9,   -2.1,   -2.4,   -1.2,   -1.6,   -1.5,   -1.4,   -2.0,   -2.0,   -0.7,   -1.3,   -0.1,   -0.3,   -1.5,   -2.3,   -3.7,   -6.3,   -5.7,   -4.5,   -5.6,    0.8,  999.0,   -1.6,    0.2,   -2.4,   -4.1,   -3.0,   -2.3,   -3.6,   -6.2,   -8.6,  -12.6,  -13.0,  -11.6,   -8.1,   -6.8,   -3.4,   -2.7,   -1.3,   -2.4,   -3.1,   -4.5,   -6.1,   -5.7,   -3.6,   -6.1,   -7.7,   -7.0,   -4.6,   -3.6,   -1.9,   -1.7,   -2.0,   -1.5,  999.0,  999.0,   -4.3,   -2.5,   -2.7,   -0.8,   -0.6,   -0.3,  999.0,    2.4,    4.0,   -2.6,   -1.9,  999.0,  999.0,   -1.4,   -1.8,   -2.2,   -4.9,    1.7,   -2.2,   -5.6,   -0.8,  999.0,  999.0,   -4.7,   -4.2,  999.0,   -3.8,   -1.2,   -1.4,   -2.9,   -3.0,   -2.0,   -2.3,   -2.0,   -5.9,   -4.7,  999.0,   -3.0,   -1.6,  999.0,   -5.9,   -5.8,   -2.0,   -3.1,   -4.2,   -6.6,   -4.9,   -3.5,   -0.8,   -7.0,   -4.7,   -2.6,   -3.7,  999.0,  999.0,   -1.0,   -1.7,   -3.3,   -1.7,   -0.7,   -1.0,   -2.2,   -5.1
2011/07/05 11:45,   -3.5,   -4.4,   -5.4,   -4.5,   -4.8,   -3.4,   -4.6,   -4.3,   -1.9,   -1.8,   -2.7,   -0.8,   -1.9,   -2.1,   -3.0,   -3.2,   -4.1,   -5.8,   -6.1,   -5.7,   -4.3,   -3.5,    1.2,   -4.1,   -4.7,   -4.7,   -3.3,   -3.3,   -3.3,   -3.8,   -3.9,   -7.5,  -10.0,  -13.0,   -6.6,   -8.0,   -5.5,   -2.6,   -2.4,   -2.5,   -3.3,   -3.8,   -4.9,   -6.0,   -5.0,   -4.0,   -5.6,   -8.3,   -2.1,   -4.5,   -4.1,   -3.4,    0.1,   -1.2,   -1.2,   -1.1,   -2.2,   -2.7,   -2.3,  999.0,  999.0,   -1.1,   -1.7,   -2.5,  999.0,  999.0,   -0.3,    0.8,    0.3,    0.2,    0.7,   -0.1,   -1.6,   -0.6,   -1.5,   -1.5,   -1.8,   -0.8,   -0.6,   -1.6,   -2.8,   -2.3,   -0.4,    1.6,   -0.3,    0.1,   -1.4,    1.3,    1.6,    0.6,    1.4,   -1.0,    0.6,    0.1,  999.0,    1.4,   -0.6,   -2.0,   -2.9,   -1.6,   -1.7,   -1.8,   -3.7,   -3.9,   -0.4,   -0.8,   -2.1,   -2.5,   -1.1,   -0.8,   -1.9,   -2.1,   -3.2,   -4.1,   -2.2,   -3.9,   -1.5,   -2.3,   -2.1,   -2.3
2011/07/05 11:55,   -5.0,   -6.9,   -7.0,   -5.9,   -6.4,   -4.2,   -3.3,   -1.5,    1.5,   -1.0,   -1.7,    0.2,    0.9,    0.1,   -1.2,   -2.7,   -4.0,   -5.1,   -5.6,   -4.1,   -3.4,   -3.3,   -3.0,   -2.1,   -2.9,   -3.6,   -0.8,   -3.3,   -2.9,   -3.9,   -5.3,   -7.8,  999.0,  -12.4,   -8.9,   -8.5,   -6.7,   -2.6,   -3.8,   -4.7,   -5.1,   -6.7,   -7.5,   -7.0,   -6.7,   -4.5,   -5.5,   -6.1,   -3.3,   -2.8,   -2.8,   -2.6,   -1.5,   -0.9,    0.4,    1.3,    1.7,   -2.4,    0.2,    0.9,    0.3,    2.6,   -2.0,    2.8,   -0.1,  999.0,    1.0,  999.0,  999.0,  999.0,   -1.4,  999.0,   -3.0,  999.0,   -0.8,  999.0,  999.0,   -2.1,  999.0,   -1.2,  999.0,   -3.8,   -2.1,  999.0,   -1.1,  999.0,  999.0,   -2.6,   -2.0,   -3.7,   -2.5,   -2.0,   -2.2,   -1.5,   -3.2,  999.0,  999.0,  999.0,   -2.4,   -4.5,  999.0,   -3.0,   -3.1,   -3.0,    2.1,  999.0,  999.0,  999.0,  999.0,  999.0,   -2.0,  999.0,  999.0,    3.2,   -4.3,  999.0,    2.2,    1.5,    0.3,    3.4
2011/07/05 12:05,   -5.7,   -5.7,   -7.1,   -6.0,   -4.7,   -3.8,   -4.1,   -0.2,  999.0,   -0.0,   -0.1,    0.3,    0.0,   -0.4,   -1.7,   -3.9,   -5.7,   -5.9,   -4.4,   -4.2,   -3.0,   -1.9,   -1.0,   -4.5,   -2.8,   -5.0,   -0.5,    0.5,   -0.9,   -2.3,   -3.7,   -7.5,   -9.0,  -10.8,  -11.0,   -6.4,   -7.4,   -4.5,   -3.8,   -4.0,   -6.3,   -6.9,   -6.9,   -6.6,   -6.0,   -6.3,   -7.0,   -7.3,   -3.8,   -2.1,   -1.2,   -2.7,   -1.1,   -0.9,   -0.6,   -0.4,    1.5,    2.2,   -0.7,   -2.7,    0.1,    2.3,    2.1,    1.1,  999.0,    1.6,    2.4,    3.5,    0.8,    0.2,   -0.4,   -0.2,   -1.1,   -0.8,    1.7,   -1.4,    0.4,   -1.8,   -1.0,  999.0,   -2.5,   -2.0,   -2.2,   -0.6,    0.8,   -1.7,   -1.7,    0.1,   -1.4,  999.0,    2.1,   -1.7,    1.5,   -0.5,    0.1,  999.0,  999.0,  999.0,   -3.9,    1.2,   -2.7,  999.0,   -1.2,   -1.7,   -1.1,   -1.8,  999.0,  999.0,   -1.4,  999.0,  999.0,   -1.0,   -0.8,  999.0,  999.0,  999.0,    0.7,  999.0,    8.4,    4.4
2011/07/05 12:15,   -4.9,   -5.4,   -5.6,   -5.7,   -5.6,   -4.8,   -2.1,   -3.9,   -1.6,   -0.4,   -0.7,   -1.0,   -1.0,   -1.5,   -2.5,   -3.8,   -5.1,   -6.0,   -5.9,   -6.2,   -4.9,   -4.4,   -3.2,   -0.7,   -0.9,   -0.8,   -1.1,   -1.7,   -0.4,   -1.5,   -4.0,   -7.6,   -8.2,  -12.9,  -12.4,   -7.2,   -7.8,   -5.6,   -5.4,   -6.5,   -7.3,   -7.4,   -8.1,   -8.0,   -8.2,   -6.9,   -7.0,   -7.4,   -5.3,   -5.0,   -2.9,   -2.9,   -1.1,    0.0,    1.8,  999.0,    2.7,   -1.5,    2.9,  999.0,  999.0,   -0.6,  999.0,    0.5,    2.5,    3.4,    4.5,    4.5,    2.2,    2.8,    3.3,    1.2,    2.3,    1.0,    1.8,    2.5,    4.6,  999.0,   -1.4,    0.4,   -1.0,  999.0,  999.0,  999.0,  999.0,  999.0,  999.0,    2.4,    2.7,    2.5,    2.9,    3.3,    2.3,    1.9,    3.3,  999.0,  999.0,  999.0,  999.0,    0.6,    3.7,  999.0,  999.0,  999.0,    1.9,    3.0,  999.0,  999.0,   -0.6,    0.7,  999.0,    1.5,    0.8,   -0.5,  999.0,  999.0,    2.2,    1.8,    2.4,    2.6
2011/07/05 12:25,   -4.7,   -5.1,   -5.6,   -5.8,   -5.8,   -5.3,   -4.1,   -2.5,   -0.8,   -0.6,   -0.4,   -0.1,   -0.3,    0.8,    0.2,   -2.6,   -3.8,   -5.1,   -4.5,   -3.9,   -2.8,   -3.5,   -3.0,   -1.3,   -1.0,   -1.9,  999.0,   -0.4,   -1.2,   -3.4,   -5.6,   -8.6,  -11.9,  -14.7,  -11.9,   -8.5,   -7.5,   -5.7,   -5.2,   -6.0,   -6.8,   -6.4,   -6.6,   -6.1,   -6.2,   -5.8,   -5.1,   -5.2,   -5.5,   -5.5,   -3.6,   -2.6,   -0.9,    0.7,  999.0,    1.5,  999.0,  999.0,    1.1,    1.6,  999.0,    1.6,    0.2,    5.3,    4.2,    3.6,    1.7,    1.4,    2.8,    2.2,  999.0,  999.0,   -1.7,    0.6,  999.0,  999.0,   -1.1,  999.0,   -1.5,  999.0,   -4.1,  999.0,  999.0,  999.0,  999.0,  999.0,  999.0,   -0.7,  999.0,    1.1,    1.7,    2.4,    1.9,  999.0,  999.0,  999.0,  999.0,  999.0,   -6.2,   -5.0,  999.0,    0.4,  999.0,   -2.1,  999.0,  999.0,  999.0,  999.0,  999.0,    0.7,  999.0,    0.6,    1.0,  999.0,  999.0,  999.0,   -0.3,   -2.4,  999.0,    1.1
2011/07/05 12:35,   -4.4,   -5.1,   -5.4,   -5.3,   -6.5,   -6.2,   -5.8,   -3.7,   -2.5,   -2.2,   -0.2,    0.8,   -0.5,   -0.3,   -1.1,   -1.9,   -2.9,   -4.8,   -4.6,   -4.2,   -3.2,   -2.6,   -2.8,   -2.2,   -1.3,  999.0,  999.0,   -5.8,   -4.7,   -6.0,   -8.2,  -10.9,  -14.7,  -15.5,  -12.4,   -8.9,   -7.6,   -5.2,   -5.8,   -6.7,   -7.9,   -6.4,   -6.1,   -6.0,   -6.1,   -5.7,   -4.6,   -4.2,   -4.9,   -4.5,   -3.6,   -1.3,   -0.7,   -1.6,    2.6,    4.0,    3.9,    2.0,   -2.7,  999.0,   -0.5,  999.0,   -0.8,    0.0,   -3.7,   -4.2,   -0.8,   -0.6,    2.1,    1.3,   -2.8,  999.0,    0.6,  999.0,    4.3,   -1.8,   -5.2,   -7.3,  999.0,   -7.2,   -9.4,   -9.1,   -6.0,   -2.4,   -5.0,   -6.5,   -5.1,   -3.0,   -1.1,    0.3,    2.1,  999.0,   -3.2,   -1.3,   -1.5,  999.0,   -5.6,   -5.2,   -3.7,   -3.7,  999.0,   -0.4,    1.9,   -2.0,  999.0,  999.0,  999.0,   -4.5,   -2.5,   -3.8,   -4.4,   -6.6,   -2.7,  999.0,   -3.2,   -5.7,    1.5,  999.0,  999.0,    3.5
2011/07/05 12:45,  999.0,   -8.1,  999.0,   -7.0,   -5.6,   -7.5,   -7.9,   -6.7,   -5.0,   -4.4,   -2.0,   -1.6,   -2.4,   -2.7,   -4.2,   -6.2,   -8.3,  -10.4,   -9.2,   -7.9,   -7.1,   -6.3,   -6.5,   -3.7,   -3.3,   -3.2,  999.0,   -6.0,   -5.4,   -4.4,   -7.1,   -8.3,  -13.3,  -13.9,  -12.5,   -8.3,   -7.9,   -5.1,   -6.0,   -6.4,   -6.1,   -5.3,   -5.3,   -4.8,   -4.4,   -4.1,   -3.4,   -2.8,   -2.7,   -3.2,   -2.3,   -1.1,    0.5,    1.3,    0.7,    3.0,    5.6,    3.5,    0.0,    1.3,    1.4,   -0.1,   -1.3,   -2.9,   -5.5,   -5.8,   -3.2,    1.1,    3.6,    1.1,  999.0,  999.0,    0.6,   -1.2,  999.0,  999.0,    1.7,  999.0,  999.0,  999.0,  -11.3,  -12.1,  999.0,  999.0,  999.0,  999.0,  999.0,   -4.0,   -0.5,    7.2,  999.0,    1.8,    7.6,  999.0,  999.0,  999.0,  999.0,   -9.9,   -5.5,   -4.3,   -2.3,  999.0,  999.0,   -2.0,   -3.8,  999.0,  999.0,    0.6,   -4.1,   -5.3,   -8.2,  999.0,   -8.5,   -5.4,  999.0,  999.0,   -5.3,    4.9,  999.0,  999.0
2011/07/05 12:55,  999.0,   -4.5,   -6.5,   -6.6,   -6.1,   -6.0,   -3.2,   -2.3,    0.3,   -0.0,    1.5,    1.5,    0.5,   -0.8,   -3.2,   -4.1,   -5.0,   -6.9,   -6.8,   -7.1,   -5.6,   -4.7,   -3.9,   -4.4,   -3.2,   -3.4,   -2.7,   -5.8,   -6.0,   -6.1,   -7.8,  -10.1,  -15.6,  -14.7,  -13.2,   -9.6,   -8.7,   -6.4,   -6.7,   -7.5,   -8.5,   -6.2,   -5.6,   -4.9,   -4.5,   -4.4,   -3.8,   -3.2,   -3.5,   -3.3,   -3.9,   -3.0,    0.1,    1.6,    2.6,    1.8,    2.3,    0.7,    1.0,    0.2,   -0.0,   -0.5,   -0.9,   -1.8,   -4.8,   -5.9,   -2.8,    1.6,    3.2,    1.8,   -0.6,   -1.5,  999.0,    1.3,    1.8,    1.0,   -1.5,   -3.8,   -4.8,   -7.2,   -9.9,  -11.9,  999.0,   -4.5,   -4.8,   -2.7,   -2.9,   -1.3,    1.0,    1.1,   -0.2,   -1.9,   -2.4,   -2.3,   -6.0,   -2.5,   -9.3,  -10.3,   -7.1,   -6.6,   -6.5,   -4.8,   -2.4,   -5.6,   -4.8,   -3.3,  999.0,   -2.3,   -4.5,   -6.7,   -9.6,  -10.4,   -7.9,   -9.3,   -6.9,   -6.0,   -5.1,   -7.4,  999.0,  999.0
2011/07/05 13:05,   -4.5,   -3.1,   -3.1,   -3.5,   -4.2,  999.0,   -3.0,    0.8,   -2.5,   -1.0,    1.1,    0.5,   -0.1,   -0.9,   -2.4,   -2.8,  999.0,   -5.2,   -5.0,   -5.4,   -3.5,   -2.8,   -2.5,   -2.3,   -2.3,   -2.7,   -1.6,   -4.3,   -4.5,   -4.7,   -7.3,  -10.3,  -14.9,  -13.5,  -11.2,   -9.3,   -7.5,   -6.6,   -7.0,   -6.8,   -6.0,   -6.2,   -5.6,   -4.7,   -4.2,   -3.8,   -3.2,   -2.7,   -2.3,   -2.2,   -3.5,   -2.7,   -0.8,    2.4,    3.5,    4.2,    3.6,    3.4,  999.0,    2.9,    3.2,    1.5,    1.0,   -1.2,   -1.8,   -2.2,    0.0,    3.8,    4.3,    2.9,   -0.9,   -0.8,   -2.1,    0.7,    2.7,    1.5,   -0.8,   -2.4,   -5.2,   -7.3,   -8.7,  -11.1,   -9.3,   -3.9,   -4.3,   -3.1,   -2.9,   -1.5,    1.1,    1.5,   -1.2,   -2.0,   -4.2,   -5.8,  999.0,   -6.6,  -11.2,  -12.6,   -9.5,   -7.7,   -3.9,   -3.9,   -4.6,   -7.6,   -6.6,   -5.0,   -3.4,   -3.4,   -4.3,   -5.5,   -9.1,   -9.6,   -9.1,   -8.1,   -5.5,   -8.1,   -7.1,   -8.1,  999.0,   -3.6
2011/07/05 13:15,   -6.1,   -4.4,   -6.2,   -4.2,   -4.9,   -4.7,   -4.5,   -3.2,   -2.7,   -0.9,    0.8,    0.8,    1.7,    0.7,   -0.9,   -0.3,   -2.5,   -3.2,   -3.6,   -3.9,   -3.6,   -3.4,   -4.4,   -2.4,   -3.5,   -2.9,   -5.0,   -3.3,   -4.4,   -4.3,   -6.8,  -11.6,  -14.7,  -13.8,  -11.9,  -10.2,   -7.6,   -6.2,   -6.7,   -8.3,   -7.9,   -5.8,   -5.0,   -3.8,   -4.3,   -4.1,   -2.9,   -2.4,   -1.8,   -2.4,   -3.0,   -2.4,    1.1,    3.2,    3.2,  999.0,  999.0,  999.0,    1.5,    2.9,    2.5,    2.0,    1.7,   -0.3,   -0.3,    0.0,    4.0,    6.5,    6.9,    3.8,   -0.1,  999.0,  999.0,    1.2,  999.0,    3.5,    0.8,   -0.7,   -3.5,   -6.1,   -8.2,   -9.4,   -8.2,   -3.2,   -3.2,   -3.5,   -0.3,   -0.5,    1.8,    2.8,    1.7,   -1.4,   -6.4,  999.0,  999.0,  -10.0,  -10.8,  -11.8,   -8.6,   -7.3,  999.0,  999.0,   -5.1,   -7.0,   -7.4,   -6.5,  999.0,   -4.1,   -5.0,   -6.0,  -10.3,   -8.8,  999.0,   -9.9,  999.0,  999.0,   -7.6,   -6.8,  999.0,  999.0
2011/07/05 13:25,   -5.9,   -4.9,   -7.2,   -5.9,   -2.3,   -5.4,   -3.7,   -4.0,   -4.6,   -4.8,   -1.4,   -0.1,    1.7,    2.9,   -2.5,   -3.0,   -5.2,   -6.8,   -9.5,   -9.8,   -8.4,   -8.2,   -7.1,   -5.9,   -5.6,  999.0,  999.0,   -3.5,  999.0,   -4.9,   -5.1,   -8.0,  -12.7,  -15.6,  -14.9,  -12.2,  -10.2,   -7.4,   -7.4,   -8.3,   -9.0,   -6.3,   -6.0,   -5.0,   -4.6,   -3.7,   -2.8,   -2.4,   -1.7,   -1.6,   -2.6,   -1.5,    1.0,    3.2,    3.1,  999.0,  999.0,  999.0,  999.0,    3.2,    1.6,    0.3,   -1.2,   -2.8,   -2.3,   -1.2,    0.9,    4.0,    3.9,    0.6,   -4.8,   -6.6,  999.0,  999.0,   -1.7,   -2.7,   -2.1,   -2.8,   -5.6,   -9.0,  -11.3,  -11.8,  -10.2,   -5.4,   -6.2,   -3.4,   -1.6,   -0.4,    2.6,    2.0,  999.0,  999.0,  999.0,  999.0,  999.0,  -12.0,  -11.3,  -11.6,   -9.6,   -8.1,   -6.3,  999.0,   -8.7,   -7.4,   -7.4,   -5.7,   -5.8,   -1.3,   -5.3,  999.0,   -6.9,   -6.1,   -6.8,  999.0,  999.0,   -6.6,   -7.3,   -7.9,  999.0,  999.0
2011/07/05 13:35,   -5.3,   -4.6,   -4.4,   -4.7,   -3.6,   -3.8,  999.0,   -1.3,  999.0,  999.0,  999.0,    3.0,    2.1,    2.3,   -1.1,   -2.7,   -4.1,   -6.0,  999.0,   -6.5,   -6.5,  999.0,   -2.6,   -4.3,  999.0,  999.0,  999.0,  999.0,  999.0,   -3.9,   -6.1,   -8.4,  -13.7,  -15.1,  -14.0,  -11.4,  -10.2,   -6.7,   -7.1,   -7.9,   -8.0,   -6.3,   -5.8,   -4.8,   -4.8,   -4.2,   -2.4,   -2.1,   -1.9,   -1.7,   -3.1,   -1.6,    0.7,    2.5,    3.4,    4.1,  999.0,  999.0,    3.1,    1.9,    0.5,   -0.2,   -1.1,   -3.0,   -3.2,   -2.7,    0.9,    2.7,    3.2,    1.9,   -0.1,   -4.6,   -6.8,  999.0,  999.0,   -1.1,   -2.1,   -3.5,   -7.3,   -8.3,  -12.7,  -16.1,   -8.6,   -6.1,   -6.4,   -2.3,   -1.4,    1.5,    2.3,  999.0,  999.0,  999.0,  999.0,  999.0,  999.0,  999.0,  999.0,  999.0,   -9.5,   -7.3,  999.0,  999.0,  999.0,  999.0,  999.0,   -6.4,   -6.2,   -4.6,   -5.6,   -6.4,  -10.5,  999.0,   -9.3,   -9.0,   -6.9,   -7.9,   -6.5,   -7.8,   -6.3,  999.0
2011/07/05 13:45,  999.0,   -4.6,   -5.5,   -4.3,   -5.4,   -7.2,   -7.1,   -5.3,   -2.0,    0.1,    0.5,    0.4,   -2.6,   -1.7,   -4.2,   -5.0,   -7.5,   -8.7,   -7.5,   -8.3,   -4.6,   -5.2,   -5.4,   -4.9,  999.0,  999.0,  999.0,  999.0,  999.0,   -3.5,   -6.4,  -10.5,  999.0,  -14.7,  -15.1,  -12.4,   -8.8,   -8.1,   -7.8,   -8.1,   -7.8,   -6.8,   -6.0,   -3.7,   -5.2,   -4.5,   -3.5,   -3.1,   -2.6,   -1.9,   -2.1,   -1.8,    0.8,    2.7,    3.2,    2.9,  999.0,  999.0,    2.1,    2.2,   -0.3,   -1.6,   -2.9,   -2.9,   -3.5,   -4.1,   -0.2,    2.1,    4.0,    3.1,    1.5,   -3.3,   -6.9,   -4.7,   -3.6,    0.6,   -2.4,   -3.9,   -6.4,   -8.2,  -10.5,  -12.0,   -8.2,   -2.4,   -4.7,   -2.2,   -1.1,    1.0,    3.2,  999.0,   -2.7,  999.0,   -4.7,  999.0,   -2.0,  999.0,   -8.3,  -10.0,   -9.9,   -6.2,   -5.8,  999.0,  999.0,   -8.0,   -6.0,   -6.2,   -6.4,   -6.6,   -5.6,   -8.7,  -12.2,  -11.7,   -9.9,   -9.3,   -8.5,   -6.7,   -5.9,   -7.4,   -6.3,    4.5
2011/07/05 13:55,   -6.6,   -6.3,   -4.7,   -2.0,   -5.3,   -4.1,   -2.9,   -0.6,    2.0,    3.1,    4.4,    2.9,    1.2,    0.6,   -0.2,   -3.0,   -4.7,   -5.4,   -6.2,   -5.6,   -4.4,   -5.0,   -4.2,   -4.7,  999.0,   -3.8,   -3.0,   -4.6,   -3.6,   -4.1,   -7.2,   -9.3,  -13.8,  -15.8,  -13.5,   -9.3,   -8.7,   -8.3,   -8.5,   -8.8,   -8.3,   -6.4,   -5.3,   -4.8,   -5.1,   -4.7,   -4.6,   -2.2,   -1.6,   -0.1,   -0.8,   -0.4,    2.5,    2.7,    3.9,    4.1,    4.1,    3.7,    3.2,    1.8,    1.0,    0.1,   -0.4,   -0.6,   -2.3,   -1.0,    1.9,    5.7,    6.5,    4.9,    2.0,    0.4,   -3.5,   -5.0,  999.0,   -3.0,   -2.3,   -4.1,   -5.5,   -8.2,  -11.3,  -13.6,  -11.7,   -5.6,   -4.9,   -4.4,   -2.1,   -0.2,    1.0,    1.5,    0.2,  999.0,  999.0,   -2.3,    1.7,  999.0,  -10.7,  -11.1,  -10.4,   -7.5,   -6.0,   -6.2,  999.0,  999.0,  999.0,   -6.6,   -7.2,   -7.1,   -6.4,   -9.3,  -11.6,  -12.3,  -10.8,  -10.0,   -6.9,   -3.3,   -6.1,   -7.3,  999.0,  999.0
2011/07/05 14:05,   -5.9,   -6.1,   -6.3,   -5.5,   -5.1,   -4.9,   -5.0,   -4.3,   -2.0,    0.6,    4.2,    2.8,    4.2,    2.4,    0.7,   -2.5,   -4.1,   -4.3,   -4.9,   -4.7,   -5.6,   -5.3,   -6.9,   -4.9,   -4.5,   -3.5,  999.0,   -3.5,   -4.5,   -4.8,   -7.1,  -10.2,  -14.3,  -15.7,  -12.1,   -9.2,   -8.5,   -7.9,   -8.4,   -8.5,   -6.7,   -6.0,   -4.6,   -5.2,   -5.8,   -5.1,   -4.2,   -2.0,   -1.4,   -0.6,    0.0,    1.1,    2.1,    3.9,    5.2,    4.0,    3.1,    2.1,   -0.6,    0.6,    0.6,    0.9,    0.9,    0.7,    1.6,    2.1,    5.7,    7.9,    8.8,    8.4,  999.0,    3.0,   -1.6,   -2.5,  999.0,   -3.3,   -3.7,   -4.8,   -5.9,   -9.0,  -12.7,  -15.6,  -11.8,   -9.8,   -8.2,   -7.0,   -2.7,   -1.7,    1.1,    0.9,  999.0,  999.0,  999.0,  999.0,  999.0,  999.0,  999.0,  -11.0,   -9.1,   -8.2,   -5.3,   -6.1,  999.0,   -6.3,   -5.4,   -6.2,   -6.9,   -7.6,   -8.3,   -9.4,  -10.9,  -12.3,   -9.7,   -9.2,   -7.3,   -6.0,   -5.4,   -7.6,   -5.5,  999.0
2011/07/05 14:15,   -5.6,   -6.2,   -6.6,   -4.9,   -3.8,   -3.2,   -4.0,   -4.3,   -0.7,   -0.2,   -1.0,    0.5,    1.5,    0.3,    0.1,   -1.6,   -3.6,   -4.7,   -4.5,   -3.4,   -4.8,   -3.9,   -3.6,   -3.1,   -2.3,   -2.9,   -4.3,   -3.5,   -3.2,   -4.5,   -6.0,   -8.3,  -12.4,  -13.5,  -10.3,   -8.2,   -7.3,   -7.1,   -7.6,   -7.7,   -6.2,   -5.6,   -5.4,   -5.2,   -5.1,   -4.5,   -2.2,   -1.6,  999.0,  999.0,   -0.7,    0.9,    2.8,    3.5,    3.6,    5.6,    1.8,    1.7,    0.2,   -0.3,   -0.1,    1.0,    1.6,    2.9,    2.5,    2.5,    5.0,    7.8,    8.4,    6.3,    4.6,    1.4,   -3.1,   -4.2,   -4.6,   -2.2,   -3.2,   -3.9,   -5.6,   -7.7,  -10.8,  -13.7,  -12.6,   -8.6,   -7.3,   -8.0,   -6.4,   -3.1,   -0.4,    0.6,  999.0,  999.0,  999.0,  999.0,  999.0,  999.0,   -8.0,  -10.9,   -9.0,   -6.6,   -5.6,   -6.2,  999.0,  999.0,   -9.2,   -8.2,   -8.5,   -9.8,  -11.9,  -11.4,  -12.0,  -13.0,  -11.2,   -8.8,   -8.4,   -5.4,   -5.2,   -6.7,   -4.8,  999.0
2011/07/05 14:25,   -3.4,   -2.6,   -4.9,   -4.8,   -6.5,   -6.6,   -9.2,   -6.3,   -5.0,   -1.6,    2.2,    1.3,    0.5,   -0.5,   -1.9,   -3.5,   -5.4,   -4.8,   -5.4,   -3.3,   -5.4,   -6.8,   -6.2,   -6.5,   -5.6,   -5.4,   -5.8,  999.0,   -3.0,   -5.0,   -5.9,   -8.6,  -10.7,  -11.9,  -11.1,   -8.4,   -6.8,   -7.1,   -7.1,   -6.1,   -5.6,   -5.4,   -5.9,   -5.2,   -4.2,   -3.1,   -2.0,  999.0,   -0.0,  999.0,  999.0,    3.2,    4.2,    4.4,    4.1,    1.8,  999.0,    1.2,    0.2,   -1.1,   -1.4,   -2.5,   -0.5,   -0.2,  999.0,    1.2,    3.4,    4.6,    7.0,    2.7,   -1.4,   -2.9,   -3.9,  999.0,   -4.9,  999.0,   -4.4,   -3.3,   -6.2,   -8.0,  -10.5,  -14.8,  -11.7,  999.0,   -5.3,   -6.8,   -7.5,   -2.6,   -2.3,    0.0,  999.0,  999.0,  999.0,  999.0,  999.0,  999.0,  999.0,  -11.9,  -11.5,   -8.5,   -6.8,  999.0,   -7.2,   -7.3,  999.0,   -9.3,   -9.0,  -10.0,  -11.2,  -11.2,  -10.6,  -12.8,  -11.1,   -6.9,   -7.6,   -4.4,   -5.7,   -7.1,   -4.9,  999.0
2011/07/05 14:35,    3.4,  999.0,  999.0,    0.3,  999.0,  999.0,  999.0,  999.0,  999.0,  999.0,  999.0,    4.0,   -1.6,   -0.8,   -2.3,   -3.4,   -4.2,   -5.6,   -6.0,   -5.0,   -5.4,   -6.5,   -6.3,   -4.6,  999.0,   -4.3,   -4.7,   -3.4,   -2.4,   -3.6,   -5.3,   -8.1,  999.0,  -11.1,   -9.5,   -8.1,   -6.7,   -6.5,   -7.3,   -6.8,   -5.4,   -5.8,   -5.6,   -5.7,   -3.9,   -3.8,   -2.5,  999.0,  999.0,    0.2,    0.7,    2.4,    4.1,    4.1,    5.2,    5.4,    1.9,    0.4,   -1.1,   -1.6,   -2.1,   -2.6,   -2.9,   -2.5,   -2.0,   -1.9,   -0.3,    3.4,    4.7,    0.8,   -2.6,   -5.6,   -4.2,   -2.5,   -3.3,   -3.8,   -2.6,   -1.3,   -3.8,   -6.7,   -9.3,  -12.1,  -11.1,  999.0,   -7.6,   -6.7,   -6.0,   -6.6,   -3.0,   -2.5,   -1.5,   -3.1,  999.0,   -7.2,  999.0,   -6.7,  -11.7,  -14.3,  -13.6,   -8.9,   -7.6,   -7.2,  999.0,   -8.8,  999.0,   -9.6,  -10.0,   -9.9,  -12.3,  -12.8,  -11.9,  -11.2,   -9.0,   -7.5,   -6.9,   -4.1,   -4.3,   -5.9,   -5.6,  999.0
2011/07/05 14:45,    3.7,    3.0,   -3.4,    4.0,   -3.3,   -4.8,  999.0,   -7.7,   -6.0,    1.8,    3.8,    0.2,    1.4,   -0.9,   -4.7,   -5.9,   -5.6,   -8.0,   -5.2,  -11.7,  -10.8,   -9.3,  999.0,  999.0,  999.0,   -6.4,  999.0,   -4.8,  999.0,   -6.9,   -7.5,  999.0,  999.0,  -13.4,   -9.5,   -8.0,   -6.8,   -6.6,   -6.0,   -6.1,   -4.8,   -4.8,   -4.9,   -4.9,   -3.4,   -2.2,   -1.8,   -0.8,    0.1,   -0.4,  999.0,    2.0,    4.6,    5.0,    4.6,  999.0,    2.7,    2.6,    1.2,   -1.4,   -2.2,   -2.3,   -0.6,   -0.9,   -2.1,  999.0,   -3.5,   -1.4,    1.9,   -0.4,   -1.4,   -4.1,   -4.4,  999.0,   -1.6,   -3.5,  999.0,   -1.6,   -2.9,   -7.1,   -8.8,  999.0,  999.0,  999.0,  999.0,   -6.3,   -4.8,   -2.5,   -0.7,   -1.5,  999.0,  999.0,  999.0,  999.0,  999.0,   -7.4,  -12.3,  -13.1,  -12.7,   -4.9,   -5.2,   -7.9,  999.0,   -8.3,  -10.1,   -8.6,   -9.6,  -10.6,   -9.9,  -11.9,   -9.6,   -9.6,   -7.1,   -4.1,   -5.2,  999.0,   -2.0,   -4.0,   -2.8,   -0.5
2011/07/05 14:55,   -2.8,    3.1,  999.0,    2.0,  999.0,  999.0,  999.0,  999.0,  999.0,  999.0,  999.0,  999.0,  999.0,  999.0,  999.0,    3.2,   -1.7,   -5.9,   -2.1,   -5.3,   -3.0,   -4.5,   -2.9,   -3.1,  999.0,  999.0,  999.0,  999.0,  999.0,  999.0,   -2.2,   -3.6,  999.0,   -9.3,  -10.6,  999.0,   -5.0,   -4.4,   -4.1,   -4.8,   -4.3,   -2.6,   -3.6,   -3.6,   -2.8,   -1.9,   -1.1,   -0.3,  999.0,    2.6,    2.4,    3.0,    4.1,    5.4,    6.3,    7.0,    4.4,    3.6,    2.1,    0.6,   -1.1,   -1.1,   -1.3,   -1.7,   -1.9,   -2.0,   -2.0,   -2.5,    0.5,    1.0,   -0.7,   -3.3,   -1.9,   -1.2,   -2.8,   -4.8,   -2.2,   -2.8,   -5.3,   -7.5,   -9.6,  -11.0,  999.0,  999.0,   -7.5,   -4.4,   -6.7,   -7.0,   -4.4,   -2.3,   -0.8,  999.0,  999.0,  999.0,  999.0,   -9.4,  -12.7,  -16.6,  -15.4,   -7.0,  999.0,  999.0,  999.0,  999.0,  999.0,  999.0,  999.0,   -9.8,  -10.1,  999.0,   -7.0,  -11.5,  999.0,  999.0,  999.0,  999.0,  999.0,  999.0,  999.0,  999.0
2011/07/05 15:05,   -3.6,   -2.3,   -4.5,   -4.4,   -2.3,   -3.4,   -1.6,    2.2,  999.0,  999.0,  999.0,   -2.9,  999.0,  999.0,  999.0,   -6.3,   -5.7,  999.0,   -4.6,  999.0,  999.0,  999.0,  999.0,  999.0,  999.0,  999.0,  999.0,  999.0,  999.0,  999.0,   -4.5,  999.0,  999.0,  999.0,   -8.1,  999.0,  999.0,   -5.1,   -3.7,   -4.0,   -3.3,   -2.2,   -2.2,   -3.1,   -2.7,   -1.6,   -0.2,   -0.5,    0.8,    0.9,  999.0,    3.3,    4.0,    4.8,    6.1,    6.5,    8.3,    4.7,    4.0,    2.6,    1.4,    0.3,    0.2,    0.1,   -0.1,   -0.1,   -0.8,   -2.0,   -1.2,    0.5,   -2.4,  999.0,   -4.3,   -3.6,   -5.4,   -4.7,   -2.5,   -5.4,   -7.3,  -11.5,  -11.0,  999.0,  999.0,  999.0,   -8.0,   -7.1,   -9.2,  -10.3,   -5.8,   -5.1,   -4.0,  999.0,   -7.7,  999.0,  999.0,  999.0,  999.0,  -14.8,  -13.7,  999.0,   -6.6,  999.0,  999.0,  999.0,  999.0,  999.0,   -8.9,  -10.8,   -9.8,   -9.2,  999.0,   -7.5,  999.0,   -2.7,   -4.2,  999.0,  999.0,   -4.9,  999.0,  999.0
2011/07/05 15:15,   -0.7,   -0.3,   -2.0,   -2.7,    0.6,   -0.1,   -1.6,    2.0,   -0.4,   -0.7,   -1.2,   -0.7,    1.5,    2.6,    2.7,    1.3,   -1.3,   -5.5,   -7.2,   -7.3,  999.0,  999.0,  999.0,  999.0,   -5.7,  999.0,  999.0,  999.0,  999.0,   -0.9,   -1.1,  999.0,  999.0,  999.0,  999.0,   -5.6,   -4.4,   -4.6,   -4.1,   -4.2,   -3.1,   -2.7,   -4.7,   -4.5,   -2.1,   -2.0,   -0.7,    0.9,    1.2,  999.0,  999.0,    2.9,    4.0,    4.9,    6.2,    5.6,    5.0,    4.9,    2.5,    1.7,    0.4,    0.3,    1.1,    0.8,    0.3,   -0.0,   -1.5,   -1.5,   -1.3,   -0.3,   -2.2,   -4.7,   -4.4,   -2.9,   -5.3,   -5.1,   -3.3,   -6.3,   -7.1,   -9.0,   -9.7,  999.0,  -11.4,  -11.9,   -9.1,   -8.9,   -7.5,   -8.3,   -5.4,   -4.7,   -3.7,   -3.9,   -6.9,  999.0,  999.0,  999.0,  -15.0,  -15.8,  -14.4,  -10.0,  999.0,   -7.9,  999.0,  999.0,  999.0,  -10.4,  -10.9,  -12.4,  -11.9,   -9.7,   -8.6,   -9.1,   -8.0,   -2.4,   -3.6,   -4.3,  999.0,   -4.8,   -3.8,  999.0
2011/07/05 15:25,   -4.5,   -6.8,   -6.4,   -2.9,   -3.7,   -3.9,   -2.8,   -2.2,   -3.9,   -2.6,   -1.6,    2.2,    3.0,    2.0,    0.9,   -0.6,   -0.8,   -1.4,   -2.0,   -2.3,   -5.0,   -6.0,   -5.2,   -3.7,   -2.1,  999.0,  999.0,  999.0,   -4.1,   -3.1,   -6.0,  999.0,  999.0,  -14.0,  999.0,  999.0,   -8.4,   -8.1,   -8.2,   -8.3,   -7.5,   -8.1,   -7.5,   -7.1,   -5.2,   -3.7,   -2.5,   -1.6,    0.4,    0.9,    2.4,    3.1,    3.3,    4.9,    5.0,    4.9,    4.0,    4.3,    2.6,    1.2,    1.4,    0.4,    1.5,    1.5,    1.5,   -0.2,   -1.3,   -2.0,   -1.2,    0.5,   -2.7,   -4.7,   -5.3,   -5.1,   -5.7,   -6.0,   -4.0,   -5.7,   -7.5,   -9.5,  -10.7,  -10.0,   -9.9,  999.0,   -9.3,   -4.6,  999.0,   -5.8,   -2.1,   -3.8,   -2.9,   -1.7,  999.0,   -5.4,  999.0,  999.0,  -10.4,  -13.8,  -12.6,  -11.5,   -5.0,   -5.6,  999.0,  999.0,   -8.0,   -8.3,  -10.6,  -12.2,  -13.2,  -11.7,   -8.9,   -9.1,   -9.1,   -3.9,   -5.5,   -5.2,   -3.5,   -4.0,   -3.4,  999.0
2011/07/05 15:35,   -3.1,   -2.2,   -2.0,   -0.9,   -0.7,   -1.6,   -1.3,   -1.3,   -0.9,    0.3,   -0.1,    0.5,   -1.4,   -2.3,   -2.9,   -3.2,   -5.0,   -6.5,   -7.8,   -6.5,   -7.3,   -7.2,  -10.3,  -10.1,   -7.8,  999.0,  999.0,  999.0,   -3.5,   -3.8,   -3.8,   -4.8,  999.0,  -11.5,   -9.4,  999.0,   -6.1,   -6.3,   -5.8,   -6.4,   -4.6,   -5.3,   -5.9,   -5.3,   -4.3,   -3.3,   -2.8,   -1.7,   -0.8,    0.9,    1.3,    2.4,    3.5,    3.7,    4.1,    3.4,    3.2,    1.8,    0.8,    0.7,   -0.1,    1.1,    2.5,    2.0,    0.6,    0.4,   -1.6,   -2.8,   -0.6,   -0.4,   -3.1,   -5.8,   -5.8,   -5.4,   -6.7,   -7.1,   -5.0,   -5.8,   -7.7,   -9.6,  -10.5,  -12.3,  -13.4,  999.0,  -10.2,  -13.3,  -11.5,   -8.8,   -4.9,   -4.3,   -5.3,   -2.2,   -2.4,   -5.8,  999.0,   -8.6,  -11.1,  -12.0,  -12.4,  -10.5,   -4.9,  999.0,   -5.6,   -7.2,   -8.7,   -8.0,  -10.4,  -12.9,  -12.1,  -10.4,   -7.4,   -8.9,   -9.1,   -2.7,   -4.1,   -4.6,   -5.8,   -5.9,   -2.4,   -2.0
2011/07/05 15:45,   -2.3,    0.3,    0.6,    1.5,    2.4,    1.3,    1.5,    2.9,    1.8,   -1.0,   -1.4,   -0.8,   -1.5,   -1.9,   -3.2,   -3.3,   -5.4,   -5.4,   -7.2,   -7.5,   -7.4,   -6.4,   -4.6,   -6.8,   -4.9,  999.0,  999.0,  999.0,  999.0,   -3.9,   -3.1,   -4.0,  999.0,   -9.7,   -8.7,  999.0,   -7.9,   -6.6,   -7.0,   -6.2,   -5.4,   -6.1,   -5.5,   -6.2,   -4.9,   -4.0,   -3.5,   -2.5,   -1.7,   -0.5,    0.3,    1.6,    2.8,    2.7,    2.8,    3.1,  999.0,    1.1,    0.7,    0.3,    1.1,    1.9,    3.1,    2.2,    0.6,   -2.1,   -3.0,   -3.0,   -2.3,   -1.1,   -4.3,   -5.0,   -5.8,   -5.9,   -7.4,   -5.7,   -5.5,  999.0,  999.0,  -10.8,  -11.1,   -8.1,  999.0,  999.0,  -10.6,  -12.3,   -9.8,  -10.2,   -4.7,   -4.7,   -3.9,   -2.8,   -4.6,  999.0,  999.0,  -10.5,  -13.1,  -15.0,  -14.2,  -12.9,   -7.5,   -4.8,   -5.1,   -7.1,   -7.8,   -8.2,   -9.1,  -12.5,  -12.8,  -11.2,   -8.8,   -9.0,  -10.0,  999.0,   -3.5,   -4.5,   -4.1,   -6.1,   -3.8,  999.0
2011/07/05 15:55,   -3.6,   -1.9,   -1.5,   -3.5,    0.2,    0.3,   -5.6,   -2.7,   -0.6,  999.0,   -3.7,   -2.8,   -1.6,   -5.1,   -4.8,   -4.7,   -5.2,   -6.9,   -8.9,   -9.2,   -9.2,  -10.0,   -9.3,  -11.5,  999.0,  999.0,  999.0,  999.0,   -6.6,   -7.1,  999.0,  999.0,  999.0,  -13.2,  999.0,  -11.4,   -7.9,   -8.6,   -9.3,   -8.2,   -7.6,   -8.1,   -6.6,   -6.1,   -5.1,   -5.4,   -4.7,   -3.4,   -2.3,   -0.6,    0.2,    0.7,    0.7,    0.6,   -0.7,   -1.9,   -2.5,   -1.2,    0.7,    1.8,    1.9,    2.1,    2.5,    1.3,    0.5,   -0.0,   -0.2,   -0.0,   -0.2,   -0.6,   -4.9,   -4.2,   -5.5,   -5.9,   -7.3,   -5.8,   -5.4,   -7.1,   -9.5,  999.0,  -12.2,  999.0,  999.0,  999.0,   -7.0,  999.0,  999.0,   -9.8,   -7.8,   -4.5,   -4.3,   -4.1,  999.0,   -1.8,  999.0,  999.0,  999.0,  -18.1,  -13.1,  -11.0,   -7.9,  999.0,  999.0,   -6.6,   -8.4,   -8.7,   -6.2,   -9.6,  -10.0,   -7.0,   -6.2,   -6.7,   -7.9,  999.0,   -4.5,   -4.5,  999.0,   -5.8,  999.0,  999.0
2011/07/05 16:05,   -2.6,   -2.8,   -3.5,   -4.2,   -5.3,   -4.0,   -3.7,   -3.0,   -4.6,   -3.2,   -0.5,   -0.9,   -1.7,   -2.9,   -2.8,   -3.1,   -3.6,   -2.6,   -4.5,   -5.4,   -7.7,   -7.9,   -7.4,   -7.7,   -7.0,  999.0,  999.0,  999.0,  999.0,   -2.6,   -4.9,   -4.7,  999.0,  -10.0,  999.0,  999.0,   -7.6,   -7.9,   -9.0,   -7.7,   -8.3,   -8.9,   -7.7,   -6.8,   -6.6,   -6.6,   -5.7,   -4.4,   -3.2,   -2.4,   -1.0,   -1.2,   -1.5,   -2.9,   -4.2,   -3.1,   -1.7,   -1.0,    0.2,    1.2,    2.7,    0.6,   -1.6,   -2.1,   -0.8,   -2.1,   -1.9,   -1.9,   -1.1,   -2.1,  999.0,   -3.2,   -1.9,   -4.1,   -6.2,  999.0,   -3.8,   -5.2,   -6.2,  999.0,  999.0,  999.0,  999.0,  999.0,   -3.4,  999.0,  -13.5,   -8.1,   -7.1,   -3.8,   -2.6,   -2.6,   -3.5,  999.0,  999.0,  999.0,  999.0,  -15.3,  -11.3,   -6.3,  999.0,  999.0,  999.0,   -7.6,   -9.5,   -9.3,   -9.2,  -13.8,  -12.8,  -11.9,   -8.1,  -10.4,   -8.9,  999.0,   -3.1,   -3.9,  999.0,   -4.1,  999.0,  999.0
2011/07/05 16:15,   -2.7,   -2.5,   -2.7,   -3.0,   -3.5,   -2.8,   -2.2,   -2.5,   -1.6,   -1.4,   -0.4,  999.0,  999.0,   -6.9,   -7.7,   -7.0,   -6.6,   -6.9,   -7.9,   -7.6,  999.0,   -7.3,   -8.3,   -7.5,   -7.7,  999.0,  999.0,  999.0,  999.0,  999.0,   -5.6,  999.0,  999.0,  999.0,  999.0,  999.0,   -8.0,   -9.2,   -9.9,   -9.2,  -10.1,   -8.4,   -6.9,   -6.8,   -8.2,   -6.4,   -4.3,   -2.7,   -2.0,   -2.9,   -3.0,   -3.3,   -4.1,   -4.6,   -5.6,   -4.5,   -2.9,    0.2,    0.4,    0.9,   -1.2,   -1.6,   -1.7,   -3.7,   -2.7,   -3.6,   -3.3,   -2.1,   -3.2,   -3.6,   -6.8,   -2.8,   -2.9,   -5.4,   -7.5,   -2.6,   -3.3,   -6.1,   -5.3,  999.0,   -7.7,  999.0,  999.0,   -1.3,   -6.4,   -7.6,   -9.7,   -9.2,   -5.9,   -0.7,   -2.8,  999.0,  999.0,  999.0,  999.0,  999.0,  -12.6,  -11.9,  -10.9,  999.0,  999.0,  999.0,   -6.2,   -7.5,   -8.3,   -7.6,   -9.9,  -11.7,  -14.7,  999.0,   -8.6,   -9.1,   -8.2,  999.0,   -3.4,  999.0,  999.0,   -5.1,  999.0,  999.0
2011/07/05 16:25,   -5.6,   -5.1,   -4.9,   -4.0,   -4.4,   -3.7,   -0.8,   -1.8,   -1.6,    1.0,    1.1,   -3.1,   -4.8,   -8.2,   -4.7,   -4.1,   -5.8,   -4.8,   -6.1,  999.0,   -6.3,   -5.9,   -5.4,   -5.6,   -6.4,  999.0,  999.0,  999.0,   -7.5,   -4.1,   -3.2,   -6.3,  999.0,   -8.2,   -8.8,   -7.2,   -7.0,   -8.0,   -9.5,   -8.1,   -8.5,   -7.6,   -6.0,   -5.7,   -6.4,   -5.8,   -4.5,   -3.5,   -3.0,   -3.2,   -4.0,   -4.4,   -5.1,   -6.1,   -6.9,   -4.9,   -4.2,   -2.7,   -1.8,   -1.6,   -1.3,   -1.8,   -1.7,   -2.3,   -4.3,   -3.9,   -4.4,   -3.0,   -2.9,   -3.9,   -5.5,   -2.7,   -3.5,   -6.3,   -8.0,   -6.6,   -4.8,   -5.5,   -6.4,  999.0,   -9.1,   -9.0,  -11.2,   -6.0,  999.0,   -9.9,  -11.7,   -6.6,   -5.2,   -1.8,   -3.0,   -2.9,  999.0,  999.0,  999.0,  999.0,  -12.3,  -14.1,  -10.6,  999.0,  999.0,  999.0,  999.0,   -9.1,   -8.0,   -9.5,  -12.2,  -14.8,  -14.2,  -13.1,   -8.8,   -9.3,   -7.8,   -4.2,   -3.8,   -3.9,   -4.8,   -4.6,  999.0,  999.0
2011/07/05 16:35,   -5.2,   -3.0,   -0.7,   -1.0,   -1.2,   -1.0,    0.5,    3.1,    1.7,    0.3,   -1.4,   -2.9,   -5.8,   -7.2,   -5.3,   -4.1,   -3.3,   -3.8,   -3.8,   -5.7,   -6.0,   -6.1,   -5.6,   -5.5,   -6.7,  999.0,  999.0,  999.0,  999.0,   -2.3,   -3.3,  999.0,  999.0,  999.0,  999.0,   -0.7,   -5.2,   -5.7,   -7.0,   -5.5,   -5.6,   -5.3,   -5.9,   -3.8,   -3.2,   -2.9,   -3.5,   -2.9,   -1.9,   -1.3,   -1.6,   -3.2,   -3.2,   -4.0,   -4.3,   -2.4,   -1.4,   -0.4,   -0.2,    1.0,    0.8,    2.2,  999.0,   -0.9,   -0.3,   -3.3,   -2.3,   -3.7,   -3.6,   -3.4,   -5.6,   -4.7,   -5.1,   -6.5,   -9.0,   -6.2,   -7.6,   -6.9,   -8.9,   -8.5,   -8.3,  -11.3,  999.0,  999.0,  999.0,  -12.9,  999.0,  999.0,   -4.5,   -3.6,   -5.4,  999.0,  999.0,  999.0,  999.0,  999.0,  -16.8,  -17.0,  -12.6,  999.0,  999.0,  999.0,   -8.3,  -10.8,   -7.4,   -7.5,  999.0,  -11.5,  -11.5,   -9.7,   -7.3,   -7.1,   -6.4,  999.0,   -0.9,   -2.8,   -2.8,  999.0,  999.0,  999.0
2011/07/05 16:45,   -4.7,   -4.4,   -1.3,   -1.5,    0.6,    1.5,    2.0,    1.1,    0.4,   -1.7,   -2.5,   -3.8,   -5.9,   -6.4,   -4.5,   -5.9,   -5.1,   -4.0,   -4.8,   -6.6,   -6.1,   -5.3,   -4.9,   -6.2,   -3.8,  999.0,  -16.9,  999.0,   -3.1,   -3.8,   -4.5,  999.0,  999.0,  999.0,  999.0,   -5.4,   -5.4,   -4.7,   -5.9,   -6.6,   -5.7,   -5.9,   -6.4,   -5.3,   -3.1,   -3.3,   -4.2,   -2.7,   -1.8,   -1.5,   -1.8,   -1.7,   -2.6,   -3.7,   -4.5,   -5.4,   -1.0,   -0.1,    0.1,    0.1,    0.2,   -0.1,   -0.2,   -1.2,   -1.4,   -2.8,   -4.1,   -7.5,   -6.7,   -5.4,   -7.3,  999.0,   -6.0,   -7.5,   -8.2,   -8.6,   -6.2,  999.0,  999.0,  999.0,  999.0,  -14.0,  999.0,  999.0,  999.0,   -8.7,  -14.8,  999.0,   -2.9,   -4.3,   -4.3,   -6.9,  999.0,  999.0,  999.0,  999.0,  -17.3,  -16.1,  -12.2,  999.0,  999.0,  999.0,   -8.7,   -8.8,  999.0,  999.0,  -10.1,  -12.8,  -12.8,  999.0,  -10.5,   -7.8,   -7.7,  999.0,   -1.6,   -2.2,   -5.3,   -4.1,  999.0,  999.0
2011/07/05 16:55,   -4.4,   -2.6,   -2.3,    0.1,    1.7,    0.9,    0.0,   -0.0,    0.6,   -0.7,   -2.1,   -4.1,   -4.5,   -6.2,   -4.9,   -4.5,   -5.4,   -5.9,   -7.1,   -7.9,   -7.7,   -6.2,   -7.5,   -7.4,   -7.4,   -5.7,  999.0,  999.0,   -5.3,   -4.5,   -4.5,   -3.6,  999.0,  999.0,   -6.1,   -4.1,   -5.2,   -5.4,   -6.3,   -6.9,   -8.0,   -6.9,   -6.6,   -6.4,   -7.8,   -5.0,   -6.5,   -4.0,   -3.8,   -2.8,   -4.0,   -4.2,   -4.6,   -5.1,   -5.9,   -4.9,   -4.2,   -2.5,   -1.3,   -1.6,   -3.3,   -2.9,   -4.8,   -5.3,   -6.9,   -6.5,   -7.5,   -8.0,   -8.1,   -9.0,   -8.2,   -5.3,   -6.4,   -8.4,   -8.7,  999.0,   -4.9,   -8.7,   -9.4,   -8.5,  999.0,  -12.2,  -14.6,  999.0,  999.0,  -11.2,  -14.7,  999.0,  999.0,   -5.5,   -4.2,   -6.9,   -6.7,  999.0,  999.0,  999.0,  -18.7,  -16.3,  -11.4,  999.0,   -4.5,   -6.5,   -7.8,   -8.8,  999.0,  999.0,   -9.2,  -10.8,  999.0,  -11.5,   -8.4,   -6.8,   -5.8,  999.0,  999.0,   -2.6,    0.8,   -2.8,  999.0,  999.0
2011/07/05 17:05,   -4.7,   -3.2,   -1.8,   -2.0,   -2.7,   -0.4,   -0.1,   -0.6,   -1.3,   -0.8,   -2.9,   -5.9,   -7.3,   -7.2,   -6.0,  999.0,   -5.1,   -6.0,  999.0,  999.0,   -8.4,   -9.3,  999.0,  999.0,  999.0,  999.0,   -0.6,   -0.0,  999.0,  999.0,  999.0,  999.0,  999.0,  999.0,   -5.3,   -5.7,   -6.0,   -5.7,   -7.3,   -8.1,   -9.1,   -8.5,   -7.7,   -6.9,   -5.4,   -5.3,   -4.5,   -4.2,   -3.7,   -3.6,   -3.8,   -4.1,   -3.9,   -4.8,   -5.2,   -4.7,   -4.3,   -3.5,   -4.0,   -4.3,   -5.3,   -6.1,   -6.2,   -6.3,   -6.3,   -6.8,   -6.8,   -6.5,   -7.4,   -8.0,   -8.7,   -7.3,   -5.7,   -6.7,   -8.3,   -4.2,   -5.3,   -6.8,   -7.9,  999.0,  999.0,  -12.6,  -14.4,   -5.8,  999.0,  -10.4,  -12.3,   -9.1,   -6.6,   -4.1,   -4.1,   -5.5,   -6.8,  999.0,  999.0,  999.0,  -19.7,  -17.4,  -18.9,  999.0,  999.0,  999.0,   -7.1,   -8.0,   -7.2,  -10.5,  -10.0,  -11.4,  -14.1,  -11.5,   -9.4,   -8.1,   -3.9,  999.0,  999.0,  999.0,   -1.6,   -1.9,  999.0,  999.0
2011/07/05 17:15,   -4.4,   -6.1,   -2.4,   -1.0,    0.9,   -1.7,    1.6,    8.9,    1.9,   -0.4,   -1.5,   -4.9,   -5.4,   -5.4,   -4.1,   -4.8,   -6.0,  999.0,  999.0,  999.0,  999.0,  999.0,  999.0,  999.0,   -0.1,  999.0,  999.0,  999.0,   -4.4,   -4.5,   -6.2,   -6.2,  999.0,  999.0,  999.0,   -7.0,   -6.9,   -7.1,   -8.8,   -9.9,   -9.6,   -9.8,   -9.1,   -7.7,   -6.9,   -5.8,   -5.7,   -4.4,   -4.5,   -3.8,   -4.2,   -4.8,   -4.8,   -5.4,   -4.4,   -3.2,   -3.0,   -2.9,   -3.0,   -2.5,   -3.3,   -4.1,   -4.6,   -5.2,   -5.5,   -6.7,   -6.9,   -8.3,   -9.8,  -10.0,   -8.3,   -6.0,   -6.2,   -7.1,   -6.2,   -2.8,   -2.9,   -5.9,   -7.2,   -6.2,   -8.4,  -10.8,   -8.2,   -4.7,   -0.9,  999.0,   -9.1,   -4.5,   -5.4,   -4.1,   -3.5,   -2.7,   -4.9,   -7.9,  999.0,  999.0,  999.0,  -19.1,  -18.3,  -13.9,  999.0,   -6.6,   -8.7,  -10.4,  -10.1,   -8.1,   -9.0,  -10.8,  -13.3,  -12.6,   -8.9,   -8.1,   -4.0,   -2.1,   -2.0,   -2.0,  999.0,   -4.5,  999.0,  999.0
2011/07/05 17:25,   -4.3,   -3.7,   -1.9,   -0.5,   -1.0,   -0.2,    0.2,    0.3,   -0.9,   -2.1,   -3.9,   -7.1,   -7.5,   -5.6,   -5.7,   -5.8,  999.0,  999.0,  999.0,  999.0,  999.0,  999.0,  999.0,  999.0,  999.0,  999.0,  999.0,  999.0,  999.0,  999.0,   -6.7,   -6.2,   -4.6,  999.0,  999.0,   -5.7,   -7.0,   -6.2,   -8.1,   -9.3,   -9.0,   -9.1,   -8.2,   -7.5,   -7.6,   -6.9,   -6.1,   -4.8,   -4.7,   -3.9,   -4.2,   -4.3,   -4.8,   -6.0,   -4.9,   -5.1,   -3.7,   -2.0,   -1.8,   -2.4,   -4.8,   -2.8,   -4.5,   -5.0,   -5.5,   -4.9,   -4.6,   -6.9,   -6.0,   -7.5,   -7.2,  999.0,   -6.4,   -5.3,   -3.9,   -3.8,   -3.8,   -7.5,   -8.1,   -7.4,  999.0,  -11.2,  -13.1,  999.0,  999.0,  999.0,  999.0,  999.0,   -6.6,   -4.1,   -1.2,  999.0,  999.0,  999.0,  -13.3,  999.0,  999.0,  -16.0,  -16.0,  999.0,  999.0,  999.0,   -9.8,  -11.3,  999.0,  999.0,  999.0,  -11.8,  -12.4,  -14.2,  -11.6,   -7.6,   -7.6,  999.0,   -1.4,  999.0,   -1.8,  999.0,  999.0,  999.0
2011/07/05 17:35,   -4.8,   -3.8,   -2.1,    0.2,    1.2,    1.4,    0.9,   -0.3,   -1.9,   -4.8,   -7.0,   -7.5,   -8.0,   -6.2,   -7.5,   -7.9,  999.0,  999.0,  999.0,  999.0,  999.0,  999.0,  999.0,  999.0,  999.0,  999.0,  999.0,  999.0,  999.0,   -0.9,    0.9,   -1.1,  999.0,  999.0,  999.0,   -4.5,   -5.3,   -5.5,   -6.8,   -8.3,   -9.4,   -9.3,   -9.6,   -8.4,   -7.7,   -7.6,   -4.7,   -5.3,   -4.6,   -4.9,   -5.3,   -5.2,   -5.9,   -5.9,   -5.7,   -4.9,   -4.0,   -3.9,   -3.7,   -3.6,   -3.8,   -3.4,   -3.6,   -4.4,   -5.6,   -5.4,   -6.8,   -7.7,   -8.8,   -9.3,   -8.3,   -6.3,   -5.7,   -5.7,   -2.3,   -4.0,   -4.3,   -6.7,   -8.7,   -7.5,   -9.3,  -10.9,  999.0,   -8.9,  999.0,  999.0,  999.0,   -8.9,   -7.0,   -4.3,  999.0,   -4.1,   -5.4,   -7.3,   -9.8,  999.0,  -14.7,  -15.5,  -15.2,  -12.7,  999.0,   -7.7,   -9.2,  -11.2,  -11.5,  999.0,  999.0,  -11.2,  -14.1,  -12.6,   -8.7,   -7.6,   -4.4,    2.3,    2.6,  999.0,  999.0,   -2.4,   -4.4,   -2.8
2011/07/05 17:45,   -5.4,   -4.0,   -2.7,   -1.0,    1.1,    1.0,    0.2,    1.3,   -2.5,   -5.7,   -7.3,   -6.9,   -6.9,   -6.6,   -6.9,   -7.6,  999.0,  999.0,  999.0,  999.0,  999.0,  999.0,  999.0,  999.0,  999.0,  999.0,  999.0,   -3.8,  999.0,  999.0,   -2.9,   -1.6,  999.0,    0.9,   -0.3,  999.0,   -6.0,   -6.5,   -7.5,   -8.9,  -10.4,  -10.3,  -10.0,   -9.1,   -8.6,   -7.2,   -4.5,   -4.7,   -4.9,   -5.2,   -5.0,   -5.2,   -5.4,   -5.7,   -4.8,   -4.7,   -3.2,   -3.4,   -4.0,   -4.2,   -2.4,   -3.5,   -3.5,   -4.6,   -6.3,   -6.4,   -6.2,   -8.2,   -7.9,   -8.8,   -6.1,   -4.2,   -5.3,   -3.2,   -2.1,   -3.1,   -4.3,   -6.8,   -8.8,   -8.2,   -6.9,  -11.0,  -11.3,   -9.5,  999.0,  999.0,   -9.0,   -9.7,   -6.4,   -4.5,   -3.4,   -2.9,   -2.6,   -3.1,   -7.4,   -8.5,  999.0,  -16.7,  -15.3,  -11.8,   -9.4,  999.0,   -9.8,  -11.0,  -11.5,  -13.1,   -8.6,  -10.1,  -13.4,  -11.6,   -7.6,   -6.4,   -2.5,    0.3,   -0.4,   -1.3,   -2.7,   -4.0,   -4.5,   -3.7
2011/07/05 17:55,   -4.4,   -1.2,    0.6,    0.6,    0.4,    1.1,   -0.1,   -0.5,   -3.3,   -5.9,   -8.4,   -8.9,   -6.7,   -6.9,   -6.9,   -8.7,  999.0,  999.0,  999.0,  999.0,  999.0,  999.0,  999.0,  999.0,  999.0,  999.0,  999.0,  999.0,  999.0,  999.0,  999.0,    0.2,   -0.4,   -0.6,   -1.7,   -4.2,   -5.1,   -6.2,   -7.2,   -8.7,  -11.0,  -10.2,   -9.8,   -8.6,   -6.7,   -4.7,   -3.8,   -4.3,   -5.0,   -5.2,   -5.3,   -6.0,   -6.2,   -6.6,   -4.7,   -3.4,   -1.9,   -2.9,   -3.8,   -4.0,   -3.1,   -3.8,   -3.9,   -4.7,   -4.8,   -5.3,   -6.4,   -6.5,   -6.4,   -7.3,   -5.8,   -4.9,   -4.0,   -4.9,   -1.9,   -3.8,   -4.2,   -6.0,   -8.0,   -9.3,   -6.8,   -8.0,  -10.0,  999.0,  999.0,  999.0,   -8.4,   -9.3,   -4.5,   -4.1,   -1.4,   -2.5,   -1.8,   -3.9,   -8.6,  -10.6,  -14.6,  -16.7,  -17.2,  -13.8,  999.0,  999.0,  -10.9,  -12.7,  -10.9,   -9.6,   -8.7,  -11.3,  -13.8,  -12.3,   -7.3,   -5.9,   -1.9,  999.0,  999.0,   -2.1,   -2.5,   -4.3,   -2.8,  999.0
2011/07/05 18:05,   -3.1,   -2.9,    0.2,    1.0,    0.6,   -0.2,   -0.3,   -2.3,   -4.4,   -7.2,   -8.3,  999.0,   -2.2,   -6.1,   -6.3,   -7.5,  999.0,  999.0,  999.0,  999.0,  999.0,   -7.1,  999.0,  999.0,  999.0,  999.0,  999.0,  999.0,   -0.5,   -0.0,    1.1,    0.5,    0.9,    1.4,    0.4,   -2.2,   -4.2,   -5.7,   -7.4,   -7.9,   -9.9,   -9.5,   -9.0,   -8.1,   -5.6,   -3.4,   -4.5,   -3.4,   -3.8,   -5.1,   -5.8,   -7.2,   -7.6,   -6.8,   -5.5,   -4.4,   -2.5,   -2.1,   -3.6,   -4.4,   -4.9,   -4.2,   -4.6,   -4.5,   -4.4,   -5.3,   -4.3,   -4.4,   -5.9,   -6.4,   -5.1,   -3.9,   -3.1,   -4.7,  999.0,   -2.2,   -4.2,   -5.5,  999.0,  999.0,   -6.1,   -7.9,   -9.4,   -6.1,   -5.7,  999.0,  999.0,   -9.2,  999.0,   -3.4,   -1.9,   -2.7,  999.0,  999.0,   -8.3,  -10.6,  -15.5,  -17.6,  -17.7,  999.0,  999.0,   -9.4,  -10.2,  999.0,  -10.4,  999.0,  999.0,  -11.1,  999.0,  -13.1,   -6.5,   -5.6,   -2.7,  999.0,  999.0,  999.0,   -4.1,  999.0,   -2.5,   -1.5
2011/07/05 18:15,   -4.3,   -2.8,   -0.2,    1.5,    1.3,    0.8,   -1.0,   -0.0,   -2.1,   -5.4,   -6.4,   -7.5,   -7.2,   -8.4,   -9.2,   -7.8,  999.0,  999.0,  999.0,  999.0,  999.0,   -9.5,  999.0,  999.0,  999.0,  999.0,   -2.5,   -1.9,   -2.5,   -2.6,   -2.1,   -0.6,    1.0,    1.0,   -0.3,   -2.8,   -4.4,   -6.1,   -7.8,   -9.2,   -9.5,   -7.8,   -7.2,   -6.1,   -3.6,   -3.2,   -2.8,   -3.7,   -4.4,   -5.0,   -5.5,   -7.2,   -8.3,   -7.3,   -6.0,   -5.7,   -4.9,   -4.6,   -5.1,   -5.0,   -4.6,   -5.4,   -4.7,   -5.0,   -5.9,   -5.8,   -6.9,   -8.1,   -7.1,   -7.5,   -7.4,   -7.2,   -6.1,   -5.3,   -2.5,   -2.1,   -4.1,   -7.8,   -8.8,   -8.3,  999.0,   -8.6,  -11.5,   -8.4,   -7.5,  -10.6,  999.0,  999.0,   -9.8,   -4.9,   -5.7,  999.0,  999.0,   -1.9,   -6.6,   -9.7,  -13.1,  -16.8,  -18.2,  -18.1,  999.0,   -9.6,  -10.6,  999.0,  999.0,  999.0,  999.0,  -11.2,  -14.0,  -12.9,   -7.0,   -5.8,   -3.0,    0.6,   -1.8,   -3.1,  999.0,  999.0,  999.0,   -4.1
2011/07/05 18:25,   -3.9,   -3.5,   -1.1,   -0.2,    1.0,    0.7,    1.0,    0.4,    0.0,   -2.6,   -6.0,   -7.7,   -7.7,   -9.1,   -9.6,   -1.5,  999.0,  999.0,  999.0,  999.0,  999.0,  999.0,  999.0,  999.0,  999.0,  999.0,   -3.6,   -2.3,   -2.5,   -2.0,   -3.2,   -1.5,   -0.9,   -2.5,   -4.8,   -7.7,   -7.7,   -9.2,  -10.5,  -12.1,  -10.5,  -10.2,   -9.1,   -7.2,   -4.4,   -3.6,   -4.5,   -4.8,   -5.1,   -6.6,   -8.5,   -9.0,   -8.7,   -8.1,   -6.3,   -7.1,   -7.3,   -7.9,   -6.1,   -4.9,   -3.8,   -4.6,   -5.7,   -6.5,   -7.0,   -8.0,   -9.2,   -7.3,   -6.9,   -8.6,   -9.8,   -8.5,   -6.9,   -6.0,   -3.8,   -3.3,   -5.2,   -8.4,  999.0,  999.0,  999.0,  -10.2,  -13.0,   -8.1,   -9.0,   -8.2,  999.0,  999.0,  -14.3,  999.0,   -5.9,   -6.2,   -5.0,   -7.0,   -8.8,  -11.5,  -13.9,  -15.7,  -17.6,  -16.9,  -15.2,  999.0,  -10.8,  -12.2,  -10.4,  -10.6,  999.0,  -14.8,  -16.4,  -11.8,   -6.7,   -5.6,   -1.9,   -0.6,   -0.9,   -1.6,   -2.3,   -3.6,   -3.5,   -2.6
2011/07/05 18:35,   -4.5,   -4.2,   -1.8,    0.0,    1.2,    2.0,    1.9,    1.3,   -1.2,   -4.7,   -6.0,   -8.3,   -8.6,   -8.7,   -9.3,   -5.7,   11.2,  999.0,  999.0,  999.0,  999.0,  999.0,  999.0,  999.0,  -13.1,   -9.6,   -5.7,   -4.1,   -3.6,   -3.0,   -2.6,   -3.4,   -3.6,   -4.5,   -6.3,   -7.1,   -8.5,   -9.9,  -12.1,  -12.1,  -10.6,  -10.3,   -7.8,   -6.1,   -4.7,   -4.1,   -4.8,   -5.1,   -4.6,   -6.6,   -7.5,   -8.3,   -8.0,   -7.1,   -6.9,   -7.2,   -6.4,   -6.6,   -5.6,   -4.5,   -4.0,   -5.0,   -5.2,   -5.5,   -6.3,   -6.8,   -7.0,   -8.3,   -6.3,   -8.0,   -9.7,   -9.1,   -8.3,   -5.0,   -2.9,   -3.3,   -6.4,   -8.6,  -10.3,  999.0,   -7.1,  -12.1,  -12.5,   -8.9,   -8.0,   -9.5,  -10.9,  -15.2,  -14.0,  -12.3,   -7.9,   -6.3,   -5.2,  999.0,   -8.2,   -9.7,  -14.2,  -16.2,  -17.7,  -16.9,  -14.5,  -12.6,  -11.1,  -12.9,  -12.3,  -10.2,  999.0,  999.0,  -14.8,  -12.4,   -7.1,   -5.0,   -1.3,   -1.4,   -2.6,  999.0,   -2.7,   -3.3,   -1.9,   -2.6
2011/07/05 18:45,   -3.1,   -3.1,    0.2,    0.9,    2.9,    2.3,    2.5,    0.2,   -1.2,   -0.7,   -2.6,   -4.2,   -5.6,   -7.0,   -7.6,  999.0,  999.0,  999.0,  999.0,  999.0,  999.0,  999.0,  999.0,  999.0,  999.0,  999.0,   -4.1,   -2.0,   -1.0,    0.9,  999.0,   -3.1,   -3.2,   -3.6,   -5.4,   -6.9,   -7.8,   -9.4,  -11.7,  -11.3,  -10.3,  -10.0,   -7.5,   -6.0,   -4.0,   -4.6,   -5.8,   -6.5,   -6.8,   -7.1,   -7.9,   -8.9,   -9.2,   -8.0,   -6.5,   -7.1,   -7.3,   -5.3,   -3.7,   -3.5,   -3.4,   -3.5,   -3.7,   -4.6,   -4.5,   -5.3,   -6.1,   -6.2,   -6.4,   -7.4,   -8.8,   -8.2,   -7.3,   -6.2,   -5.3,   -4.2,   -6.6,   -7.9,   -4.8,   -6.9,  999.0,   -9.9,  -11.3,   -7.9,   -8.3,   -7.7,  -11.3,  999.0,  -13.2,  -11.9,   -6.7,   -5.8,   -4.8,  999.0,   -8.3,  -10.6,  -14.2,  -16.7,  -18.6,  -16.9,  -15.5,  999.0,  -11.8,  -12.9,  -12.2,   -9.6,  999.0,  -12.4,  -13.0,   -9.8,   -8.1,   -5.2,   -3.1,   -0.6,  999.0,  999.0,   -3.2,  999.0,  999.0,  999.0
2011/07/05 18:55,   -2.0,   -2.5,   -0.6,    0.3,    1.9,    2.2,    0.5,    0.3,   -1.9,   -3.0,   -5.6,   -6.1,   -7.3,   -7.0,   -7.0,  999.0,  999.0,  999.0,  999.0,  999.0,  999.0,   -8.7,   -8.7,   -6.7,  999.0,   -4.6,   -3.9,   -2.5,   -2.2,   -0.7,  999.0,   -3.5,   -4.2,   -5.0,   -5.3,   -7.0,   -8.1,  -10.6,  -12.2,   -9.4,   -9.2,   -8.6,   -6.3,   -3.8,   -3.8,   -4.3,   -5.4,   -5.8,   -7.1,   -7.0,   -7.4,   -7.6,   -7.3,   -6.5,   -5.7,   -5.9,   -5.7,   -6.0,   -5.1,   -3.6,   -3.7,   -4.3,   -3.5,   -3.5,   -4.8,   -4.5,   -5.3,   -6.5,   -6.5,   -7.4,   -9.0,   -9.2,   -8.4,   -6.3,   -5.7,   -4.6,   -6.2,   -6.9,   -7.2,   -9.0,   -9.3,  -10.7,  -12.6,   -8.0,   -8.3,   -9.9,   -9.1,  999.0,  999.0,  -12.5,   -9.6,   -6.7,  999.0,   -2.3,  -10.0,  -11.3,  -14.0,  -17.5,  -19.2,  -18.7,  -15.7,  999.0,  -12.3,  -14.2,  -12.9,   -9.7,  -10.6,  -13.0,  -14.8,   -7.1,   -5.9,   -2.0,  999.0,  999.0,   -1.0,   -2.1,   -1.8,   -3.2,  999.0,   -3.6
2011/07/05 19:05,   -4.2,   -3.6,   -2.4,    1.0,    0.7,    1.1,    0.0,   -1.4,   -1.5,   -3.4,   -4.5,   -6.3,   -7.2,   -7.0,   -7.9,   -2.3,  999.0,  999.0,  999.0,  999.0,  999.0,   -5.3,   -5.7,   -6.6,   -3.7,   -2.7,   -2.3,   -2.4,   -1.7,   -1.5,   -2.2,   -4.5,   -5.5,   -4.2,   -6.2,   -7.8,   -9.6,  -11.1,   -9.3,   -9.0,   -9.2,   -5.7,   -4.7,   -4.7,   -5.5,   -5.7,   -6.3,   -6.5,   -6.9,   -7.3,   -8.5,   -8.4,   -7.6,   -7.2,   -7.0,   -6.7,   -6.8,   -6.6,   -6.0,   -4.6,   -3.4,   -3.5,   -2.5,   -2.8,   -3.5,   -3.3,   -3.2,   -3.6,   -4.7,   -5.8,   -7.0,   -8.6,   -9.6,   -6.5,   -6.4,   -6.9,   -5.5,   -6.3,   -6.3,   -6.4,   -7.8,   -9.8,   -8.7,   -6.8,   -5.7,   -9.9,   -9.4,  -13.5,  -14.1,  -12.8,  -10.8,   -5.9,   -6.1,  999.0,   -8.5,  -10.4,  -13.6,  -16.8,  -18.1,  -18.8,  -14.0,  -11.9,  -12.2,  -14.1,  -11.7,   -9.9,  -11.7,  -14.8,  -13.3,   -9.0,   -7.5,   -3.2,   -1.3,    0.8,   -1.5,   -1.4,   -1.3,   -1.8,  999.0,  999.0
2011/07/05 19:15,   -4.1,   -3.8,   -2.5,   -0.6,    0.0,    0.5,   -0.6,   -1.3,   -3.8,   -5.3,   -6.5,   -8.2,   -8.6,   -9.0,   -8.2,  999.0,    3.2,    1.9,  999.0,  999.0,   11.9,  999.0,  999.0,   -7.0,   -5.6,  999.0,   -2.1,   -2.1,   -0.8,    0.3,  999.0,   -4.6,   -4.9,   -4.4,   -6.0,   -7.6,   -9.2,  -10.0,   -9.8,   -8.7,   -8.6,   -5.1,   -5.7,   -6.4,   -7.0,   -7.3,   -6.8,   -7.3,   -7.6,   -8.9,  -10.4,   -9.9,   -9.7,   -9.8,   -9.2,   -8.4,   -7.3,   -6.2,   -5.6,   -4.6,   -3.9,   -3.2,   -3.3,   -3.6,   -3.0,   -3.7,   -4.1,   -4.5,   -5.3,   -5.5,   -6.4,   -6.7,   -8.0,   -6.9,   -7.3,   -6.7,   -5.5,   -5.3,   -6.3,   -7.9,  -10.8,   -8.4,   -7.3,   -4.6,   -5.9,   -7.5,   -9.7,  -12.0,  -14.1,  -12.7,   -9.3,   -6.4,   -4.6,   -6.1,   -8.8,  -11.0,  -13.0,  -16.2,  -19.0,  -19.0,  -16.2,  -11.5,  -12.2,  -14.1,  -12.8,  -10.3,  -10.8,  -14.5,  -14.0,   -8.4,   -5.4,   -3.1,  999.0,  999.0,   -1.0,   -1.9,   -3.3,   -3.1,  999.0,   -3.6
2011/07/05 19:25,   -4.7,   -4.5,   -3.4,   -1.3,   -0.7,   -1.3,   -3.0,   -3.8,   -4.5,   -6.5,   -8.6,   -9.6,  -10.1,   -8.2,  999.0,  999.0,  999.0,  999.0,  999.0,  999.0,  999.0,  999.0,  999.0,  999.0,  999.0,  999.0,   -1.5,   -0.6,    0.8,    1.3,  999.0,   -3.9,   -3.9,   -4.3,   -5.0,   -7.1,   -8.9,   -9.3,   -8.9,   -7.9,   -7.9,   -4.8,   -5.0,   -6.3,   -7.4,   -7.5,   -7.5,   -7.3,   -8.3,   -9.8,  -11.5,  -11.6,  -10.6,  -11.0,  -12.0,  -11.6,  -11.0,   -9.7,   -7.7,   -6.2,   -4.7,   -3.6,   -4.1,   -4.4,   -4.6,   -5.1,   -3.6,   -5.7,   -5.2,   -6.3,   -6.5,   -6.3,   -6.2,   -6.2,   -9.1,   -7.8,   -5.6,   -5.4,   -7.3,  -10.9,  -12.8,  -11.1,   -5.9,   -4.1,   -5.6,  999.0,   -9.1,  999.0,  999.0,  999.0,   -9.1,   -7.3,  999.0,   -9.6,   -7.5,  -10.9,  -12.2,  -15.7,  -15.3,  -19.5,  -13.8,  999.0,  -11.2,  -14.0,  -13.5,  -11.1,  -12.8,  -14.4,  -10.5,   -7.3,   -5.6,   -4.8,  999.0,  999.0,  999.0,  999.0,   -2.2,   -0.7,  999.0,   -4.1
2011/07/05 19:35,   -3.3,   -3.5,   -1.6,   -1.5,   -2.4,   -2.1,   -1.7,   -2.9,   -4.5,   -5.4,   -9.4,  -10.3,  -10.0,   -9.4,  999.0,  999.0,  999.0,  999.0,  999.0,  999.0,  999.0,  999.0,  999.0,  999.0,  999.0,  999.0,  999.0,   -1.3,   -0.2,  999.0,  999.0,   -2.2,   -4.2,   -2.3,   -4.1,   -5.8,   -7.7,   -8.5,   -6.8,   -6.4,   -5.6,   -5.5,   -4.4,   -5.0,   -5.8,   -6.1,   -6.4,   -7.7,   -9.2,  -11.1,  -12.3,  -11.1,  -10.2,  -10.8,  -12.5,  -11.6,  -10.2,   -9.7,   -7.4,   -6.7,   -6.3,   -5.1,   -4.2,   -3.7,   -3.5,   -3.2,   -3.8,   -4.5,   -4.6,   -4.5,   -4.6,   -6.5,   -7.2,   -7.1,   -7.7,   -7.9,   -8.5,   -7.7,   -8.5,  -12.1,  -13.3,  -10.9,   -8.2,   -2.6,   -5.2,  999.0,  -10.8,  -10.7,  999.0,  -14.2,  -10.1,   -8.0,   -3.7,  999.0,   -7.6,  -10.1,  -11.3,  -14.1,  -17.7,  -18.9,  -18.0,  -12.5,  -10.4,  -13.5,  -13.1,  -11.2,  999.0,  -16.4,  -16.8,   -8.2,   -6.2,  999.0,  999.0,  999.0,   -2.1,   -3.7,   -3.1,  999.0,  999.0,  999.0
2011/07/05 19:45,   -3.1,   -3.3,   -0.4,   -0.2,   -0.3,   -1.8,   -1.4,   -0.8,   -2.2,   -3.6,   -5.6,   -6.6,   -6.8,   -7.0,   -7.1,  999.0,  999.0,  999.0,  999.0,  999.0,  999.0,  999.0,   -3.7,  999.0,  999.0,  999.0,   -1.4,   -0.1,    0.4,    0.7,  999.0,   -2.1,   -3.1,   -3.4,   -4.5,   -5.6,   -7.7,   -7.7,   -6.7,   -6.0,   -5.3,   -5.0,   -5.7,   -6.0,   -6.7,   -6.8,   -7.0,   -8.2,   -9.8,  -12.9,  -13.0,  -12.5,  -12.5,  -12.7,  -12.2,  -11.9,  -11.6,   -9.9,   -7.8,   -7.2,   -6.4,   -5.6,   -5.4,   -5.3,   -4.9,   -5.1,   -4.3,   -4.3,   -4.6,   -4.8,   -4.2,   -5.2,   -7.1,   -6.4,   -6.4,   -7.1,   -7.3,   -5.6,   -7.3,  -10.4,  -11.1,   -9.4,   -6.4,   -3.5,   -5.3,   -8.0,   -8.4,  -11.6,  -13.8,  -12.7,   -9.2,   -7.5,   -5.8,   -6.2,   -6.7,  -10.2,  -11.6,  -14.7,  -17.4,  -18.1,  -17.2,  999.0,  -10.4,  -13.0,  -12.8,  -12.3,  -15.3,  -16.7,  -14.4,   -6.6,   -5.5,  999.0,  999.0,   -1.7,   -2.1,   -1.5,  999.0,   -1.6,  999.0,   -5.1
2011/07/05 19:55,   -3.3,   -1.7,   -1.2,   -0.9,   -1.5,   -2.2,   -2.4,   -2.0,   -4.6,   -6.3,   -8.0,   -9.3,   -8.3,   -6.2,    2.1,  999.0,  999.0,  999.0,  999.0,  999.0,  999.0,  999.0,   -7.0,   -4.9,  999.0,  999.0,   -2.0,   -0.1,    0.1,    0.3,    0.9,   -3.0,   -4.4,   -3.7,   -4.4,   -6.7,   -8.4,   -8.0,   -7.4,   -6.0,   -5.2,   -5.5,   -5.9,   -6.0,   -6.2,   -7.4,   -9.2,  -11.6,  -14.1,  -14.8,  -14.9,  -14.9,  -14.9,  -12.9,  -12.9,  -12.9,  -12.3,  -11.5,  -10.2,   -9.4,   -8.6,   -7.1,   -6.7,   -6.6,   -6.2,   -6.4,   -5.7,   -5.5,   -4.7,   -4.9,   -5.1,   -6.2,   -6.7,   -5.8,   -6.4,   -7.3,   -8.3,   -6.4,   -8.0,  -12.1,  -11.7,   -8.4,   -5.9,   -3.6,   -7.3,   -7.8,  -10.2,  -14.3,  -16.1,  -13.8,  -10.5,   -7.6,   -8.0,   -6.0,   -6.5,   -9.2,  -11.5,  -11.8,  -17.0,  -17.6,  -17.7,  -14.8,  -11.7,  -14.4,  -12.6,  -10.2,  -15.3,  -15.3,  -11.7,   -8.7,   -5.8,  999.0,  999.0,   -1.5,   -2.3,   -2.4,   -0.8,  999.0,  999.0,  999.0
2011/07/05 20:05,   -2.5,   -0.4,   -1.0,   -1.6,   -2.0,   -2.9,   -2.3,   -3.6,   -6.0,   -7.3,   -8.3,   -8.1,   -7.9,  999.0,  999.0,  999.0,  999.0,  999.0,  999.0,   -5.9,  999.0,   -5.6,   -4.7,   -4.0,   -0.1,   -0.2,   -0.4,    0.4,    0.4,    0.0,    0.5,   -2.4,   -4.7,   -3.6,   -5.0,   -6.6,   -8.7,   -8.2,   -8.0,   -6.2,   -6.0,   -6.0,   -6.5,   -6.1,   -7.3,   -8.5,  -11.4,  -13.3,  -15.3,  -16.2,  -16.7,  -17.4,  -17.4,  -15.2,  -13.8,  -13.0,  -11.9,  -11.1,  -10.1,   -9.8,   -7.0,   -6.8,   -6.2,   -5.6,   -5.2,   -4.8,   -4.6,   -5.0,   -6.2,   -6.6,   -7.7,   -8.4,   -6.8,   -5.0,   -5.4,   -7.2,   -8.8,   -7.9,  -10.5,  -12.5,  -13.7,   -7.2,   -6.1,   -4.3,   -6.7,  999.0,   -9.8,  -13.9,  -15.4,  -13.5,  -10.5,   -7.9,   -6.8,   -7.1,   -5.8,   -8.1,  -12.6,  -14.5,  -17.3,  -18.9,  -17.2,  -15.5,  999.0,  -12.2,  -13.2,  -11.5,  -11.6,  -14.2,  -12.2,   -9.1,   -4.7,   -2.3,  999.0,   -3.3,   -2.7,   -3.8,   -2.4,   -1.5,   -0.3,   -4.8
2011/07/05 20:15,   -1.6,   -0.7,   -1.3,   -1.7,   -1.5,   -2.2,   -1.0,   -2.1,   -4.9,   -6.7,   -7.1,   -6.6,   -6.0,  999.0,  999.0,  999.0,  999.0,  999.0,  999.0,   -5.6,  999.0,   -4.8,   -3.8,   -4.1,   -1.3,   -1.4,   -0.7,    0.2,   -0.2,   -0.4,   -0.1,   -2.8,   -4.2,   -3.8,   -4.5,   -6.9,   -9.1,   -9.2,   -7.6,   -6.7,   -6.9,   -6.7,   -7.1,   -7.2,   -7.7,   -9.3,  -12.0,  -13.5,  -15.0,  -15.3,  -16.1,  -17.2,  -16.1,  -15.1,  -13.9,  -13.5,  -12.5,   -9.9,   -9.3,   -8.7,   -7.7,   -7.6,   -6.6,   -5.6,   -5.5,   -4.9,   -5.3,   -5.1,   -5.7,   -7.1,   -7.9,   -7.8,   -4.9,   -3.8,   -4.0,   -6.7,   -7.8,   -7.3,   -8.6,  -11.4,  -12.8,   -8.5,   -6.2,   -4.6,   -6.2,   -8.5,  -10.5,  -12.9,  -13.6,  -13.0,  -10.1,   -8.3,   -6.7,   -7.1,   -6.1,   -7.3,  -10.5,  -14.6,  -17.2,  -19.5,  -17.9,  -16.7,   -9.6,  -12.1,  -12.1,  -10.6,  -11.9,  -14.8,  -11.7,   -9.0,   -5.0,  999.0,  999.0,   -1.9,   -3.6,   -4.9,   -3.5,  999.0,    0.2,   -4.4
2011/07/05 20:25,   -0.6,   -0.3,   -1.3,   -0.2,   -0.9,   -0.9,   -0.4,   -1.8,   -3.8,   -5.4,   -6.1,   -6.1,   -6.1,  999.0,  999.0,  999.0,  999.0,  999.0,   -6.4,   -6.8,   -5.1,   -6.0,   -6.1,   -4.2,  999.0,   -1.4,    0.0,    0.7,   -1.4,   -0.3,   -0.6,   -3.3,   -3.6,   -3.6,   -5.5,   -8.0,  -10.1,   -9.6,   -8.2,   -6.6,   -6.9,   -6.9,   -7.7,   -7.3,   -7.2,   -9.0,  -11.5,  -12.7,  -13.6,  -13.6,  -14.7,  -15.4,  -15.5,  -14.7,  -12.9,  -12.1,  -11.5,   -9.8,   -7.8,   -7.1,   -6.9,   -6.2,   -5.4,   -4.0,   -3.7,   -4.3,   -3.2,   -3.9,   -5.5,   -6.5,   -6.7,   -7.0,   -4.3,   -2.8,   -2.4,   -4.1,   -9.0,   -7.7,   -7.5,   -9.7,  -12.3,   -8.6,   -6.7,   -5.5,  999.0,  999.0,  -10.6,  -12.9,  -15.4,  -13.9,  -14.6,   -9.5,   -8.0,   -7.7,   -7.1,   -6.2,   -9.6,  -13.8,  -17.1,  -19.0,  -17.2,  -15.6,  -10.6,  -11.9,  -12.9,  -10.7,  999.0,  -15.1,  -10.6,   -9.3,   -5.8,  999.0,  999.0,  999.0,  999.0,   -5.9,   -3.7,   -1.7,   -2.6,  999.0
2011/07/05 20:35,   -0.6,   -0.2,   -1.3,   -0.5,   -0.6,   -0.6,   -1.2,   -2.8,   -4.6,   -5.4,   -5.5,   -5.4,   -5.2,  999.0,   -4.4,   -6.4,   -5.0,   -8.0,   -5.6,   -6.4,   -3.1,   -4.3,   -3.9,   -2.4,   -1.6,   -2.6,    0.3,    1.4,    0.3,   -0.2,   -0.3,   -2.6,   -3.7,   -4.6,   -6.0,   -8.4,  -10.3,   -9.0,   -7.7,   -7.2,   -7.2,   -7.3,   -7.9,   -7.1,   -7.6,   -9.9,  -12.4,  -13.2,  -13.7,  -14.3,  -14.8,  -14.3,  -14.1,  -13.8,  -12.6,  -10.4,   -9.3,   -8.8,   -7.2,   -5.8,   -5.1,   -5.4,   -4.9,   -3.6,   -3.2,   -2.8,   -4.2,   -4.2,   -4.8,   -6.4,   -6.5,   -6.4,   -3.1,   -1.5,   -1.5,   -3.2,   -8.0,   -7.8,   -7.1,   -8.4,  -11.4,  -10.2,   -6.3,   -5.7,   -6.3,   -7.6,  -10.3,  -12.7,  -14.2,  -15.6,  -13.2,   -8.4,   -9.0,   -7.4,   -8.0,   -5.6,   -9.0,  -14.7,  -17.2,  -18.5,  -16.4,  999.0,  -12.2,  -12.2,  -10.7,  -10.8,  999.0,  -15.2,  -11.0,   -9.4,   -5.1,  999.0,  999.0,   -4.3,   -5.9,   -4.1,   -3.5,   -4.0,   -3.1,   -4.5
2011/07/05 20:45,   -1.7,   -1.1,   -1.8,   -1.4,   -1.0,   -0.5,   -2.1,   -3.7,   -6.0,   -7.6,   -7.8,   -7.5,   -6.6,  999.0,  999.0,  999.0,   -3.9,  999.0,  999.0,   -3.8,   -2.0,   -1.3,   -2.0,   -1.2,  999.0,    2.7,   -0.6,    1.7,    1.4,   -0.2,   -0.1,   -2.2,   -3.1,   -5.0,   -7.0,   -8.9,   -9.4,   -8.3,   -7.4,   -7.3,   -7.4,   -7.8,   -6.9,   -7.0,   -9.1,  -11.5,  -12.7,  -13.6,  -13.5,  -13.5,  -14.6,  -15.5,  -14.5,  -13.8,  -12.0,  -10.8,  -11.0,   -9.5,   -7.9,   -7.3,   -6.5,   -6.7,   -5.2,   -4.2,   -3.3,   -2.4,   -1.1,   -3.8,   -3.0,   -3.6,   -3.9,   -4.7,   -3.6,   -2.1,   -1.5,   -2.4,   -6.7,   -9.9,   -7.7,   -8.7,  -11.5,  -10.8,   -7.7,   -7.3,   -8.7,  -10.4,  -11.8,  -13.4,  999.0,  999.0,  -13.3,  -10.8,   -8.4,   -7.3,   -6.4,   -5.1,   -8.9,  -12.4,  -17.1,  -17.9,  -15.6,  999.0,  999.0,  -12.0,  -13.8,  -10.3,  999.0,  -16.3,   -9.2,   -8.8,  999.0,  999.0,   -3.5,   -6.0,   -4.7,   -3.6,   -4.3,  999.0,  999.0,   -3.5
2011/07/05 20:55,   -2.1,   -0.7,   -1.0,   -1.3,   -1.7,   -0.8,   -1.8,   -3.4,   -4.5,   -5.2,   -4.6,   -4.7,   -3.2,   -4.1,   -4.0,   -6.6,   -4.2,  999.0,   -4.0,   -3.4,   -2.6,   -3.6,   -1.4,   -0.6,  999.0,  999.0,  999.0,    1.7,    1.5,   -0.5,   -0.1,   -3.3,   -3.2,   -4.1,   -7.0,   -8.8,   -8.9,   -7.6,   -6.6,   -6.4,   -6.6,   -7.5,   -7.0,   -7.0,   -8.4,  -10.7,  -11.8,  -12.5,  -12.3,  -12.4,  -12.9,  -14.3,  -13.8,  -12.7,  -13.0,  -11.2,   -9.7,   -9.1,   -7.8,   -7.3,   -7.4,   -6.4,   -5.5,   -4.2,   -3.7,   -2.3,   -1.6,   -0.8,   -1.7,   -2.4,   -3.6,   -4.2,   -3.2,   -1.1,   -1.5,   -3.2,   -7.3,  -10.2,   -7.6,   -8.9,  -11.4,   -9.1,   -5.8,   -6.7,   -7.0,   -8.2,   -9.7,  -13.1,  999.0,  -13.8,  -12.1,  999.0,   -6.3,   -6.5,   -6.2,   -4.9,   -7.8,  -10.5,  -15.1,  -17.3,  -16.0,  -11.6,  -10.6,  -11.7,  -13.4,  -12.0,  -15.0,  -16.2,  -12.7,   -9.1,   -7.4,  999.0,   -5.3,   -6.1,   -6.9,   -5.9,   -3.3,   -1.8,   -2.6,   -4.0
2011/07/05 21:05,   -3.4,   -0.9,   -1.5,   -1.6,   -2.3,   -2.7,   -3.2,   -3.8,   -4.9,   -4.8,   -4.6,   -3.3,   -4.8,   -2.3,   -3.3,   -3.0,   -3.4,  999.0,  999.0,   -2.4,   -1.9,   -0.2,   -1.7,   -0.8,  999.0,  999.0,  999.0,    0.6,    0.8,   -0.7,   -0.7,   -3.5,   -3.7,   -4.7,   -8.2,   -9.7,   -9.2,   -6.8,   -5.9,   -5.8,   -5.9,   -6.3,   -6.4,   -6.9,   -8.8,  -10.5,  -10.9,  -11.0,  -10.6,  -10.7,  -11.8,  -13.0,  -12.7,  -12.2,  -11.6,  -10.7,  -10.0,   -8.7,   -7.4,   -6.6,   -6.1,   -5.6,   -4.7,   -4.6,   -3.6,   -3.1,   -1.9,   -1.3,   -1.7,   -3.1,   -4.2,   -4.6,   -3.2,   -1.9,   -2.6,   -3.9,   -9.2,  -11.6,   -8.1,   -8.7,  -10.9,   -9.8,   -7.1,   -6.5,  999.0,  -10.0,  -11.6,  -14.2,  -16.1,  -13.8,  999.0,  -12.5,   -8.3,   -7.6,   -7.2,   -7.2,   -8.7,  -11.4,  -15.1,  -17.5,  -17.3,  -15.2,  -10.5,  -12.1,  -13.4,  -11.5,  -13.9,  -15.6,  -12.5,   -9.5,  999.0,  999.0,   -5.1,   -7.1,   -6.3,   -6.1,  999.0,  999.0,  999.0,  999.0
2011/07/05 21:15,   -2.7,   -2.3,   -2.4,   -2.7,   -3.0,   -3.9,   -3.6,   -4.3,   -5.8,   -4.4,   -3.8,   -2.5,   -3.7,   -1.2,   -2.7,   -2.2,  999.0,  999.0,    0.8,   -3.3,   -2.3,    0.6,   -2.0,   -1.4,   -1.7,    0.7,    1.2,    0.4,    0.9,   -0.8,    0.5,   -2.6,   -3.9,   -4.0,   -6.6,   -7.7,   -7.5,   -5.3,   -5.7,   -5.7,   -5.1,   -5.1,   -5.6,   -7.0,   -7.8,   -9.7,   -9.6,   -9.0,   -9.6,  -10.2,  -11.8,  -12.7,  -12.6,  -11.5,  -10.9,  -11.1,  -10.2,   -8.9,   -6.5,   -7.6,   -5.9,   -5.3,   -4.3,  999.0,   -3.2,   -1.9,   -2.2,   -2.0,   -1.5,   -3.2,   -2.9,   -3.3,   -2.4,   -0.5,   -1.9,   -5.0,   -9.3,  -12.1,   -7.1,   -7.2,   -8.5,   -8.7,   -7.2,   -6.9,   -7.0,  -10.2,  -11.5,  -14.8,  999.0,  -13.6,  -13.0,  -10.2,   -8.4,   -8.2,   -8.2,   -8.1,  -12.0,  -12.4,  -18.5,  -20.3,  -18.0,  -15.1,  999.0,  -12.4,  -14.6,  -11.4,  -14.3,  -15.3,  -13.1,  999.0,  999.0,  999.0,   -6.5,   -6.9,   -5.9,   -5.0,  999.0,  999.0,  999.0,  999.0
2011/07/05 21:25,   -2.2,   -2.1,   -3.0,   -3.6,   -3.2,   -3.2,   -3.5,   -3.4,   -3.4,   -2.5,   -2.9,   -3.5,   -2.6,   -1.8,   -3.3,   -4.0,  999.0,  999.0,    3.7,   -1.0,   -1.2,   -0.1,    1.9,   -0.5,    0.2,    1.4,    0.1,    0.7,    1.1,   -0.3,   -0.9,   -4.0,   -4.7,   -5.8,   -8.1,   -8.2,   -7.9,   -6.2,   -6.6,   -5.9,   -5.6,   -5.5,   -6.6,   -8.1,   -9.6,  -11.0,  -10.4,  -10.0,  -11.0,  -12.7,  -13.5,  -13.1,  -12.4,  -11.8,  -11.6,  -11.3,   -9.9,   -8.9,   -7.6,   -8.4,   -6.6,   -5.4,   -4.6,   -3.6,   -3.0,   -2.8,   -3.1,   -2.2,   -2.5,   -3.4,   -3.3,   -3.5,   -1.9,   -0.6,   -1.1,   -3.6,   -7.3,  -12.2,  -10.4,   -8.7,   -7.6,   -9.9,   -7.8,   -7.3,   -8.0,  -10.3,  -13.6,  -15.1,  999.0,  -15.5,  -13.3,  -11.5,   -9.2,   -8.9,   -8.9,  -10.1,  -12.8,  -14.8,  -18.4,  -20.6,  -16.6,  -17.8,  -13.0,  -13.5,  -13.0,  -10.2,  -14.5,  -14.6,  -11.2,  999.0,   -4.2,   -3.9,   -4.7,   -5.4,   -5.1,   -4.6,   -3.0,   -1.7,  999.0,   -4.5
2011/07/05 21:35,   -2.2,   -1.1,   -1.8,   -2.4,   -2.8,   -3.0,   -3.4,   -4.6,   -3.1,   -3.0,   -2.9,   -2.9,   -2.5,   -2.8,   -2.8,   -2.0,  999.0,  999.0,  999.0,   -0.7,   -0.0,    0.4,    0.0,   -0.4,   -0.0,    1.2,    1.3,    2.0,    0.5,    1.3,   -0.1,   -0.5,   -3.1,   -4.3,   -7.6,   -7.1,   -5.4,   -4.9,   -5.0,   -4.4,   -3.5,   -4.1,   -5.9,   -6.9,   -9.6,   -8.5,   -8.2,   -9.2,  -11.1,  -12.1,  -12.7,  -12.1,  -12.0,  -12.1,  -11.8,  -10.4,   -9.1,   -7.9,   -8.3,   -7.5,   -5.2,   -5.0,   -5.0,   -3.9,   -3.4,   -2.9,   -2.9,   -2.6,   -2.6,   -3.0,   -3.3,   -4.0,   -3.4,   -0.6,   -0.8,   -2.4,   -6.6,  -10.0,  -10.6,   -8.4,   -7.2,   -9.6,   -8.8,   -5.0,   -9.7,  -12.0,  -14.7,  -16.7,  -16.8,  -16.7,  -13.5,  -11.2,   -9.3,  -10.8,  -10.6,  -11.1,  -14.7,  -17.8,  -19.8,  -20.2,  -16.6,  -14.4,  999.0,  -13.8,  -13.2,  -12.7,  -15.9,  -12.5,  -10.2,   -7.0,   -6.3,   -4.6,   -2.4,   -5.7,   -4.8,   -2.9,  999.0,    2.0,    0.5,   -2.7
2011/07/05 21:45,   -1.3,   -1.8,   -2.2,   -2.1,   -2.7,   -3.9,   -3.6,   -4.3,   -3.8,   -3.4,   -3.8,   -3.6,   -3.1,   -4.8,   -3.6,   -3.7,  999.0,  999.0,   -2.5,   -1.3,   -0.7,   -0.2,    0.1,   -0.0,    0.7,    0.9,  999.0,    1.7,    1.4,    2.0,    0.0,   -0.8,   -3.0,   -4.6,   -5.7,   -6.6,   -5.8,   -5.7,   -5.5,   -4.6,   -4.7,   -4.4,   -5.7,   -6.8,   -8.3,   -7.5,   -8.2,   -9.1,  -10.9,  -12.1,  -12.1,  -10.9,  -10.8,  -10.9,  -10.6,  -10.3,   -8.9,   -6.6,   -6.2,   -5.7,   -4.9,   -4.9,   -4.4,   -3.6,   -3.4,   -2.0,   -1.3,   -1.6,   -1.5,   -1.9,   -1.7,   -2.4,   -2.2,    0.3,    0.8,   -0.9,   -5.0,   -7.9,  -11.2,  999.0,  999.0,   -9.9,   -6.4,   -6.2,   -9.7,  -11.9,  -13.1,  -14.7,  -14.1,  -14.3,  -12.5,   -7.8,   -8.2,   -9.8,  -10.1,  -11.7,  -14.9,  -18.1,  -20.0,  -19.6,  -16.2,  -12.9,  -12.7,  -14.3,  -12.3,  -13.2,  -15.4,  -10.8,   -8.6,   -7.0,   -3.6,   -3.4,   -5.3,   -5.4,   -4.2,   -3.6,    1.4,    3.9,  999.0,  999.0
2011/07/05 21:55,   -2.0,   -2.3,   -2.6,   -3.3,   -3.6,   -3.8,   -3.2,   -3.9,   -3.3,   -1.9,   -4.5,   -2.2,   -2.8,   -2.0,   -0.4,   -1.1,   -1.4,   -1.1,   -0.9,   -0.8,    0.1,    0.8,   -0.2,    0.0,    0.7,    2.0,    1.0,    1.6,    1.7,    2.0,    1.3,    0.3,   -1.7,   -3.5,   -4.4,   -5.2,   -5.1,   -4.2,   -4.1,   -3.9,   -4.6,   -4.5,   -5.7,   -6.3,   -7.0,   -7.7,   -8.2,   -9.2,  -11.0,  -11.4,  -11.2,  -10.6,  -10.6,  -10.5,  -10.3,  -10.6,   -9.5,   -7.4,   -6.7,   -6.0,   -5.1,   -5.1,   -5.0,   -4.2,   -3.5,   -1.9,   -0.9,   -0.3,   -0.7,   -1.3,   -1.8,   -2.1,   -1.8,    1.5,    0.6,   -1.2,   -4.8,   -8.2,  -10.4,   -9.5,  999.0,   -8.0,   -7.5,   -8.1,  -10.6,  -13.1,  -13.9,  -17.1,  -15.4,  -13.6,   -9.4,   -7.2,   -9.8,  -11.8,  -11.8,  -13.0,  -15.3,  -18.0,  -20.2,  -20.0,  -16.8,  -14.1,  -13.6,  -15.0,  -14.2,  -13.7,  -16.5,  -16.0,   -9.7,  999.0,   -7.2,   -3.9,   -5.3,   -5.5,   -6.0,   -4.0,  999.0,  999.0,  999.0,   -2.5
2011/07/05 22:05,   -1.7,   -2.7,   -2.5,   -2.3,   -3.8,   -4.4,   -3.9,   -3.4,   -2.8,   -1.7,   -0.7,   -2.2,   -0.9,   -0.7,   -0.4,    0.0,   -1.6,   -0.8,   -1.5,   -0.8,    0.3,    1.5,   -0.2,    0.9,    0.7,    1.3,    1.4,    1.7,    0.8,    1.7,    0.1,   -0.3,   -2.7,   -4.3,   -5.9,   -6.4,   -5.6,   -5.3,   -4.3,   -4.4,   -4.4,   -4.7,   -5.8,   -5.4,   -5.5,   -6.4,   -7.4,   -8.6,   -9.5,  -11.0,  -10.6,  -10.1,  -10.2,   -9.1,  -10.1,  -10.0,   -9.3,   -6.8,   -5.9,   -5.8,   -5.8,   -6.0,   -6.1,   -4.0,   -3.0,   -2.5,   -1.0,   -0.4,    0.2,   -0.7,   -1.6,   -2.7,   -3.7,   -0.4,   -0.9,   -2.8,   -6.4,   -9.4,  -11.6,  -10.1,  -10.4,  -10.4,   -7.2,   -9.5,  -12.5,  -17.1,  -16.9,  -17.0,  -16.3,  -15.7,  -10.3,   -7.8,   -9.4,  -11.7,  -12.3,  -11.3,  -14.3,  -17.2,  -19.0,  -18.0,  -14.5,  -13.5,  -11.3,  -15.4,  -13.0,  -12.7,  -13.2,  -14.8,  999.0,   -7.6,  999.0,   -4.0,   -4.4,   -5.7,   -5.3,   -3.5,    0.3,  999.0,   -4.4,  999.0
2011/07/05 22:15,   -2.9,   -3.9,   -3.6,   -3.8,   -5.7,   -6.3,   -4.8,   -3.6,   -3.1,   -1.9,   -0.8,   -2.6,   -2.8,   -0.6,   -0.3,   -0.9,   -0.6,   -1.4,   -1.6,   -0.7,    0.4,    2.4,   -0.5,    0.6,    1.7,    1.2,    2.1,    2.1,    2.5,    0.9,    0.9,   -1.3,   -2.8,   -4.9,   -5.4,   -6.5,   -6.2,   -5.0,   -4.3,   -4.2,   -4.6,   -4.6,   -5.4,   -5.2,   -4.8,   -4.9,   -5.5,   -7.1,   -8.9,  -10.4,  -10.4,   -9.6,   -9.4,   -9.2,   -9.9,  -10.6,  -10.2,   -8.1,   -7.8,   -7.3,   -6.4,   -6.8,   -6.5,   -6.3,   -5.0,   -3.2,   -2.5,   -1.4,   -1.2,   -1.5,   -3.0,   -3.8,   -4.1,   -1.7,   -2.3,   -4.4,   -7.2,  -11.2,  -13.5,  999.0,  -12.1,  -10.9,   -9.8,  -11.2,  -15.1,  -17.8,  -18.5,  -17.6,  -17.1,  -14.3,  999.0,   -7.3,  -10.5,  -12.8,  -13.1,  -12.0,  -12.3,  -16.5,  -18.7,  -18.6,  -13.6,  -10.8,  -10.6,  -11.1,  -11.3,   -9.5,  -11.0,  -13.3,  999.0,  999.0,   -3.9,   -3.7,   -3.8,   -6.1,   -6.0,   -4.5,   -1.6,  999.0,  999.0,  999.0
2011/07/05 22:25,   -2.5,   -2.4,   -2.8,   -3.0,   -5.2,   -5.6,   -3.2,   -2.9,   -0.6,   -0.3,    0.2,   -1.4,   -1.8,   -1.5,   -0.7,   -0.4,   -1.2,   -1.2,   -1.9,    0.2,    0.3,    1.6,    2.3,    1.1,    1.5,    1.2,    1.6,    1.7,    2.8,    3.9,    1.5,    0.2,   -1.7,   -3.5,   -3.6,   -4.3,   -4.0,   -3.5,   -3.1,   -2.1,   -2.8,   -1.9,   -3.9,   -3.7,   -2.2,   -3.0,   -4.0,   -5.8,   -7.2,   -6.9,   -8.7,   -8.2,   -7.9,   -8.4,   -8.8,   -9.9,   -9.9,   -8.6,   -7.9,   -7.7,   -6.8,   -6.6,   -6.2,   -5.4,   -5.1,   -5.2,   -4.1,   -2.5,   -2.2,   -2.4,   -3.7,   -4.6,   -4.7,   -3.4,   -3.3,   -5.9,   -9.0,  -12.8,  -13.9,  999.0,  -12.3,  -13.4,  -10.9,  -12.0,  -14.2,  -18.5,  -17.9,  -17.3,  -16.6,  -13.9,  999.0,   -6.3,   -9.9,  -12.6,  -13.4,  -12.7,  -12.9,  -15.3,  -16.8,  -15.8,  -12.3,  -10.1,   -9.1,   -9.7,   -8.4,   -8.4,   -9.7,  -11.5,   -9.4,   -9.4,   -4.5,   -4.4,   -4.9,   -5.5,   -6.2,   -4.3,   -1.5,  999.0,  999.0,  999.0
2011/07/05 22:35,   -1.3,   -1.9,   -2.4,   -3.7,   -5.1,   -5.6,   -3.3,   -2.5,    0.2,    1.3,    0.9,    0.0,   -0.6,   -0.5,   -0.2,   -0.5,    0.0,   -1.1,   -0.6,   -0.0,    2.2,    2.5,    0.9,    0.5,    1.3,    1.8,    1.4,    1.4,    1.7,    1.5,   -0.0,   -1.5,   -4.0,   -5.1,   -5.7,   -5.2,   -4.5,   -3.8,   -3.8,   -3.5,   -3.1,   -3.8,   -3.9,   -4.6,   -3.5,   -2.7,   -3.2,   -3.7,   -5.2,   -6.5,   -6.9,   -6.9,   -6.7,   -7.5,   -8.4,   -8.3,   -8.6,   -8.0,   -7.8,   -7.5,   -6.4,   -5.9,   -5.8,   -5.8,   -5.0,   -4.8,   -4.8,   -4.5,   -3.3,   -1.8,   -2.2,   -4.0,   -4.2,   -1.9,   -2.4,   -4.5,   -8.5,  -11.2,  -11.0,  -11.9,  -11.9,  -12.6,   -9.5,  -11.6,  -13.6,  999.0,  -15.2,  -16.4,  -15.9,  -13.9,  999.0,   -6.6,   -9.9,  -12.4,  -13.2,  999.0,  -12.3,  -13.1,  -16.0,  -15.4,  -11.9,  -10.3,  -10.6,  -10.3,   -9.2,   -9.7,  -10.5,  -12.5,  999.0,   -8.5,   -3.7,   -5.4,   -4.8,   -6.3,   -6.0,   -4.2,    0.8,  999.0,  999.0,  999.0
2011/07/05 22:45,   -1.4,   -1.9,   -2.2,   -3.6,   -4.2,   -4.3,   -0.5,   -2.0,    0.6,    1.2,   -0.2,   -0.9,   -1.1,   -0.6,    0.0,   -0.2,   -0.7,   -0.9,   -0.5,    1.7,    1.9,    2.8,    0.9,   -0.2,   -0.1,    0.1,    0.0,   -0.6,    0.1,   -0.7,   -3.0,   -3.7,   -5.0,   -6.0,   -6.1,   -5.8,   -3.8,   -3.3,   -2.9,   -3.7,   -3.5,   -3.7,   -4.5,   -4.0,   -4.1,   -2.8,   -2.2,   -3.0,   -4.0,   -5.2,   -5.2,   -5.7,   -5.8,   -5.9,   -6.3,   -7.4,   -7.8,   -8.6,   -8.2,   -6.6,   -6.2,   -6.6,   -6.3,   -4.8,   -4.2,   -3.3,   -2.6,   -2.7,   -2.1,   -1.7,   -1.0,   -3.0,   -4.0,   -0.6,    0.2,   -1.7,   -5.3,   -9.0,  -10.2,  999.0,  -10.6,  -11.3,   -8.5,  -10.3,  -12.4,  -15.2,  999.0,  -16.4,  -16.6,  -14.6,  999.0,   -9.1,   -9.5,  -12.4,  -14.2,  -14.0,  999.0,  -16.6,  -19.2,  -14.7,  -10.6,  -11.7,  -13.5,  -11.1,  -11.3,   -9.7,  -11.7,  -12.0,   -9.9,   -8.3,  999.0,  999.0,   -4.0,   -4.5,   -4.7,   -4.2,  999.0,  999.0,  999.0,   -2.4
2011/07/05 22:55,   -1.0,   -1.5,   -2.5,   -3.9,   -4.7,   -2.9,   -2.1,   -1.3,    1.5,    1.5,   -0.4,   -1.5,   -1.2,   -0.5,    0.9,    1.2,    0.6,    0.0,    0.8,    1.1,    2.2,    3.0,    4.3,    1.8,   -0.1,    0.2,    0.9,    1.4,    1.5,    1.7,    0.8,   -1.1,   -1.5,   -3.4,   -3.1,   -3.8,   -1.2,   -2.4,   -1.5,   -1.0,   -2.6,   -1.7,   -1.8,   -2.8,   -1.5,   -1.7,   -1.9,   -2.1,   -2.9,   -3.8,   -3.3,   -4.3,   -5.1,   -5.3,   -5.3,   -6.0,   -6.3,   -6.3,   -6.6,   -5.5,   -4.5,   -4.7,   -5.2,   -5.2,   -4.0,   -3.4,   -3.0,   -1.6,   -1.9,   -1.5,   -1.6,   -2.8,   -3.5,   -1.4,   -0.5,   -2.2,   -5.0,   -8.3,  -11.2,  -12.3,   -9.7,  -11.4,   -9.9,   -9.8,  -12.9,  -14.5,  -16.3,  -16.0,  -15.1,  -13.9,  -10.9,   -7.1,   -8.8,  -11.1,  -12.5,  -13.2,  -15.0,  -15.3,  -18.9,  999.0,  -10.3,  -10.5,  -12.0,  -10.5,  -11.0,   -8.3,  -10.4,  999.0,  999.0,   -6.7,  999.0,   -1.0,   -1.5,   -3.9,   -4.0,   -3.4,   -2.1,  999.0,  999.0,  999.0
2011/07/05 23:05,   -2.1,   -1.9,   -4.0,   -4.5,   -5.6,   -4.3,   -1.8,   -0.8,    1.1,    1.8,    0.3,   -1.9,   -0.3,   -0.1,    1.0,    1.6,    0.7,    0.6,    0.5,    0.3,    2.1,    2.7,    3.2,    1.6,    0.4,    0.0,    0.6,    0.0,    0.4,    0.7,   -0.2,   -2.7,   -4.1,   -4.3,   -5.4,   -3.8,   -2.1,   -2.6,   -2.0,   -2.3,   -2.6,   -2.4,   -2.5,   -1.8,   -2.0,   -2.4,   -2.5,   -3.4,   -4.4,   -3.8,   -4.1,   -4.9,   -5.2,   -5.0,   -6.0,   -6.3,   -5.3,   -6.3,   -7.2,   -6.2,   -5.6,   -5.7,   -6.0,   -5.9,   -5.4,   -4.2,   -3.3,   -2.3,   -2.4,   -1.5,   -2.7,   -3.7,   -4.6,   -1.8,   -0.4,   -2.8,   -4.5,   -8.3,  -10.7,  -12.0,  -13.7,  -12.0,  -10.0,   -9.9,  -14.4,  -15.9,  -17.2,  -21.3,  999.0,  -12.0,  -10.2,   -5.3,   -8.4,  -11.7,  -12.9,  -13.3,  -15.3,  -17.5,  -18.6,  -18.6,  999.0,  -10.7,  -12.1,  -12.1,  -10.9,   -9.5,   -9.4,   -9.2,  999.0,   -5.2,   -1.8,   -2.9,   -2.1,   -3.4,   -3.7,   -5.2,   -2.5,   -1.4,  999.0,   -6.0
2011/07/05 23:15,   -0.6,   -1.8,   -3.8,   -4.8,   -5.6,   -5.4,   -2.7,   -0.9,    0.7,    2.0,    0.3,   -1.4,   -0.0,    0.5,    1.0,    1.6,    1.3,    0.4,    0.7,    1.7,    2.1,    2.9,    3.1,    2.4,   -0.1,   -0.2,    0.4,    0.4,    0.1,   -0.1,   -2.8,   -3.4,   -4.2,   -5.0,   -5.2,   -4.1,   -2.5,   -1.9,   -2.0,   -2.6,   -2.6,   -3.5,   -2.7,   -1.9,   -3.0,   -1.9,   -2.2,   -3.6,   -3.3,   -3.1,   -4.1,   -4.2,   -4.8,   -5.9,   -6.3,   -6.5,   -6.6,   -8.0,   -8.1,   -7.8,   -6.5,   -6.3,   -6.1,   -5.6,   -4.9,   -5.0,   -4.5,   -3.5,   -1.8,   -0.9,   -3.4,   -5.5,   -5.3,   -1.4,   -1.3,   -3.2,   -5.3,   -9.9,  -11.5,  -11.3,  -13.1,  -12.6,  -10.7,  -12.0,  -15.5,  -17.5,  -18.3,  -18.4,  -16.8,  -15.0,  -11.7,   -9.8,   -9.6,  -11.8,  -14.1,  -13.8,  999.0,  -15.6,  -18.9,  -20.7,  -11.8,   -9.5,  -11.0,  -10.6,   -9.9,   -8.5,   -6.3,  999.0,   -5.1,   -5.0,  999.0,   -0.5,   -2.0,   -2.7,   -3.4,   -3.4,  999.0,   -3.6,  999.0,   -7.5
2011/07/05 23:25,   -0.8,   -2.0,   -3.9,   -4.4,   -5.3,   -4.3,   -1.6,   -0.3,    2.0,    1.3,   -0.8,   -0.7,    0.3,    0.4,    2.0,    2.2,    1.6,    0.9,    1.6,    2.5,    2.8,  999.0,    2.0,    2.6,    1.5,    1.3,    1.5,    1.7,    0.8,    2.0,    0.4,   -1.5,   -2.9,   -2.9,   -3.7,   -2.3,   -1.5,   -0.6,   -0.5,   -0.9,   -2.1,   -1.8,   -1.5,   -1.4,   -0.7,   -1.9,   -1.7,   -2.4,   -3.9,   -3.6,   -3.7,   -3.8,   -4.2,   -5.6,   -6.3,   -7.0,   -7.8,   -8.1,   -7.8,   -6.6,   -6.4,   -7.0,   -6.4,   -6.3,   -6.3,   -5.3,   -3.9,   -3.0,   -2.5,   -1.6,   -3.5,   -5.9,   -6.1,   -2.4,   -1.5,   -3.0,   -5.7,  -10.4,  -12.1,  -12.8,  -14.0,  -13.2,  -11.1,  -10.9,  -14.6,  -15.5,  -15.6,  -17.7,  -15.1,  -17.4,  -10.7,   -9.0,   -9.0,  -12.4,  -14.7,  -15.1,  -15.3,  -17.3,  -19.3,  -17.1,  -12.0,  -11.2,  -12.5,  -13.6,  999.0,   -7.6,   -6.9,   -9.2,  999.0,  999.0,  999.0,  999.0,   -1.3,  999.0,   -2.3,   -3.3,   -2.7,   -0.7,   -2.8,  999.0
2011/07/05 23:35,   -1.0,   -2.5,   -3.1,   -4.0,   -4.2,   -4.5,   -1.8,   -0.9,    3.0,    2.5,   -0.4,   -0.1,   -0.1,    0.3,    1.4,    1.2,    0.5,    1.5,    2.0,    1.9,    2.6,    3.7,    3.0,    1.3,    1.4,    1.3,    1.6,    1.2,    1.1,    0.8,   -0.6,   -3.2,   -4.8,   -5.5,   -3.8,   -3.0,   -1.4,   -1.0,   -0.6,   -1.1,   -2.0,   -1.8,   -1.3,   -0.6,   -0.6,   -0.8,   -1.7,   -2.0,   -2.5,   -2.8,   -3.4,   -4.5,   -4.9,   -5.9,   -6.2,   -6.6,   -6.5,   -6.5,   -7.1,   -7.8,   -6.7,   -7.0,   -7.1,   -6.2,   -5.2,   -5.1,   -5.0,   -2.4,   -1.7,   -2.1,   -3.5,   -5.3,   -5.0,   -1.0,   -0.8,   -2.9,   -6.7,  -10.4,  -11.3,  -13.4,  -12.2,  -11.8,   -9.4,  -10.0,  -13.0,  -14.3,  -16.4,  -15.3,  -16.0,  -15.5,  -11.3,   -8.5,   -8.8,  -11.8,  -14.4,  -13.8,  -13.5,  -16.3,  -17.3,  -16.1,  -10.5,   -8.2,  -11.1,  -11.2,  -11.8,  999.0,   -7.5,  999.0,  999.0,  999.0,  999.0,  999.0,    0.6,   -3.9,   -2.8,   -3.2,   -3.3,   -2.6,   -3.9,   -6.2
2011/07/05 23:45,   -1.3,   -2.5,   -4.4,   -5.1,   -5.5,   -3.7,   -1.4,   -0.2,    2.6,    2.6,    1.1,   -1.3,   -0.2,    0.5,    1.7,    1.5,    0.2,    0.9,    1.0,    2.1,    3.3,    4.9,    3.0,    1.3,    1.9,    2.1,    1.8,    1.7,    1.9,    1.8,    0.4,   -2.3,   -4.6,   -5.6,   -4.9,   -2.4,   -1.0,    0.3,   -0.5,   -0.3,   -1.3,   -1.9,   -1.4,   -0.6,    0.4,    0.2,    0.3,   -1.1,   -2.0,   -2.1,   -2.5,   -2.5,   -3.6,   -4.8,   -5.5,   -5.4,   -6.0,   -6.5,   -6.9,   -6.8,   -6.4,   -6.4,   -7.4,   -6.4,   -5.0,   -4.0,   -3.8,   -2.5,   -1.9,   -1.9,   -4.0,   -4.3,   -3.2,    0.8,    0.6,   -1.8,   -5.5,   -9.1,  -11.2,  999.0,  999.0,  -11.0,   -9.2,   -9.5,  -12.2,  -14.7,  -15.6,  -15.7,  -14.4,  -14.1,  -10.1,   -6.3,   -8.7,  999.0,  -13.8,  -13.1,  -13.9,  999.0,  -17.3,  -16.6,  -15.8,   -8.1,  -10.6,  -12.3,  -12.9,   -9.3,  -10.3,  999.0,  999.0,   -7.0,   -2.6,  999.0,  999.0,   -1.3,   -2.6,   -2.6,   -2.8,   -3.4,  999.0,   -5.7
2011/07/05 23:55,   -0.8,   -2.9,   -3.4,   -4.5,   -5.4,   -3.0,   -1.1,    0.6,    3.5,    1.5,   -0.1,   -0.4,    0.2,    0.9,    1.3,   -0.2,   -0.7,   -0.5,   -0.9,    1.3,    3.1,    4.2,    2.2,    2.0,    1.8,    2.2,    3.0,    2.5,    3.2,    3.1,    2.5,   -0.4,   -2.2,   -2.7,   -3.4,   -2.9,   -1.6,   -0.2,    0.5,    0.8,   -0.2,   -2.3,   -1.5,   -0.8,   -0.1,    0.4,    0.5,   -0.8,   -1.6,   -2.2,   -2.4,   -2.3,   -4.2,   -5.2,   -5.5,   -6.3,   -6.8,   -7.0,   -7.4,   -7.2,   -6.8,   -8.2,   -8.2,   -7.8,   -5.1,   -3.7,   -3.5,   -3.2,   -4.5,   -5.1,   -5.6,   -5.4,   -2.7,    0.4,    0.3,   -3.1,   -6.2,   -9.5,  999.0,  999.0,  -10.9,  -11.2,  -10.0,  -10.1,  -14.9,  -13.8,  -17.5,  -16.8,  -15.1,  -14.6,  999.0,   -7.5,   -7.7,  -11.2,  -12.0,  -14.0,  -13.9,  -15.6,  -18.8,  -15.1,  -12.6,   -9.1,   -7.3,  -10.0,  -10.4,   -9.5,   -9.1,   -9.7,  999.0,  999.0,   -2.6,  999.0,  999.0,  999.0,   -3.5,   -3.5,   -4.3,   -4.7,   -6.5,   -8.0
